[[{"header":{"parameterUnit":"m.s-1","parameterCategory":1,"la1":30.6,"la2":28.766,"lo1":-90.7593,"lo2":-88.6598,"dy":0.0162,"dx":0.0183,"nx":116,"ny":114,"refTime":"2023-09-17T00:00:00:Z","depth":0,"parameterNumber":2,"parameterNumberName":"U-component_of_WINDS"},"data":[0.0,0.0,0.0,0.0,0.0,0.0,0.0,0.0,0.0,0.0,0.0,0.0,0.0,0.0,0.0,0.0,0.0,0.0,0.0,0.0,0.0,0.0,0.0,0.0,0.0,0.0,0.0,0.0,0.0,0.0,0.0,0.0,0.0,0.0,0.0,0.0,0.0,0.0,0.0,0.0,0.0,0.0,0.0,0.0,0.0,0.0,0.0,0.0,0.0,0.0,0.0,0.0,0.0,0.0,0.0,0.0,0.0,0.0,0.0,0.0,0.0,0.0,0.0,0.0,0.0,0.0,0.0,0.0,0.0,0.0,0.0,0.0,0.0,0.0,0.0,0.0,0.0,0.0,0.0,0.0,0.0,0.0,0.0,0.0,0.0,0.0,0.0,0.0,0.0,0.0,0.0,0.0,0.0,0.0,0.0,0.0,0.0,0.0,0.0,0.0,0.0,0.0,0.0,0.0,0.0,0.0,0.0,0.0,0.0,0.0,0.0,0.0,0.0,0.0,0.0,0.0,0.0,0.0,0.0,0.0,0.0,0.0,0.0,0.0,0.0,0.0,0.0,0.0,0.0,0.0,0.0,0.0,0.0,0.0,0.0,0.0,0.0,0.0,0.0,0.0,0.0,0.0,0.0,0.0,0.0,0.0,0.0,0.0,0.0,0.0,0.0,0.0,0.0,0.0,0.0,0.0,0.0,0.0,0.0,0.0,0.0,0.0,0.0,0.0,0.0,0.0,0.0,0.0,0.0,0.0,0.0,0.0,0.0,0.0,0.0,0.0,0.0,0.0,0.0,0.0,0.0,0.0,0.0,0.0,0.0,0.0,0.0,0.0,0.0,0.0,0.0,0.0,0.0,0.0,0.0,0.0,0.0,0.0,0.0,0.0,0.0,0.0,0.0,0.0,0.0,0.0,0.0,0.0,0.0,0.0,0.0,0.0,0.0,0.0,0.0,0.0,0.0,0.0,0.0,0.0,0.0,0.0,0.0,0.0,0.0,0.0,0.0,0.0,0.0,0.0,0.0,0.0,0.0,0.0,0.0,0.0,0.0,0.0,0.0,0.0,0.0,0.0,0.0,0.0,0.0,0.0,0.0,0.0,0.0,0.0,0.0,0.0,0.0,0.0,0.0,0.0,0.0,0.0,0.0,0.0,0.0,0.0,0.0,0.0,0.0,0.0,0.0,0.0,0.0,0.0,0.0,0.0,0.0,0.0,0.0,0.0,0.0,0.0,0.0,0.0,0.0,0.0,0.0,0.0,0.0,0.0,0.0,0.0,0.0,0.0,0.0,0.0,0.0,0.0,0.0,0.0,0.0,0.0,0.0,0.0,0.0,0.0,0.0,0.0,0.0,0.0,0.0,0.0,0.0,0.0,0.0,0.0,0.0,0.0,0.0,0.0,0.0,0.0,0.0,0.0,0.0,0.0,0.0,0.0,0.0,0.0,0.0,0.0,0.0,0.0,0.0,0.0,0.0,0.0,0.0,0.0,0.0,0.0,0.0,0.0,0.0,0.0,0.0,0.0,0.0,0.0,0.0,0.0,0.0,0.0,0.0,0.0,0.0,0.0,0.0,0.0,0.0,0.0,0.0,0.0,0.0,0.0,0.0,0.0,0.0,0.0,0.0,0.0,0.0,0.0,0.0,0.0,0.0,0.0,0.0,0.0,0.0,0.0,0.0,0.0,0.0,0.0,0.0,0.0,0.0,0.0,0.0,0.0,0.0,0.0,0.0,0.0,0.0,0.0,0.0,0.0,0.0,0.0,0.0,0.0,0.0,0.0,0.0,0.0,0.0,0.0,0.0,0.0,0.0,0.0,0.0,0.0,0.0,0.0,0.0,0.0,0.0,0.0,0.0,0.0,0.0,0.0,0.0,0.0,0.0,0.0,0.0,0.0,0.0,0.0,0.0,0.0,0.0,0.0,0.0,0.0,0.0,0.0,0.0,0.0,0.0,0.0,0.0,0.0,0.0,0.0,0.0,0.0,0.0,0.0,0.0,0.0,0.0,0.0,0.0,0.0,0.0,0.0,0.0,0.0,0.0,0.0,0.0,0.0,0.0,0.0,0.0,0.0,0.0,0.0,0.0,0.0,0.0,0.0,0.0,0.0,0.0,0.0,0.0,0.0,0.0,0.0,0.0,0.0,0.0,0.0,0.0,0.0,0.0,0.0,0.0,0.0,0.0,0.0,0.0,0.0,0.0,0.0,0.0,0.0,0.0,0.0,0.0,0.0,0.0,0.0,0.0,0.0,0.0,0.0,0.0,0.0,0.0,0.0,0.0,0.0,0.0,0.0,0.0,0.0,0.0,0.0,0.0,0.0,0.0,0.0,0.0,0.0,0.0,0.0,0.0,0.0,0.0,0.0,0.0,0.0,0.0,0.0,0.0,0.0,0.0,0.0,0.0,0.0,0.0,0.0,0.0,0.0,0.0,0.0,0.0,0.0,0.0,0.0,0.0,0.0,0.0,0.0,0.0,0.0,0.0,0.0,0.0,0.0,0.0,0.0,0.0,0.0,0.0,0.0,0.0,0.0,0.0,0.0,0.0,0.0,0.0,0.0,0.0,0.0,0.0,0.0,0.0,0.0,0.0,0.0,0.0,0.0,0.0,0.0,0.0,0.0,0.0,0.0,0.0,0.0,0.0,0.0,0.0,0.0,0.0,0.0,0.0,0.0,0.0,0.0,0.0,0.0,0.0,0.0,0.0,0.0,0.0,0.0,0.0,0.0,0.0,0.0,0.0,0.0,0.0,0.0,0.0,0.0,0.0,0.0,0.0,0.0,0.0,0.0,0.0,0.0,0.0,0.0,0.0,0.0,0.0,0.0,0.0,0.0,0.0,0.0,0.0,0.0,0.0,0.0,0.0,0.0,0.0,0.0,0.0,0.0,0.0,0.0,0.0,0.0,0.0,0.0,0.0,0.0,0.0,0.0,0.0,0.0,0.0,0.0,0.0,0.0,0.0,0.0,0.0,0.0,0.0,0.0,0.0,0.0,0.0,0.0,0.0,0.0,0.0,0.0,0.0,0.0,0.0,0.0,0.0,0.0,0.0,0.0,0.0,0.0,0.0,0.0,0.0,0.0,0.0,0.0,0.0,0.0,0.0,0.0,0.0,0.0,0.0,0.0,0.0,0.0,0.0,0.0,0.0,0.0,0.0,0.0,0.0,0.0,0.0,0.0,0.0,0.0,0.0,0.0,0.0,0.0,0.0,0.0,0.0,0.0,0.0,0.0,0.0,0.0,0.0,0.0,0.0,0.0,0.0,0.0,0.0,0.0,0.0,0.0,0.0,0.0,0.0,0.0,0.0,0.0,0.0,0.0,0.0,0.0,0.0,0.0,0.0,0.0,0.0,0.0,0.0,0.0,0.0,0.0,0.0,0.0,0.0,0.0,0.0,0.0,0.0,0.0,0.0,0.0,0.0,0.0,0.0,0.0,0.0,0.0,0.0,0.0,0.0,0.0,0.0,0.0,0.0,0.0,0.0,0.0,0.0,0.0,0.0,0.0,0.0,0.0,0.0,0.0,0.0,0.0,0.0,0.0,0.0,0.0,0.0,0.0,0.0,0.0,0.0,0.0,0.0,0.0,0.0,0.0,0.0,0.0,0.0,0.0,0.0,0.0,0.0,0.0,0.0,0.0,0.0,0.0,0.0,0.0,0.0,0.0,0.0,0.0,0.0,0.0,0.0,0.0,0.0,0.0,0.0,0.0,0.0,0.0,0.0,0.0,0.0,0.0,0.0,0.0,0.0,0.0,0.0,0.0,0.0,0.0,0.0,0.0,0.0,0.0,0.0,0.0,0.0,0.0,0.0,0.0,0.0,0.0,0.0,0.0,0.0,0.0,0.0,0.0,0.0,0.0,0.0,0.0,0.0,0.0,0.0,0.0,0.0,0.0,0.0,0.0,0.0,0.0,0.0,0.0,0.0,0.0,0.0,0.0,0.0,0.0,0.0,0.0,0.0,0.0,0.0,0.0,0.0,0.0,0.0,0.0,0.0,0.0,0.0,0.0,0.0,0.0,0.0,0.0,0.0,0.0,0.0,0.0,0.0,0.0,0.0,0.0,0.0,0.0,0.0,0.0,0.0,0.0,0.0,0.0,0.0,0.0,0.0,0.0,0.0,0.0,0.0,0.0,0.0,0.0,0.0,0.0,0.0,0.0,0.0,0.0,0.0,0.0,0.0,0.0,0.0,0.0,0.0,0.0,0.0,0.0,0.0,0.0,0.0,0.0,0.0,0.0,0.0,0.0,0.0,0.0,0.0,0.0,0.0,0.0,0.0,0.0,0.0,0.0,0.0,0.0,0.0,0.0,0.0,0.0,0.0,0.0,0.0,0.0,0.0,0.0,0.0,0.0,0.0,0.0,0.0,0.0,0.0,0.0,0.0,0.0,0.0,0.0,0.0,0.0,0.0,0.0,0.0,0.0,0.0,0.0,0.0,0.0,0.0,0.0,0.0,0.0,0.0,0.0,0.0,0.0,0.0,0.0,0.0,0.0,0.0,0.0,0.0,0.0,0.0,0.0,0.0,0.0,0.0,0.0,0.0,0.0,0.0,0.0,0.0,0.0,0.0,0.0,0.0,0.0,0.0,0.0,0.0,0.0,0.0,0.0,0.0,0.0,0.0,0.0,0.0,0.0,0.0,0.0,0.0,0.0,0.0,0.0,0.0,0.0,0.0,0.0,0.0,0.0,0.0,0.0,0.0,0.0,0.0,0.0,0.0,0.0,0.0,0.0,0.0,0.0,0.0,0.0,0.0,0.0,0.0,0.0,0.0,0.0,0.0,0.0,0.0,0.0,0.0,0.0,0.0,0.0,0.0,0.0,0.0,0.0,0.0,0.0,0.0,0.0,0.0,0.0,0.0,0.0,0.0,0.0,0.0,0.0,0.0,0.0,0.0,0.0,0.0,0.0,0.0,0.0,0.0,0.0,0.0,0.0,0.0,0.0,0.0,0.0,0.0,0.0,0.0,0.0,0.0,0.0,0.0,0.0,0.0,0.0,0.0,0.0,0.0,0.0,0.0,0.0,0.0,0.0,0.0,0.0,0.0,0.0,0.0,0.0,0.0,0.0,0.0,0.0,0.0,0.0,0.0,0.0,0.0,0.0,0.0,0.0,0.0,0.0,0.0,0.0,0.0,0.0,0.0,0.0,0.0,0.0,0.0,0.0,0.0,0.0,0.0,0.0,0.0,0.0,0.0,0.0,0.0,0.0,0.0,0.0,0.0,0.0,0.0,0.0,0.0,0.0,0.0,0.0,0.0,0.0,0.0,0.0,0.0,0.0,0.0,0.0,0.0,0.0,0.0,0.0,0.0,0.0,0.0,0.0,0.0,0.0,0.0,0.0,0.0,0.0,0.0,0.0,0.0,0.0,0.0,0.0,0.0,0.0,0.0,0.0,0.0,0.0,0.0,0.0,0.0,0.0,0.0,0.0,0.0,0.0,0.0,0.0,0.0,0.0,0.0,0.0,0.0,0.0,0.0,0.0,0.0,0.0,0.0,0.0,0.0,0.0,0.0,0.0,0.0,0.0,0.0,0.0,0.0,0.0,0.0,0.0,0.0,0.0,0.0,0.0,0.0,0.0,0.0,0.0,0.0,0.0,0.0,0.0,0.0,0.0,0.0,0.0,0.0,0.0,0.0,0.0,0.0,0.0,0.0,0.0,0.0,0.0,0.0,0.0,0.0,0.0,0.0,0.0,0.0,0.0,0.0,0.0,0.0,0.0,0.0,0.0,0.0,0.0,0.0,0.0,0.0,0.0,0.0,0.0,0.0,0.0,0.0,0.0,0.0,0.0,0.0,0.0,0.0,0.0,0.0,0.0,0.0,0.0,0.0,0.0,0.0,0.0,0.0,0.0,0.0,0.0,0.0,0.0,0.0,0.0,0.0,0.0,0.0,0.0,0.0,0.0,0.0,0.0,0.0,0.0,0.0,0.0,0.0,0.0,0.0,0.0,0.0,0.0,0.0,0.0,0.0,0.0,0.0,0.0,0.0,0.0,0.0,0.0,0.0,0.0,0.0,0.0,0.0,0.0,0.0,0.0,0.0,0.0,0.0,0.0,0.0,0.0,0.0,0.0,0.0,0.0,0.0,0.0,0.0,0.0,2.4939,0.0,0.0,0.0,0.0,0.0,0.0,0.0,0.0,0.0,0.0,0.0,0.0,0.0,0.0,0.0,0.0,0.0,0.0,0.0,0.0,0.0,0.0,0.0,0.0,0.0,0.0,0.0,0.0,0.0,0.0,0.0,0.0,0.0,0.0,0.0,0.0,0.0,0.0,0.0,0.0,0.0,0.0,0.0,0.0,0.0,0.0,0.0,0.0,0.0,0.0,0.0,0.0,0.0,0.0,0.0,0.0,0.0,0.0,0.0,0.0,0.0,0.0,0.0,0.0,0.0,0.0,0.0,0.0,0.0,0.0,0.0,0.0,0.0,0.0,0.0,0.0,0.0,0.0,0.0,0.0,0.0,0.0,0.0,0.0,0.0,0.0,0.0,0.0,0.0,0.0,0.0,0.0,0.0,0.0,0.0,0.0,0.0,0.0,0.0,0.0,0.0,0.0,0.0,0.0,0.0,0.0,0.0,0.0,0.0,0.0,0.0,0.0,0.0,0.0,0.0,0.0,2.5713,0.0,0.0,0.0,0.0,0.0,0.0,0.0,0.0,0.0,0.0,0.0,0.0,0.0,0.0,0.0,0.0,0.0,0.0,0.0,0.0,0.0,0.0,0.0,0.0,0.0,0.0,0.0,0.0,0.0,0.0,0.0,0.0,0.0,0.0,0.0,0.0,0.0,0.0,0.0,0.0,0.0,0.0,0.0,0.0,0.0,0.0,0.0,0.0,0.0,0.0,0.0,0.0,0.0,0.0,0.0,0.0,0.0,0.0,0.0,0.0,0.0,0.0,0.0,0.0,0.0,0.0,0.0,0.0,0.0,0.0,0.0,0.0,0.0,0.0,0.0,0.0,0.0,0.0,0.0,0.0,0.0,0.0,0.0,0.0,0.0,0.0,0.0,0.0,0.0,0.0,0.0,0.0,0.0,0.0,0.0,0.0,0.0,0.0,0.0,0.0,0.0,0.0,0.0,0.0,0.0,0.0,0.0,0.0,3.1487,3.1847,3.2161,3.2855,3.3309,3.3355,3.0542,2.8613,2.738,2.6767,0.0,0.0,0.0,0.0,0.0,0.0,0.0,0.0,0.0,0.0,0.0,0.0,0.0,0.0,0.0,0.0,0.0,0.0,0.0,0.0,0.0,0.0,0.0,0.0,0.0,0.0,0.0,0.0,0.0,0.0,0.0,0.0,0.0,0.0,0.0,0.0,0.0,0.0,2.7285,2.8561,2.9154,2.9052,0.0,0.0,0.0,0.0,0.0,0.0,0.0,0.0,0.0,0.0,0.0,0.0,0.0,0.0,0.0,0.0,0.0,0.0,0.0,0.0,0.0,0.0,0.0,0.0,0.0,0.0,0.0,0.0,0.0,0.0,0.0,0.0,0.0,0.0,0.0,0.0,0.0,0.0,0.0,0.0,0.0,0.0,0.0,0.0,2.3548,2.3595,0.0,0.0,0.0,0.0,0.0,0.0,0.0,0.0,0.0,0.0,0.0,0.0,0.0,3.0727,3.2445,3.3331,3.3368,3.2608,3.3965,3.3804,3.2329,3.3391,3.4478,3.5603,3.5495,0.0,3.0638,2.8894,0.0,0.0,0.0,0.0,0.0,0.0,0.0,0.0,0.0,0.0,0.0,0.0,0.0,0.0,0.0,0.0,0.0,0.0,0.0,0.0,0.0,0.0,0.0,0.0,0.0,0.0,0.0,0.0,0.0,0.0,0.0,0.0,0.0,0.0,0.0,0.0,2.7388,2.8784,2.9678,3.0743,3.1482,3.1806,3.052,2.9278,2.8064,2.6327,0.0,0.0,0.0,0.0,0.0,0.0,0.0,0.0,0.0,0.0,0.0,0.0,0.0,0.0,0.0,0.0,0.0,0.0,0.0,0.0,0.0,0.0,0.0,0.0,0.0,0.0,0.0,0.0,0.0,0.0,0.0,0.0,0.0,0.0,0.0,0.0,0.0,0.0,0.0,2.432,2.498,2.3541,2.4676,2.5258,0.0,0.0,0.0,0.0,0.0,0.0,0.0,0.0,0.0,3.086,3.2121,3.3375,3.4631,3.6016,3.6943,3.7343,3.8174,3.8318,3.7934,3.8785,3.9468,4.0034,4.0093,3.8742,3.6273,3.3206,3.1029,2.9472,0.0,0.0,0.0,0.0,2.9632,3.0511,0.0,0.0,0.0,0.0,0.0,0.0,0.0,0.0,0.0,0.0,0.0,0.0,0.0,0.0,0.0,2.6576,0.0,0.0,0.0,0.0,0.0,0.0,0.0,0.0,0.0,0.0,0.0,0.0,2.9369,3.1145,3.2357,3.3288,3.4015,3.4556,3.4556,3.2741,2.9621,2.7914,2.6696,0.0,0.0,0.0,0.0,0.0,0.0,0.0,0.0,0.0,0.0,0.0,0.0,0.0,0.0,0.0,0.0,0.0,0.0,0.0,0.0,0.0,0.0,0.0,0.0,0.0,0.0,0.0,0.0,0.0,0.0,0.0,0.0,0.0,0.0,0.0,0.0,0.0,0.0,2.5428,2.6277,2.3867,2.6061,2.7098,0.0,0.0,0.0,0.0,0.0,0.0,3.0892,3.213,3.3274,3.4308,3.5687,3.6818,3.7661,3.9004,4.0266,4.1462,4.1501,4.1783,4.2295,4.274,4.3065,4.3186,4.3022,4.2372,4.1081,3.7062,3.4355,3.2609,3.15,3.0987,3.1023,3.2181,3.3141,3.4093,0.0,0.0,0.0,0.0,0.0,0.0,0.0,0.0,0.0,0.0,0.0,0.0,0.0,0.0,2.8282,2.9824,3.0026,2.9732,0.0,0.0,0.0,0.0,0.0,0.0,0.0,0.0,0.0,2.9214,3.2225,3.425,3.5436,3.6924,3.7652,3.7686,3.7686,3.6738,3.4922,3.0692,2.9399,2.9817,0.0,0.0,0.0,0.0,0.0,0.0,0.0,0.0,0.0,0.0,0.0,0.0,0.0,0.0,0.0,0.0,0.0,0.0,0.0,0.0,0.0,0.0,0.0,0.0,0.0,0.0,0.0,0.0,0.0,0.0,0.0,0.0,0.0,0.0,0.0,0.0,0.0,0.0,0.0,2.5138,2.8493,0.0,0.0,0.0,0.0,2.9746,3.1584,3.2823,3.3046,3.4623,3.6271,3.7984,4.0306,4.2035,4.297,4.3127,4.3199,4.3238,4.2562,4.2267,4.2317,4.2334,4.2624,4.3194,4.3187,4.3403,4.3478,3.934,3.7123,3.6213,3.5154,3.521,3.5844,3.511,3.5385,3.6038,0.0,0.0,0.0,0.0,0.0,0.0,0.0,0.0,0.0,0.0,0.0,0.0,0.0,2.9806,3.1404,3.2669,3.3343,3.2549,2.9819,0.0,0.0,0.0,0.0,0.0,0.0,0.0,2.9894,3.1981,3.4984,3.6927,3.7821,3.8836,3.9309,3.9309,3.9309,3.8751,3.7567,3.4015,3.1642,3.0009,2.7166,2.5229,0.0,0.0,0.0,0.0,0.0,0.0,0.0,0.0,0.0,0.0,0.0,0.0,0.0,0.0,0.0,0.0,0.0,0.0,0.0,0.0,0.0,0.0,0.0,0.0,0.0,0.0,0.0,0.0,0.0,0.0,0.0,0.0,0.0,0.0,0.0,0.0,0.0,3.0486,3.3439,0.0,3.1405,3.2258,3.2981,3.2892,3.5397,3.7413,3.8475,4.019,4.17,4.2844,4.3835,4.4524,4.4857,4.5343,4.5572,4.5597,4.5354,4.5196,4.5196,4.5196,4.5021,4.4761,4.4311,4.391,4.3503,4.1922,4.0435,3.8977,3.7578,3.6952,3.6826,3.7383,3.808,3.8891,0.0,0.0,0.0,0.0,0.0,0.0,0.0,0.0,0.0,0.0,0.0,2.7354,2.9307,3.2125,3.4215,3.5109,3.545,3.4285,3.1059,0.0,0.0,0.0,0.0,0.0,0.0,2.9942,3.2093,3.4539,3.7043,3.865,3.9377,3.9851,4.007,4.0087,4.0341,4.0054,3.9242,3.7499,3.4759,3.1376,2.909,2.7623,2.6588,0.0,0.0,0.0,0.0,0.0,0.0,0.0,0.0,0.0,0.0,0.0,0.0,0.0,0.0,0.0,0.0,0.0,0.0,0.0,0.0,0.0,0.0,0.0,0.0,0.0,0.0,0.0,0.0,0.0,0.0,0.0,0.0,0.0,0.0,3.272,3.5249,3.4955,3.7787,3.8679,3.5907,3.6696,3.7325,3.7137,3.9679,4.1691,4.2847,4.4034,4.5075,4.584,4.5936,4.5973,4.5951,4.6441,4.668,4.6707,4.6758,4.6792,4.6792,4.6792,4.653,4.6007,4.5269,4.4694,4.4108,4.3545,4.2566,4.1393,4.0521,3.9847,3.9499,4.059,4.1357,4.1937,0.0,0.0,0.0,0.0,0.0,0.0,0.0,0.0,0.0,0.0,2.4704,2.7752,3.0399,3.4102,3.6635,3.7155,3.6287,3.4771,3.259,2.8415,0.0,0.0,0.0,0.0,2.8947,3.1565,3.4206,3.6857,3.8311,3.9394,4.007,4.0104,4.0104,4.0138,4.0848,4.078,4.0189,4.0933,3.8717,3.4472,3.1495,3.0666,3.0818,0.0,0.0,0.0,0.0,0.0,0.0,0.0,0.0,0.0,0.0,0.0,0.0,0.0,0.0,0.0,0.0,0.0,0.0,0.0,0.0,0.0,0.0,0.0,0.0,0.0,0.0,0.0,0.0,0.0,0.0,0.0,0.0,0.0,3.1972,3.5727,3.843,3.8207,4.1407,4.2472,3.9529,4.238,4.3872,4.2492,4.4284,4.5562,4.5738,4.5784,4.6096,4.6794,4.6657,4.6489,4.6512,4.6512,4.6495,4.6569,4.6703,4.6848,4.6865,4.6865,4.6865,4.6765,4.6099,4.5767,4.5631,4.4088,4.3457,4.3481,4.3825,4.3913,4.3986,4.4659,4.4926,4.4881,0.0,0.0,0.0,0.0,0.0,0.0,0.0,0.0,0.0,0.0,2.6998,3.0659,3.2164,3.6396,3.9101,3.9058,3.6856,3.4364,3.172,0.0,0.0,0.0,0.0,0.0,3.3297,3.4571,3.6232,3.8379,3.9326,3.9884,4.0087,3.9971,3.9918,3.9967,4.0713,4.0928,4.0801,4.1651,4.1271,3.98,3.574,3.3254,3.1788,0.0,0.0,0.0,0.0,0.0,0.0,0.0,0.0,0.0,0.0,0.0,0.0,0.0,0.0,0.0,0.0,0.0,0.0,0.0,0.0,0.0,0.0,0.0,0.0,0.0,0.0,0.0,0.0,0.0,0.0,0.0,3.5881,3.7905,3.6655,4.0146,4.3172,4.4215,4.665,4.731,4.4874,4.6028,4.6289,4.4878,4.6288,4.7244,4.7305,4.7792,4.7851,4.7376,4.7325,4.6946,4.6312,4.6237,4.6625,4.7306,4.734,4.7749,4.8377,4.8377,4.8079,4.7569,4.7383,4.698,4.6404,4.549,4.506,4.4914,4.3389,4.2415,4.2053,4.2695,4.3091,4.3385,0.0,0.0,0.0,0.0,0.0,0.0,0.0,0.0,0.0,0.0,2.7677,3.1719,3.2517,3.6608,3.8948,3.8119,3.525,3.2444,2.9942,0.0,0.0,0.0,0.0,3.1793,3.5425,3.6395,3.7733,3.9445,3.9868,4.0053,4.001,3.9908,4.0009,4.0248,4.107,4.1334,4.1395,4.2642,4.2952,4.2434,4.0238,3.821,3.6243,3.3997,3.2672,3.1883,3.0937,3.0716,3.0659,2.917,0.0,0.0,0.0,0.0,0.0,0.0,0.0,0.0,0.0,0.0,0.0,0.0,0.0,0.0,0.0,0.0,0.0,0.0,0.0,0.0,0.0,0.0,0.0,0.0,4.0113,4.2586,4.2774,4.4834,4.6955,4.846,4.9779,5.0067,4.8765,4.9063,4.8911,4.8082,4.8523,4.883,4.8836,4.8565,4.813,4.7603,4.7044,4.6389,4.5578,4.5825,4.6316,4.7029,4.7375,4.8079,4.9001,4.9001,4.8771,4.8326,4.8029,4.7625,4.719,4.649,4.6152,0.0,0.0,0.0,0.0,0.0,4.3441,4.3327,0.0,0.0,0.0,0.0,0.0,0.0,0.0,0.0,0.0,0.0,0.0,3.1429,3.1703,3.5294,3.7088,3.5603,3.2638,2.9938,0.0,0.0,0.0,2.9225,3.1147,3.3505,3.638,3.7539,3.8785,4.007,4.0155,4.0115,3.9867,3.9992,4.0237,4.0737,4.1548,4.1849,4.1944,4.3571,4.3912,4.3471,4.4356,4.3787,4.2049,3.8684,3.7478,3.7254,3.5074,3.3315,3.1864,3.0882,0.0,0.0,0.0,0.0,0.0,0.0,0.0,0.0,0.0,0.0,0.0,0.0,0.0,0.0,0.0,0.0,0.0,0.0,0.0,0.0,0.0,0.0,0.0,0.0,4.404,4.6476,4.8889,4.9236,4.9822,5.1183,5.142,5.1437,5.1352,5.1298,5.1295,5.1116,5.0355,4.9932,4.9919,0.0,0.0,0.0,0.0,4.546,4.4841,4.5354,4.5851,4.6255,4.7243,4.819,4.9069,4.9086,4.9086,4.9069,4.8326,4.8029,4.7978,4.7248,4.687,4.6633,4.5162,4.4587,4.4648,4.5078,4.4715,4.4039,0.0,0.0,0.0,0.0,0.0,0.0,0.0,0.0,0.0,2.1803,2.7113,3.0553,2.9554,3.3301,3.56,3.4779,3.1987,2.9542,0.0,0.0,2.8354,3.2338,3.4007,3.5966,3.8374,3.9257,3.9783,4.007,4.0696,4.0635,3.99,4.0437,4.069,4.0671,4.1439,4.2046,4.256,4.3635,4.4415,4.494,4.516,4.4432,4.3047,4.1728,4.0527,3.9253,3.734,3.7283,3.7756,3.5419,3.4902,3.4852,3.268,0.0,0.0,0.0,0.0,0.0,0.0,0.0,0.0,0.0,0.0,0.0,0.0,0.0,0.0,0.0,0.0,0.0,0.0,0.0,0.0,4.3905,4.7079,4.9468,5.0322,5.0929,5.1558,5.2048,5.2672,5.2807,5.2147,5.2094,5.162,5.0426,4.951,4.894,4.8907,4.7885,4.7144,4.6881,4.6635,4.6107,4.5176,4.5293,4.5758,4.6639,0.0,0.0,4.9548,4.978,4.9865,4.9831,4.9086,4.8787,4.8737,4.8006,4.7315,4.6633,4.5162,4.4587,4.4529,4.3855,4.3534,4.3467,0.0,0.0,0.0,0.0,0.0,0.0,0.0,0.0,0.0,0.0,2.6018,2.8829,2.8317,3.0468,3.175,3.1196,2.8789,0.0,0.0,2.8197,3.0412,3.4912,3.6163,3.7635,3.9495,3.9884,4.007,4.007,4.0417,4.0321,3.9865,4.0452,4.082,4.1024,4.1708,4.2362,4.3076,4.432,4.5096,4.5645,4.6633,4.6612,4.5874,4.4906,4.3623,4.2238,4.1291,4.0519,3.9705,3.7998,3.693,3.5987,3.4224,3.1934,2.9818,0.0,0.0,0.0,0.0,0.0,0.0,0.0,0.0,0.0,0.0,0.0,0.0,0.0,0.0,3.847,3.9946,0.0,4.4854,4.6901,4.9362,5.085,5.0668,5.1238,5.159,5.1355,5.1707,5.1789,5.1411,5.1343,5.1012,5.0319,4.9483,4.9,4.8957,4.767,4.69,4.6732,4.6599,4.6088,4.528,4.562,4.6116,4.667,4.7763,4.88,4.9708,4.9982,5.0074,5.0045,4.93,4.9001,4.8984,4.8574,4.8247,4.7784,4.6684,4.6024,4.5608,4.477,4.4211,4.387,0.0,0.0,0.0,0.0,0.0,0.0,0.0,0.0,0.0,0.0,0.0,2.6864,2.7025,2.7687,2.7881,0.0,0.0,0.0,0.0,2.979,3.2527,3.7009,3.7922,3.8954,4.0257,4.0172,4.0188,4.051,4.0376,4.028,4.0226,4.0727,4.124,4.1594,4.2132,4.2731,4.3359,4.4678,4.5357,4.5647,4.7236,4.7969,4.8046,4.7062,4.5967,4.4925,4.435,4.2388,4.0003,3.9394,3.7804,3.5921,3.5138,3.3831,3.2234,3.0723,3.0225,0.0,0.0,0.0,0.0,0.0,0.0,0.0,0.0,3.5498,3.6671,3.8456,4.0351,4.2271,4.431,4.6462,4.8345,4.9636,5.0982,5.1443,5.0434,5.0639,5.0607,4.99,5.0167,5.037,5.037,5.0418,5.0333,5.0189,4.9457,4.897,4.8977,4.7465,4.6696,4.6834,4.6635,4.6189,4.5679,4.6232,4.6615,4.68,4.7869,4.8925,4.9859,5.0089,5.0287,5.026,4.9351,4.9103,4.9221,4.9069,4.9086,4.9137,4.8409,4.7767,4.7107,4.6244,4.5517,4.4948,0.0,0.0,0.0,0.0,0.0,0.0,0.0,0.0,0.0,0.0,0.0,0.0,0.0,0.0,0.0,0.0,0.0,0.0,3.1033,3.1759,3.4049,3.8548,3.9445,4.0223,4.1068,4.0296,4.0596,4.2033,4.1803,4.1646,4.1693,4.2231,4.2386,4.2252,4.2404,4.2731,4.3329,4.3468,4.4096,4.492,4.5129,4.5744,4.648,4.6309,4.6388,4.6194,4.3504,4.1508,4.0104,3.9986,3.8937,3.7736,3.8258,3.7132,3.5332,3.3913,0.0,3.1069,3.1641,3.2472,3.3512,3.4994,3.4921,3.6078,0.0,4.2669,4.2562,4.5515,4.6481,4.7067,4.7979,4.9026,5.0214,5.1338,5.1756,5.1457,5.0043,4.9392,4.8723,4.7779,4.9279,5.0358,5.0358,5.039,5.012,4.9457,4.8537,4.7932,4.7898,4.6915,4.662,4.7197,4.7174,4.7118,4.7115,4.716,4.7231,4.7242,4.8214,4.9284,5.0326,5.062,5.0854,5.1008,4.9582,4.9345,4.9907,4.9244,4.939,4.9898,4.9171,4.8832,4.8595,4.7192,4.6607,4.6571,0.0,0.0,0.0,0.0,0.0,0.0,0.0,0.0,0.0,0.0,0.0,0.0,0.0,0.0,0.0,0.0,0.0,0.0,3.1433,3.2474,3.4928,3.9428,3.9918,4.0443,4.1187,4.0838,4.0959,4.1566,4.1763,4.1625,4.1142,4.2119,4.2455,4.2387,4.315,4.3658,4.3958,4.4736,4.5311,4.5657,4.5834,4.6173,4.6375,4.491,4.3994,4.3372,4.246,4.038,0.0,0.0,3.7753,3.7297,3.7601,3.6831,3.5479,3.3842,3.3244,0.0,3.4576,3.4962,3.5469,3.7267,3.8717,4.0611,4.4044,4.5266,4.6275,4.8478,4.971,5.0543,5.1344,5.1294,5.1078,5.1025,5.081,5.0166,4.8584,4.8465,4.7931,4.6311,4.7228,4.8162,4.8538,4.8584,4.8469,4.8158,4.7722,4.7513,4.7509,4.7087,4.698,4.7294,4.7309,4.7309,4.7309,4.7309,4.7309,4.7294,4.8293,4.9346,5.0397,5.0709,5.071,5.0555,4.9898,4.9818,5.0021,4.9323,4.9424,5.0016,4.9289,4.9001,4.8883,4.7834,4.7411,4.7386,0.0,0.0,0.0,0.0,0.0,0.0,0.0,0.0,0.0,0.0,0.0,0.0,0.0,0.0,0.0,0.0,0.0,0.0,0.0,3.24,3.4996,3.9292,3.9833,4.0385,4.1141,4.0873,4.1009,4.1559,4.1658,4.1647,4.1465,4.2289,4.2626,4.2686,4.3808,4.4317,4.4392,4.5544,4.5933,4.5807,4.597,4.5723,4.4987,4.2911,4.0923,3.9374,4.0261,3.8372,0.0,0.0,3.5707,3.5571,3.5791,3.5605,3.5023,3.375,3.4031,3.5047,3.6163,3.6865,3.7735,3.9747,4.2455,4.4959,4.6143,4.7986,4.9881,5.1336,5.2101,5.2639,5.3026,5.2241,5.1155,5.0165,4.9718,4.9074,4.7767,4.7655,4.7174,4.55,4.5605,4.5957,4.6426,4.6815,4.7115,4.7294,4.7309,4.7384,4.7563,4.7399,4.7474,4.7833,4.7489,4.7414,4.7608,4.7414,4.7309,4.7309,4.8072,4.9069,5.0458,5.0933,5.0944,5.0405,5.0409,5.0392,5.0338,4.961,4.9864,5.0574,4.9458,4.912,4.9221,4.8494,4.8223,4.8139,0.0,0.0,0.0,0.0,0.0,0.0,0.0,0.0,0.0,0.0,0.0,0.0,0.0,0.0,0.0,0.0,0.0,0.0,0.0,3.1459,3.3998,3.7804,3.9196,4.0236,4.0976,4.0087,4.0739,4.2941,4.1935,4.2137,4.3623,4.3408,4.3299,4.3329,4.4003,4.4317,4.4362,4.5035,4.496,4.4377,4.4347,4.3274,4.1415,4.0036,3.7488,3.491,3.6351,0.0,0.0,0.0,3.3034,3.2544,3.3271,3.3981,0.0,3.4481,3.4979,3.5588,3.5639,3.777,4.051,4.2743,4.5551,4.8342,5.0524,5.2215,5.3754,5.5243,5.4183,5.2768,5.2164,5.1155,5.0087,4.9054,4.8841,4.8706,4.8323,4.7174,4.6112,4.5364,4.4751,4.4377,0.0,4.5589,4.6621,4.7249,4.7309,4.7578,4.8222,4.7653,4.7893,4.9164,4.7967,4.7566,4.8298,4.7581,4.7309,4.7309,4.7294,4.8392,5.0458,5.1688,5.1828,5.1183,5.1183,5.1183,5.1116,5.0371,5.0913,5.2029,4.9847,4.9441,4.9965,4.9238,4.8968,4.8968,0.0,0.0,0.0,0.0,0.0,0.0,0.0,0.0,0.0,0.0,0.0,0.0,0.0,0.0,0.0,0.0,0.0,0.0,0.0,3.0859,3.3288,3.5554,3.7934,3.9561,4.0285,3.993,4.0371,4.1491,4.1533,4.1595,4.1487,4.2316,4.2686,4.2731,4.3823,4.4317,4.4362,4.502,4.5439,4.5499,4.3733,4.2895,4.2327,3.8811,3.5578,3.2898,0.0,0.0,0.0,0.0,3.0632,3.0886,3.114,3.1715,3.2493,3.3474,3.4286,3.5369,3.77,4.0453,4.3191,4.5196,4.7582,4.9774,5.1506,5.2737,5.3547,5.353,5.2026,5.048,4.9823,4.7748,4.6257,4.6812,4.6655,4.6728,4.756,4.7249,4.6396,4.4825,4.4825,4.4796,0.0,0.0,0.0,4.6602,4.7476,4.8087,4.8283,4.8521,4.8805,4.9254,4.8416,4.8072,4.8341,4.7653,4.7309,4.7309,4.8708,4.9311,4.936,5.119,5.1602,5.0905,5.0905,5.1346,5.1877,5.1133,5.142,5.2181,5.0947,5.0304,5.0118,5.0371,4.9847,4.9001,0.0,0.0,0.0,0.0,0.0,0.0,0.0,0.0,0.0,0.0,0.0,0.0,0.0,0.0,0.0,0.0,0.0,0.0,0.0,0.0,3.121,3.2848,3.4804,3.6176,3.6878,3.6428,3.6596,3.7425,3.805,3.8515,3.8676,3.9978,4.0711,4.0995,4.2327,4.291,4.2955,4.3614,4.3733,4.3314,4.1369,4.0008,3.8751,3.507,3.2216,0.0,0.0,0.0,0.0,2.7992,2.867,2.9347,2.9617,3.1123,3.2889,3.3478,3.4925,3.7053,4.0352,4.3051,4.5572,4.7866,5.0053,5.1869,5.2523,5.3131,5.3213,5.2044,5.0083,4.8195,4.6805,4.42,4.2836,4.4373,4.421,4.4616,4.6666,4.6741,4.6112,4.4811,4.4825,4.4781,4.4347,0.0,0.0,4.6587,4.7685,4.8416,4.8626,4.9075,4.9479,4.9942,4.9105,4.87,4.864,4.8037,4.7531,4.7309,4.9004,4.9694,4.9456,5.0763,5.1366,5.1356,5.1239,5.1589,5.2266,5.1792,5.2046,5.2638,5.1606,5.1082,5.0913,5.1133,5.0399,4.9251,0.0,0.0,0.0,0.0,0.0,0.0,0.0,0.0,0.0,0.0,0.0,0.0,0.0,0.0,0.0,0.0,0.0,0.0,0.0,0.0,0.0,2.9824,3.0234,3.0702,3.139,3.0222,3.0203,3.1435,3.2063,3.3335,3.5235,3.6477,3.7389,3.8048,3.9349,3.9963,4.0038,4.0636,3.9813,3.8078,3.7315,3.4786,3.1198,2.9265,0.0,0.0,0.0,0.0,0.0,2.6623,2.7368,2.818,2.8958,3.2154,3.5457,3.4702,3.7059,4.054,4.3402,4.5612,4.77,5.0565,5.2806,5.4094,5.3525,5.3337,5.2684,5.0698,4.829,4.5754,4.3207,4.0832,3.9948,4.1893,4.1848,4.2716,4.5963,4.5888,4.5484,4.5454,4.49,4.4511,4.4511,4.508,0.0,4.7354,0.0,4.8641,4.9329,4.9374,4.9927,5.1184,4.9972,4.9329,4.9358,4.8663,4.7974,4.7294,4.8293,4.9311,5.0242,5.032,5.1002,5.2185,5.191,5.2054,5.2367,5.2367,5.2807,5.3365,5.1911,5.1725,5.2215,5.149,5.056,4.9733,0.0,0.0,0.0,0.0,0.0,0.0,0.0,0.0,0.0,0.0,0.0,0.0,0.0,0.0,0.0,0.0,0.0,0.0,0.0,0.0,0.0,0.0,0.0,0.0,0.0,0.0,0.0,0.0,0.0,3.0597,3.1106,3.1898,3.2347,3.2557,3.341,3.4068,3.4502,3.4173,3.4307,3.4562,0.0,3.1255,3.0492,0.0,0.0,0.0,0.0,0.0,0.0,0.0,2.9617,3.1275,3.2036,3.3812,3.6096,3.8642,4.1055,4.3502,4.6201,4.8639,5.0662,5.1697,5.2337,5.2627,5.1972,5.0266,4.8355,4.6295,4.3062,3.997,3.7819,3.7699,3.8407,3.9933,4.2491,4.511,4.7459,4.8057,4.8072,4.7578,4.7369,4.7279,4.7279,4.7414,0.0,0.0,4.9194,4.9508,5.0661,5.072,5.087,5.1214,5.0421,4.9972,4.9927,4.885,4.798,4.7294,4.8293,4.8527,4.8088,4.8841,4.982,5.0895,5.0774,5.1678,5.3196,5.3196,5.3315,5.3467,5.3078,5.2672,5.2267,5.1824,5.0826,4.9592,0.0,0.0,0.0,0.0,0.0,0.0,0.0,0.0,0.0,0.0,0.0,0.0,0.0,0.0,0.0,0.0,0.0,0.0,0.0,0.0,0.0,0.0,0.0,0.0,0.0,0.0,0.0,0.0,0.0,0.0,0.0,2.8476,2.9088,2.9394,3.0081,3.0548,3.0868,0.0,0.0,0.0,0.0,0.0,0.0,0.0,0.0,0.0,0.0,0.0,0.0,0.0,3.2713,3.4024,3.5633,3.7942,4.051,4.2942,4.5102,4.7107,4.8954,5.0931,5.2381,5.2617,5.2411,5.1723,4.9912,4.7683,4.502,4.1579,3.8871,3.6432,3.4173,3.4592,3.6073,3.8571,4.107,4.3928,4.7369,4.8177,4.8476,4.8686,4.897,4.9149,4.9132,4.9403,5.011,5.1395,5.0667,5.0571,5.1588,5.1598,5.1598,5.1648,5.1005,5.0526,5.0242,4.9224,4.8386,4.7743,4.8273,4.8347,4.7988,4.8512,4.9599,5.108,0.0,5.2026,5.3433,5.3025,5.28,5.2784,5.2329,5.1834,5.1432,5.1304,5.0413,4.9288,0.0,0.0,0.0,0.0,0.0,0.0,0.0,0.0,0.0,0.0,0.0,0.0,0.0,0.0,0.0,0.0,0.0,0.0,0.0,0.0,0.0,0.0,0.0,0.0,0.0,0.0,0.0,0.0,0.0,0.0,0.0,0.0,0.0,0.0,0.0,0.0,0.0,0.0,0.0,0.0,0.0,0.0,0.0,0.0,0.0,0.0,0.0,0.0,0.0,0.0,3.6163,3.7072,3.9757,4.3095,4.6253,4.7311,4.8816,5.0404,5.1605,5.2609,5.3309,5.3309,5.2621,5.1109,4.7908,4.5274,4.2132,3.7225,3.5489,3.4113,3.1719,3.2018,3.3903,3.7764,3.92,4.1624,4.683,4.7563,4.8072,4.9539,5.0137,5.0483,5.0563,5.1106,5.2002,5.3269,5.2271,5.1872,5.239,5.233,5.2196,5.2067,5.1513,5.09,5.0242,4.9673,4.9075,4.8416,4.8327,4.8445,4.8733,4.879,4.9836,5.1687,5.1832,5.24,5.3195,5.2312,5.1849,5.1614,5.0703,5.0397,5.0397,5.0242,4.9615,4.8891,0.0,0.0,0.0,0.0,0.0,0.0,0.0,0.0,0.0,0.0,0.0,0.0,0.0,0.0,0.0,0.0,0.0,0.0,0.0,0.0,0.0,0.0,0.0,0.0,0.0,0.0,0.0,0.0,0.0,0.0,0.0,0.0,0.0,0.0,0.0,0.0,0.0,0.0,0.0,0.0,0.0,0.0,0.0,0.0,0.0,0.0,0.0,0.0,0.0,0.0,3.9022,4.2455,4.4817,4.6659,4.8413,5.101,5.1165,5.0971,5.3495,5.4116,5.4027,5.4027,5.2291,4.9853,4.7115,4.2821,3.8542,3.5459,3.2991,3.1076,3.0103,3.1794,3.4442,3.7838,4.0337,4.3509,4.8267,4.8925,4.9629,5.1449,5.1757,5.2097,5.2644,5.2755,5.3188,0.0,5.3789,5.3758,5.3863,5.2753,5.1914,5.1409,5.1274,5.09,5.0242,5.0137,4.9748,4.909,4.8536,4.831,4.8407,4.8706,4.9456,5.0703,5.1541,0.0,5.2153,5.1993,5.1394,5.0627,5.0474,5.0397,5.032,4.9376,4.8988,4.8584,0.0,0.0,0.0,0.0,0.0,0.0,0.0,0.0,0.0,0.0,2.2722,2.2238,0.0,0.0,0.0,0.0,0.0,0.0,0.0,0.0,0.0,0.0,0.0,0.0,0.0,0.0,0.0,0.0,0.0,0.0,0.0,0.0,0.0,0.0,0.0,0.0,0.0,0.0,0.0,0.0,0.0,0.0,0.0,0.0,0.0,0.0,0.0,0.0,0.0,0.0,3.9073,4.39,4.6831,4.8895,5.0543,5.2253,5.258,5.2698,5.4896,5.5084,5.464,5.4296,5.1693,4.8267,4.4586,4.0187,3.5953,3.2617,3.0642,2.931,2.8652,3.0702,3.332,3.5923,3.8018,4.116,4.6456,4.6876,4.7951,5.1266,5.2306,5.3002,5.3629,5.4057,5.4341,5.4725,5.4755,5.473,5.4693,5.345,5.2291,5.1244,5.1214,5.1065,5.075,5.075,5.0421,4.9763,4.9105,4.8626,4.8355,4.9233,4.9931,5.049,5.2026,5.24,5.1849,5.132,5.055,4.9536,4.9004,4.8774,4.8692,4.8225,4.7988,4.7858,0.0,0.0,0.0,0.0,0.0,0.0,0.0,2.2161,2.2564,2.505,2.422,2.3491,2.3733,2.2168,0.0,0.0,0.0,0.0,0.0,0.0,0.0,0.0,0.0,0.0,0.0,0.0,0.0,2.2388,0.0,0.0,0.0,0.0,0.0,0.0,0.0,0.0,0.0,0.0,0.0,0.0,0.0,0.0,0.0,0.0,0.0,0.0,0.0,0.0,0.0,0.0,3.7253,4.1896,4.5187,4.8678,5.1609,5.2081,5.2788,5.3851,5.5376,5.5478,5.497,5.4012,5.0795,4.6696,4.2192,3.8022,3.4029,3.0368,2.9184,2.8591,2.791,2.9597,3.1847,3.4145,3.5355,3.8153,4.4248,4.4773,4.6249,5.0885,5.2442,5.3555,5.4351,5.4835,5.5194,5.5194,5.5194,5.5115,5.481,5.3751,5.2623,5.1259,5.1214,5.1214,5.1214,5.1214,5.096,5.0436,4.9793,4.9299,4.8872,5.005,5.0527,5.0482,5.2357,5.2451,5.1174,5.0349,4.941,4.8361,4.7609,4.7309,4.7309,4.7309,4.7309,4.7309,0.0,0.0,0.0,0.0,0.0,0.0,0.0,2.3034,2.4181,2.6906,2.5419,2.4246,2.455,2.3079,0.0,0.0,0.0,0.0,0.0,0.0,0.0,0.0,0.0,0.0,0.0,0.0,0.0,2.2643,2.2643,0.0,0.0,0.0,0.0,0.0,0.0,2.231,0.0,0.0,0.0,0.0,0.0,0.0,0.0,0.0,0.0,0.0,0.0,0.0,0.0,0.0,3.3393,3.5003,3.7802,4.4045,5.0308,5.0247,5.1162,5.2693,5.3982,5.4775,5.4745,5.286,4.9419,4.5454,4.1414,3.691,3.2859,3.0177,2.9469,2.914,2.8589,2.9169,3.0731,0.0,0.0,3.6933,4.3479,4.4898,4.6917,5.1542,5.2711,5.3698,5.497,5.5149,5.5194,5.5194,5.5194,5.4645,5.341,5.3292,5.254,5.1244,5.1214,5.1214,5.1214,5.1214,5.1184,5.1124,5.0466,5.029,5.0592,5.1049,5.0993,5.0431,5.1572,5.0893,0.0,4.8984,4.8364,4.7467,4.7309,4.7309,4.7309,4.7309,4.7309,4.7309,0.0,0.0,0.0,0.0,0.0,0.0,0.0,2.2981,2.3944,2.7407,2.6154,2.5004,2.5218,2.3795,2.2014,0.0,0.0,0.0,0.0,0.0,0.0,0.0,0.0,0.0,0.0,0.0,0.0,2.2996,2.2797,0.0,0.0,0.0,0.0,0.0,0.0,2.231,2.2282,0.0,0.0,0.0,0.0,0.0,0.0,0.0,0.0,0.0,0.0,0.0,2.7674,2.8135,3.0101,3.2274,3.1999,3.6337,0.0,4.552,4.8076,5.0481,5.3414,5.4685,5.4715,5.2695,4.8925,4.4571,4.0187,3.5501,3.1513,2.9312,2.8778,2.857,2.7997,2.8781,0.0,0.0,0.0,0.0,3.8865,3.9824,4.2316,4.8552,5.0214,5.2002,5.495,5.5194,5.5194,5.5194,5.5194,5.477,5.3848,5.3788,5.3209,5.1843,5.1813,5.1618,5.1214,5.1214,5.1214,5.1214,5.0152,4.9764,4.9877,4.9885,4.9677,4.9501,5.0552,5.018,0.0,4.8799,4.8236,4.7309,4.7309,4.7309,4.7309,4.7309,4.7309,4.7309,0.0,0.0,0.0,0.0,0.0,0.0,2.3114,2.3139,2.4057,2.7326,2.6392,2.5443,2.5541,2.3705,2.1831,2.0156,0.0,0.0,0.0,0.0,0.0,0.0,0.0,0.0,0.0,0.0,0.0,0.0,0.0,2.272,0.0,0.0,2.2426,2.2426,0.0,0.0,0.0,0.0,0.0,0.0,0.0,0.0,0.0,0.0,0.0,0.0,0.0,0.0,0.0,0.0,0.0,0.0,0.0,0.0,0.0,0.0,4.4436,4.7848,5.1244,5.3069,5.3533,5.1543,4.7848,4.3578,3.9371,3.4819,3.0996,2.9074,2.8564,2.827,2.7541,2.8358,0.0,0.0,0.0,3.1425,3.5876,3.6801,3.9279,4.5421,4.7342,4.9595,5.3325,5.4649,5.5194,5.5194,5.5194,5.4955,5.4515,5.4306,5.3616,5.2232,5.2007,5.1693,5.1214,5.1214,5.1124,5.093,5.0197,4.9704,4.9428,4.9412,4.919,4.8843,4.9583,4.9298,0.0,4.8353,4.7963,4.7309,4.7309,4.7309,4.7309,4.7309,4.7309,4.7309,0.0,0.0,0.0,0.0,0.0,0.0,0.0,2.3731,2.5148,2.6711,2.6021,2.5403,2.5403,2.2654,2.0738,2.0517,0.0,0.0,0.0,0.0,0.0,0.0,0.0,0.0,0.0,0.0,0.0,0.0,0.0,0.0,0.0,2.2848,2.2695,2.2695,0.0,0.0,0.0,0.0,0.0,0.0,0.0,0.0,0.0,0.0,0.0,0.0,0.0,0.0,0.0,0.0,0.0,0.0,0.0,0.0,0.0,0.0,4.0277,4.4796,4.683,4.9284,5.078,4.882,4.5813,4.2406,3.9042,3.5154,3.1639,2.9672,2.9124,2.8677,2.7608,2.7884,2.8606,2.9481,0.0,0.0,3.5952,3.7592,3.9594,4.2924,4.456,4.6634,4.9896,5.3257,5.5194,5.5194,5.5194,0.0,5.5179,5.4566,5.3593,5.2247,5.1573,5.1229,5.1214,5.1214,5.0885,5.0257,5.0885,5.0653,4.9826,5.0491,5.0051,4.881,4.8844,4.8283,0.0,4.7294,4.7294,4.7309,4.7309,4.7309,4.7309,4.7309,4.7309,4.7309,0.0,0.0,0.0,0.0,0.0,0.0,0.0,2.1865,2.2641,2.4044,2.3474,2.3144,2.3694,2.1874,2.0612,2.0689,0.0,0.0,0.0,0.0,0.0,0.0,0.0,0.0,0.0,0.0,0.0,0.0,0.0,0.0,0.0,0.0,0.0,2.2409,2.2625,0.0,0.0,0.0,0.0,0.0,0.0,0.0,0.0,0.0,0.0,0.0,0.0,0.0,0.0,0.0,0.0,0.0,0.0,0.0,0.0,0.0,0.0,3.9324,4.0769,4.2795,4.3906,4.1443,3.942,3.7196,3.4177,3.1754,2.9621,2.7971,2.8065,2.8164,2.7424,2.7922,2.8812,3.0014,3.0386,0.0,3.4053,3.6335,3.9093,4.2905,4.8085,5.1932,5.3476,5.4634,5.5194,5.5194,5.4775,5.4521,5.4521,5.3443,5.2845,5.2875,5.2232,5.1678,5.1214,5.1214,5.0881,5.0232,5.0042,4.955,4.8774,4.8565,4.8162,4.7783,4.7815,4.756,4.7309,4.7309,4.7309,4.7309,4.7309,4.7309,4.7309,4.7309,4.7309,4.7309,0.0,0.0,0.0,0.0,0.0,0.0,0.0,2.0797,2.125,2.1966,2.162,2.162,2.2464,2.1117,2.0326,2.0759,0.0,0.0,0.0,0.0,0.0,0.0,0.0,0.0,0.0,0.0,0.0,0.0,0.0,0.0,0.0,0.0,0.0,0.0,0.0,0.0,0.0,0.0,0.0,0.0,0.0,0.0,2.3093,0.0,0.0,0.0,0.0,0.0,0.0,0.0,0.0,0.0,0.0,0.0,0.0,0.0,2.8838,3.2821,3.5451,3.767,3.87,3.6794,3.5473,3.4037,3.1793,3.0089,2.8672,2.7499,2.7281,2.7195,2.6877,2.7302,2.8062,2.92,3.0004,3.1214,3.3216,3.5952,3.9372,4.3597,4.9188,5.2979,5.368,5.4649,5.5074,5.489,5.4386,5.4057,5.3832,5.283,5.2345,5.286,5.2187,5.1464,5.0817,5.0803,5.0362,4.9469,4.9337,4.8817,4.7965,4.7777,4.7569,4.7309,4.7309,4.7309,0.0,4.7309,4.7309,4.7309,4.7309,4.7309,4.7309,4.7309,4.7309,4.7309,0.0,0.0,0.0,0.0,0.0,0.0,0.0,0.0,0.0,0.0,2.0443,2.0737,2.1545,2.0396,1.9899,0.0,0.0,0.0,0.0,0.0,0.0,0.0,0.0,0.0,0.0,0.0,0.0,0.0,2.3144,2.3794,2.481,0.0,0.0,0.0,0.0,0.0,0.0,0.0,0.0,0.0,0.0,0.0,0.0,0.0,0.0,0.0,0.0,0.0,0.0,0.0,0.0,0.0,0.0,0.0,0.0,0.0,0.0,0.0,0.0,3.3319,3.4666,3.3948,3.328,3.2475,3.1121,2.9753,0.0,2.7843,2.6826,2.6114,2.6376,2.6461,2.6822,2.7765,2.9421,3.1283,3.3354,3.6675,4.0558,4.5142,4.8498,5.0702,5.128,5.368,5.4895,5.4261,5.4141,5.3841,5.3159,5.2479,5.207,5.204,5.1449,5.0803,5.0228,5.0169,4.9518,4.836,4.8936,4.8551,4.7354,4.7933,4.7892,0.0,4.7309,4.7309,0.0,4.7309,4.7309,4.7309,4.7309,4.7309,4.7309,4.7309,4.7309,4.7309,0.0,0.0,0.0,0.0,0.0,0.0,0.0,0.0,0.0,0.0,0.0,1.9822,1.989,1.9574,0.0,0.0,0.0,0.0,0.0,0.0,0.0,0.0,0.0,0.0,0.0,0.0,0.0,2.2079,2.4557,2.5458,2.4897,2.5982,0.0,0.0,0.0,0.0,0.0,0.0,0.0,0.0,0.0,0.0,0.0,0.0,0.0,0.0,2.419,2.3816,0.0,0.0,0.0,0.0,0.0,0.0,0.0,0.0,2.3553,2.4381,2.5706,0.0,2.8239,2.7083,2.7315,2.7764,0.0,0.0,0.0,0.0,0.0,2.7045,2.8189,2.7734,2.8061,3.0867,3.1285,3.2129,3.4658,4.0038,4.5039,4.8618,5.1563,5.3163,5.2785,5.4197,5.4899,5.4205,5.3704,5.3092,5.2464,5.1852,5.116,5.0674,5.0496,5.0322,5.0212,4.9764,4.9074,4.8327,4.8416,4.8104,4.7324,4.7493,4.7463,4.7309,4.7309,4.7309,4.7309,4.7309,4.7309,4.7309,4.7309,4.7309,4.7309,4.7309,4.7309,4.7309,0.0,0.0,0.0,0.0,0.0,0.0,0.0,0.0,0.0,0.0,0.0,0.0,0.0,0.0,0.0,0.0,0.0,0.0,0.0,0.0,0.0,0.0,0.0,0.0,0.0,0.0,0.0,0.0,0.0,2.6032,0.0,0.0,0.0,0.0,0.0,0.0,0.0,0.0,0.0,0.0,2.3917,0.0,0.0,0.0,0.0,0.0,2.419,2.3876,0.0,2.3236,2.2865,2.2463,0.0,0.0,0.0,0.0,2.2807,2.3285,2.3783,2.513,2.6278,2.5863,2.6462,2.7087,2.7022,0.0,0.0,0.0,0.0,2.6759,2.7623,2.7583,2.8121,3.0324,3.1675,3.3863,3.8068,4.2222,4.6306,5.0203,5.2248,5.3488,5.4021,5.451,5.4441,5.3779,5.3136,5.2477,5.1801,5.1061,5.0583,5.0164,4.964,4.9313,4.9358,4.8999,4.8488,4.7835,4.7836,4.7612,4.7309,4.7309,4.7309,4.7309,4.7309,4.7309,4.7309,4.7309,4.7309,4.7309,4.7309,4.7309,4.7309,4.7309,4.7309,4.7309,0.0,0.0,0.0,0.0,0.0,0.0,0.0,0.0,0.0,0.0,0.0,0.0,0.0,0.0,0.0,0.0,0.0,0.0,0.0,0.0,0.0,0.0,0.0,0.0,0.0,0.0,0.0,0.0,0.0,0.0,0.0,0.0,0.0,0.0,0.0,0.0,0.0,0.0,0.0,0.0,2.419,0.0,0.0,0.0,0.0,0.0,0.0,0.0,0.0,2.33,2.3017,2.2754,2.2394,0.0,0.0,0.0,0.0,0.0,2.3866,2.5489,2.6944,2.7106,2.7853,2.8445,2.8213,0.0,0.0,0.0,0.0,0.0,2.6868,2.739,2.8107,2.9325,3.2231,3.6421,4.2199,4.4074,4.6512,5.0679,5.1862,5.2933,5.4605,5.4368,5.3736,5.3083,5.2487,5.1855,5.1128,5.0483,5.0092,4.9935,4.8878,4.8263,4.8119,4.8115,4.7899,4.7309,4.7309,4.7309,4.7309,4.7309,4.7309,4.7309,0.0,0.0,4.7309,4.7309,4.7249,4.716,4.716,4.7085,4.701,4.7115,4.716,4.7174,0.0,0.0,0.0,0.0,0.0,0.0,0.0,0.0,0.0,0.0,0.0,0.0,0.0,0.0,0.0,0.0,0.0,0.0,0.0,0.0,0.0,0.0,0.0,0.0,0.0,0.0,0.0,0.0,0.0,0.0,2.7917,2.9239,2.82,0.0,0.0,0.0,0.0,0.0,0.0,0.0,2.419,0.0,0.0,0.0,0.0,0.0,0.0,0.0,0.0,2.323,2.3241,2.3192,2.2496,0.0,0.0,0.0,0.0,0.0,2.5524,2.7837,2.8996,2.6755,2.801,2.9471,2.8174,0.0,0.0,0.0,0.0,0.0,0.0,2.967,2.9998,3.3089,3.638,4.017,4.498,4.6891,4.8517,5.0933,5.2321,5.298,5.2668,5.3098,5.3039,5.239,5.2242,5.1663,5.0442,5.0276,4.9733,4.8606,4.8392,4.8034,4.7431,4.7429,4.7369,4.7309,4.7309,4.7309,4.7309,4.7309,4.7309,4.7309,0.0,4.7309,4.7309,4.7309,4.698,4.6471,4.6471,4.6112,4.5678,4.6262,4.6471,4.6546,0.0,0.0,0.0,0.0,0.0,0.0,0.0,0.0,0.0,0.0,0.0,0.0,0.0,0.0,0.0,0.0,0.0,0.0,0.0,0.0,0.0,0.0,0.0,0.0,0.0,0.0,0.0,0.0,0.0,2.8802,2.9683,2.903,2.73,2.4692,0.0,0.0,0.0,0.0,0.0,0.0,0.0,0.0,0.0,0.0,0.0,0.0,0.0,0.0,0.0,0.0,2.3552,2.3542,2.2745,0.0,0.0,0.0,0.0,0.0,2.4444,2.6539,2.8076,2.7207,2.9753,3.2087,3.0565,3.0197,0.0,0.0,0.0,0.0,0.0,3.1702,3.3387,3.755,4.0104,4.2687,4.5871,4.6845,4.8089,5.038,5.1248,5.1872,5.2678,5.2387,5.2007,5.1658,5.1023,5.035,4.9734,4.9359,4.8865,4.8327,4.792,4.7575,4.7309,4.7309,4.7309,4.7309,4.7309,4.7309,4.7309,4.7309,4.7309,4.7309,0.0,4.707,4.6781,4.6756,4.6381,4.5768,4.5768,4.5574,4.5379,4.6067,4.6546,4.689,0.0,0.0,0.0,0.0,0.0,0.0,0.0,0.0,0.0,0.0,0.0,0.0,0.0,0.0,0.0,0.0,0.0,0.0,0.0,0.0,0.0,0.0,0.0,0.0,0.0,0.0,2.4515,2.6217,2.7557,2.9036,3.0589,2.8325,2.6229,0.0,0.0,0.0,0.0,0.0,0.0,0.0,0.0,0.0,0.0,0.0,0.0,0.0,0.0,0.0,0.0,0.0,0.0,0.0,0.0,0.0,0.0,2.2525,2.231,2.253,2.36,2.5402,2.7097,2.7734,0.0,3.3296,3.2656,3.1959,0.0,0.0,0.0,0.0,0.0,3.3849,3.6693,4.116,4.3088,4.4787,4.6888,4.7234,4.8031,5.0393,5.0408,5.0873,5.2537,5.1578,5.0765,5.0765,4.9838,4.9194,4.9045,4.8566,4.8223,4.809,4.7581,4.7309,4.7309,4.7309,4.7309,4.7309,4.7309,4.7309,4.7309,4.7309,4.7201,4.7056,4.7091,4.6661,4.6085,4.6037,4.5678,4.5065,4.5065,4.5065,4.5125,4.5663,4.6381,4.707,0.0,0.0,0.0,0.0,0.0,0.0,0.0,0.0,0.0,0.0,0.0,0.0,0.0,0.0,0.0,0.0,0.0,0.0,0.0,0.0,0.0,0.0,0.0,0.0,0.0,2.4294,2.5127,2.6206,2.8391,2.9212,2.8665,2.7425,2.5815,2.3932,0.0,0.0,0.0,0.0,0.0,0.0,0.0,0.0,0.0,0.0,0.0,0.0,0.0,0.0,0.0,0.0,0.0,0.0,0.0,0.0,2.3281,2.2507,2.231,2.2751,2.4878,2.6556,2.7803,2.8101,2.9314,0.0,3.2735,3.255,0.0,3.4564,0.0,0.0,0.0,3.6345,3.9253,4.2602,4.4792,4.6998,4.9567,4.9957,5.0438,5.1934,5.0918,5.0483,5.1287,5.017,4.9404,4.9404,4.9314,4.9,4.8386,4.8312,4.8012,4.7429,4.7339,4.7309,4.7309,4.7309,4.7309,4.7309,4.7309,4.7309,4.7309,4.7309,4.6984,4.6349,4.6349,4.5996,4.5387,4.5387,4.499,4.4392,4.4392,4.4392,4.4392,4.4451,4.5274,4.6396,0.0,0.0,0.0,0.0,0.0,0.0,0.0,0.0,0.0,0.0,0.0,0.0,0.0,0.0,0.0,0.0,0.0,0.0,0.0,0.0,0.0,0.0,0.0,2.2783,2.4412,2.4995,2.6105,2.7879,2.878,2.8574,2.7365,2.6207,0.0,0.0,0.0,0.0,0.0,0.0,0.0,0.0,0.0,0.0,0.0,0.0,0.0,0.0,0.0,0.0,0.0,0.0,2.3799,2.4011,0.0,0.0,2.3265,2.2513,2.231,2.2474,2.33,2.5296,2.718,2.7334,2.8764,0.0,0.0,3.3832,3.4707,3.6349,3.7169,0.0,0.0,3.9384,4.1547,4.3568,4.6316,4.8491,4.9494,4.9927,5.0259,5.041,4.9975,4.9749,4.996,4.9194,4.8656,4.8656,4.8282,4.7938,4.7683,4.7683,4.7563,4.7309,4.7309,4.7309,4.7309,4.7309,4.7102,4.6696,4.6706,4.6676,4.6647,4.6244,4.5883,4.5654,4.5672,4.5282,4.4691,4.4669,4.4265,4.3703,4.3703,4.3958,4.4317,4.4317,4.4885,4.5738,0.0,0.0,0.0,0.0,0.0,0.0,0.0,0.0,0.0,0.0,0.0,0.0,0.0,0.0,0.0,0.0,0.0,0.0,0.0,0.0,0.0,0.0,0.0,2.3562,2.5148,2.5318,2.6182,2.7818,2.7909,2.7318,2.6141,0.0,0.0,0.0,0.0,0.0,0.0,0.0,0.0,2.4787,2.4642,2.4766,0.0,0.0,0.0,0.0,0.0,0.0,0.0,0.0,2.3732,0.0,0.0,0.0,0.0,0.0,2.231,2.2344,2.257,2.4331,2.6197,0.0,0.0,0.0,3.3748,3.5127,3.633,3.8325,3.9144,3.9732,4.0486,0.0,0.0,4.4631,4.7204,4.903,4.9239,4.9689,4.9779,4.9314,4.9074,4.9014,4.894,4.8356,4.7982,4.7982,4.7563,4.7309,4.7309,4.7309,4.7309,4.7309,4.7309,4.7163,4.6957,4.6942,4.6626,4.5986,4.5785,4.5819,4.5992,4.5546,4.5167,4.4991,4.4937,4.4571,4.3945,4.3945,4.3713,4.3329,4.3329,4.3599,4.4003,4.4003,4.4436,4.5012,0.0,0.0,0.0,0.0,0.0,0.0,0.0,0.0,0.0,0.0,0.0,0.0,0.0,0.0,0.0,0.0,0.0,0.0,0.0,0.0,0.0,0.0,0.0,2.427,2.5947,2.5254,2.5076,2.55,2.5575,2.5374,2.4971,2.4498,0.0,0.0,0.0,0.0,0.0,0.0,0.0,2.4794,2.4802,2.4892,2.4995,0.0,0.0,0.0,0.0,0.0,0.0,0.0,2.3193,0.0,0.0,0.0,0.0,0.0,2.231,2.2474,2.3187,2.4044,2.5086,0.0,0.0,0.0,3.5409,3.6379,3.7197,4.0709,4.0352,4.0247,4.2851,4.2282,0.0,4.5768,4.7414,4.8506,4.9164,4.9254,4.9254,4.9254,4.8671,4.8282,4.8282,4.7683,4.7309,4.7309,4.7294,4.7294,4.7309,4.7294,4.7294,4.7294,4.7294,4.6942,4.6295,4.628,4.5962,4.5274,4.4604,4.4618,4.5315,4.5315,4.4929,4.4312,4.4312,4.3927,4.3329,4.3329,4.3329,4.3329,4.3329,4.3329,4.3329,4.3329,4.3728,4.4288,0.0,0.0,0.0,0.0,0.0,0.0,0.0,0.0,0.0,0.0,0.0,0.0,0.0,0.0,0.0,0.0,0.0,0.0,0.0,0.0,0.0,0.0,0.0,0.0,0.0,0.0,2.4215,2.523,2.497,2.4637,0.0,0.0,0.0,2.3714,0.0,0.0,0.0,0.0,2.4431,2.4794,2.4802,2.4968,2.5187,0.0,0.0,0.0,0.0,0.0,0.0,0.0,0.0,0.0,0.0,0.0,0.0,2.2587,2.3039,2.3779,2.3488,2.4791,0.0,2.7471,0.0,0.0,0.0,3.64,0.0,0.0,4.1758,4.1863,4.3105,4.3763,0.0,4.4825,4.6815,4.8192,4.7923,4.8282,4.8401,4.7938,4.7713,4.7593,4.7593,4.7414,4.7309,4.7309,4.6875,4.6815,4.7279,4.6886,4.6636,4.6632,4.6632,4.628,4.5636,4.5627,4.5293,4.4574,4.4398,4.4443,4.4533,4.4088,4.3773,4.3588,4.3588,4.3513,4.3329,4.3329,4.3329,4.3329,4.3329,4.3329,4.3329,4.3329,4.3399,4.3623,0.0,0.0,0.0,0.0,0.0,0.0,0.0,0.0,0.0,0.0,0.0,0.0,0.0,0.0,0.0,0.0,0.0,0.0,0.0,0.0,0.0,0.0,0.0,0.0,0.0,2.3726,2.3642,0.0,0.0,0.0,0.0,0.0,0.0,2.4408,0.0,2.4979,0.0,0.0,2.4672,2.4683,2.4766,2.4943,2.5138,0.0,0.0,0.0,0.0,0.0,0.0,0.0,0.0,0.0,0.0,0.0,0.0,2.2909,2.3153,2.3773,2.4503,2.5788,0.0,2.9894,3.2692,3.5534,3.8033,0.0,0.0,0.0,4.3688,4.3494,4.4691,4.4915,4.5035,4.5439,4.6845,4.7758,4.7369,4.7653,4.7743,4.7354,4.707,4.692,4.692,4.6666,4.6501,4.6501,4.6142,4.6127,4.6506,4.6102,4.5943,4.587,4.5885,4.5587,4.4926,4.4926,4.4558,4.3927,4.3913,4.3937,4.3922,4.3459,4.3329,4.3329,4.3329,4.3329,4.3329,4.3329,4.3329,4.3329,4.3329,4.3329,4.3329,4.3329,4.3329,4.3374,0.0,0.0,0.0,0.0,0.0,0.0,0.0,0.0,0.0,0.0,0.0,0.0,0.0,0.0,0.0,0.0,0.0,0.0,0.0,0.0,0.0,0.0,0.0,0.0,0.0,0.0,0.0,0.0,0.0,0.0,0.0,0.0,2.4751,2.5399,0.0,2.6096,0.0,2.5315,2.4984,2.4524,2.4708,2.4868,2.4974,2.4837,0.0,0.0,0.0,0.0,0.0,0.0,0.0,0.0,2.2659,2.2598,2.2604,2.3136,2.2983,2.3211,2.5966,2.6903,2.8223,3.3063,3.5217,0.0,4.0053,4.3105,4.5618,4.68,0.0,4.514,4.6965,4.5813,4.5185,4.701,4.7309,4.7309,4.7309,4.7309,4.7279,4.7219,4.6696,4.6307,4.6232,4.5663,4.5289,4.5289,4.5244,4.5236,4.5307,4.5233,4.5169,4.5253,4.5167,4.4857,4.4203,4.4157,4.3803,4.3205,4.3175,4.316,4.316,4.322,4.3329,4.3329,4.324,4.324,4.3205,4.3235,4.3235,4.3205,4.3235,4.3329,4.3329,4.3329,4.3329,4.3329,0.0,0.0,0.0,0.0,0.0,0.0,0.0,0.0,0.0,0.0,0.0,0.0,0.0,0.0,0.0,0.0,0.0,0.0,0.0,0.0,0.0,0.0,0.0,0.0,0.0,0.0,0.0,0.0,0.0,0.0,0.0,0.0,0.0,2.5031,0.0,2.5557,2.5351,2.4721,2.4467,2.4504,2.4559,2.4686,2.4831,2.4639,2.4145,0.0,0.0,0.0,0.0,0.0,0.0,0.0,2.2398,2.3123,2.3835,2.283,2.3641,2.5163,2.6356,2.7611,0.0,3.3951,3.8024,4.1339,4.3075,4.4407,4.5229,4.5005,4.5873,4.68,4.7219,4.695,4.68,4.7234,4.7309,4.7309,4.7309,4.7309,4.7115,4.6591,4.6411,4.6112,4.5574,4.5379,4.5289,4.5289,4.4803,4.4758,4.5251,4.4839,4.4479,4.4554,4.4473,4.4173,4.3543,4.3021,4.2763,4.2609,4.206,4.1833,4.1848,4.2823,4.3329,4.3284,4.2799,4.2584,4.2624,4.313,4.3006,4.2624,4.3145,4.3329,4.3329,4.3329,4.3329,4.3329,0.0,0.0,0.0,0.0,0.0,0.0,0.0,0.0,0.0,0.0,0.0,0.0,0.0,0.0,0.0,0.0,0.0,0.0,0.0,0.0,0.0,0.0,0.0,0.0,0.0,0.0,0.0,0.0,0.0,0.0,0.0,0.0,0.0,2.6308,0.0,2.6699,2.5921,2.512,2.462,2.4356,2.4467,2.4555,2.4634,2.4525,2.4185,2.3695,2.3338,0.0,0.0,0.0,0.0,0.0,0.0,0.0,2.338,2.2943,2.3646,2.4946,2.6781,0.0,0.0,3.5958,0.0,4.2701,4.4018,4.4586,4.4811,4.4781,4.5873,4.6935,4.7249,4.7309,4.7204,4.689,4.683,4.683,4.683,4.6546,4.6337,4.6322,4.5714,4.5191,4.487,4.4541,4.4347,4.4347,4.4012,4.3967,4.4332,4.3732,4.3419,4.3374,4.3051,4.2763,4.2411,4.2075,4.1956,4.1896,4.1534,4.1368,4.1383,4.213,4.2414,4.2372,4.2074,4.1933,4.1922,4.2258,4.2411,4.2426,4.2778,4.3021,4.3329,4.3329,4.3329,4.3329,0.0,0.0,0.0,0.0,0.0,0.0,0.0,0.0,0.0,0.0,0.0,0.0,0.0,0.0,0.0,0.0,0.0,0.0,0.0,0.0,0.0,0.0,0.0,0.0,0.0,0.0,0.0,0.0,0.0,0.0,0.0,0.0,0.0,2.7743,0.0,0.0,2.6558,2.5733,2.4938,2.4208,2.4374,2.4448,2.445,2.4465,2.4236,2.3892,2.3374,2.2977,2.2756,2.3083,0.0,0.0,0.0,0.0,2.2592,2.3073,2.3391,2.4171,2.6814,2.9136,3.2129,3.7805,4.0636,0.0,4.3673,4.3973,4.4197,4.4975,4.5663,4.6322,4.686,4.695,4.677,4.6232,4.6142,4.6142,4.6142,4.5648,4.5469,4.5918,4.4982,4.428,4.4167,4.3658,4.3329,4.3329,4.3329,4.3269,4.315,4.2711,4.2348,4.2261,4.1729,4.1396,4.1396,4.1258,4.1232,4.1233,4.1085,4.1055,4.107,4.1085,4.1141,4.1367,4.1277,4.1258,4.1229,4.1366,4.1706,4.2243,4.2382,4.2793,4.3329,4.3329,4.3329,4.3329,0.0,0.0,0.0,0.0,0.0,0.0,0.0,0.0,0.0,0.0,0.0,0.0,0.0,0.0,0.0,0.0,0.0,0.0,2.501,0.0,0.0,2.4284,2.4228,0.0,0.0,0.0,0.0,0.0,0.0,0.0,0.0,0.0,0.0,2.7357,0.0,0.0,0.0,2.5727,2.4945,2.419,2.4226,2.4226,2.4246,2.4247,2.4026,2.3693,2.3332,2.2988,2.266,2.25,2.2829,0.0,0.0,0.0,2.3139,2.2609,2.3354,2.4625,2.5853,0.0,3.4645,0.0,3.9604,4.101,0.0,4.2626,4.297,4.4197,4.4975,4.5454,4.5544,4.5559,4.5529,4.5454,4.5424,4.5424,4.5424,4.5349,4.5125,4.4646,4.4436,4.4107,4.3524,4.3389,4.3329,4.3329,4.3329,4.306,4.2524,4.2439,4.2167,4.1587,4.1438,4.1407,4.1407,4.084,4.0525,4.0519,3.9956,3.9646,3.9661,3.9679,4.0293,4.1342,4.0771,4.0555,4.0558,4.1182,4.1475,4.1557,4.2199,4.2793,4.3329,4.3329,4.3329,4.3329,0.0,0.0,0.0,0.0,0.0,0.0,0.0,0.0,0.0,0.0,0.0,0.0,0.0,0.0,0.0,2.5303,2.513,2.501,2.501,2.4795,2.4623,2.4545,2.4321,2.419,0.0,0.0,0.0,0.0,0.0,0.0,0.0,2.8755,2.9125,0.0,0.0,0.0,0.0,0.0,2.5206,2.4836,2.4374,2.419,2.419,0.0,0.0,0.0,0.0,0.0,2.4278,2.4179,2.41,2.4019,2.4117,0.0,0.0,0.0,2.4272,2.5581,2.7678,3.0499,3.3559,0.0,3.8302,3.9619,4.095,4.1833,4.2521,4.3105,4.3733,4.4421,4.5155,4.5289,4.517,4.4811,4.4751,4.4751,4.4751,4.4421,4.4227,4.4302,4.3629,4.3139,4.2806,4.2449,4.2224,4.2237,4.2264,4.2145,4.1865,4.1505,4.1142,4.0872,4.045,4.0296,4.0296,3.9986,3.9824,3.9824,3.9571,3.9424,3.9424,3.9424,3.9727,4.0247,3.9963,3.9824,3.9899,4.0531,4.0873,4.0949,4.2015,4.254,4.2854,4.3195,4.3329,4.3329,0.0,0.0,0.0,0.0,0.0,0.0,0.0,0.0,0.0,0.0,0.0,0.0,0.0,0.0,0.0,0.0,2.5163,2.5046,2.4991,2.4864,2.4775,2.4731,2.4393,2.419,2.419,0.0,0.0,0.0,0.0,0.0,2.9635,3.0138,3.1114,0.0,3.141,0.0,0.0,0.0,0.0,0.0,2.4836,2.4374,2.419,0.0,0.0,0.0,0.0,0.0,0.0,0.0,2.4914,2.4845,2.5215,2.5065,0.0,0.0,0.0,2.5961,2.8638,0.0,3.1396,3.428,3.6193,3.7749,3.9095,4.0546,4.1669,4.1833,4.2387,4.3135,4.4107,4.4571,4.4631,4.4152,4.4062,4.4003,4.3838,4.3389,4.321,4.3524,4.2734,4.2134,4.2117,4.1701,4.14,4.1369,4.1367,4.1322,4.1145,4.0543,4.0049,3.992,3.9218,3.8916,3.8916,3.8889,3.8877,3.8909,3.9071,3.913,3.913,3.9307,3.9424,3.9424,3.9424,3.9424,3.9442,3.9944,4.0364,4.0709,4.1751,4.2365,4.2674,4.3135,4.3329,4.3329,0.0,0.0,0.0,0.0,0.0,0.0,0.0,0.0,0.0,0.0,0.0,0.0,0.0,2.5303,2.5303,2.5303,2.5284,2.5203,2.5022,2.4864,2.4716,2.4528,2.4321,0.0,2.419,0.0,0.0,0.0,0.0,0.0,3.1281,3.1177,3.2031,3.3587,3.2326,3.0515,2.8429,0.0,0.0,0.0,0.0,0.0,0.0,0.0,0.0,0.0,0.0,0.0,0.0,0.0,0.0,0.0,0.0,2.5,2.5423,0.0,0.0,0.0,0.0,2.7948,2.8928,3.0463,3.2766,3.5026,3.6387,3.8182,3.9753,4.0367,4.1025,4.1504,4.1564,4.2596,4.3419,4.3389,4.3389,4.3165,4.2551,4.2432,4.2192,4.1609,4.1474,4.1429,4.1429,4.1399,4.1369,4.1384,4.1384,4.1115,4.0487,3.9813,3.9155,3.8512,3.7853,3.7509,3.7509,3.7496,3.7482,3.7535,3.8119,3.844,3.844,3.9101,3.9424,3.9424,3.9424,3.9424,3.9424,3.9427,4.0204,4.1364,4.1392,4.2216,4.3284,4.3329,4.3329,4.3329,0.0,0.0,0.0,0.0,0.0,0.0,0.0,0.0,0.0,0.0,0.0,0.0,0.0,2.5303,2.5303,2.5303,2.5303,2.5264,2.5203,2.4949,2.4775,2.47,2.4375,2.4428,2.4962,0.0,0.0,0.0,0.0,2.7981,3.0631,3.0528,3.0588,3.0758,3.0974,3.0292,2.9059,2.8322,0.0,0.0,0.0,0.0,0.0,0.0,0.0,0.0,0.0,0.0,0.0,0.0,0.0,0.0,0.0,0.0,0.0,0.0,0.0,2.5799,0.0,0.0,2.7456,2.8929,3.0956,3.2826,3.3739,3.6103,3.8197,3.8437,3.9694,4.0756,4.0756,4.1474,4.2087,4.2087,4.2087,4.1998,4.1773,4.1728,4.1654,4.1414,4.101,4.0756,4.0756,4.0367,4.0127,4.0127,3.9709,3.9364,3.9125,3.8482,3.8018,3.7764,3.7539,3.7428,3.7391,3.7383,3.7368,3.7413,3.7617,3.7778,3.7753,3.8045,3.8104,3.8119,3.8572,3.8969,3.9439,3.9839,4.0036,4.0278,4.1547,4.2025,4.2177,4.303,4.3329,4.3329,0.0,0.0,0.0,0.0,0.0,0.0,0.0,0.0,0.0,0.0,0.0,0.0,0.0,0.0,2.5303,2.5303,2.5303,2.5303,2.5303,2.4993,2.4809,2.4804,2.4409,2.4447,2.4999,0.0,0.0,0.0,0.0,0.0,0.0,2.9878,2.962,2.9462,2.961,2.9476,0.0,0.0,0.0,2.751,0.0,0.0,2.5659,0.0,0.0,0.0,0.0,0.0,0.0,0.0,0.0,0.0,0.0,0.0,0.0,0.0,0.0,0.0,2.6708,0.0,0.0,2.7613,2.9064,3.0432,3.133,3.3724,3.5893,3.6327,3.7838,3.9155,3.9364,3.9753,4.0337,4.1235,4.119,4.1055,4.1055,4.1055,4.0965,4.0756,4.0337,4.0068,4.0068,3.9679,3.9334,3.9095,3.8646,0.0,3.8078,3.7449,3.7,3.6776,3.6761,3.6783,3.6745,3.6745,3.6743,3.6778,3.6979,3.7089,3.7109,3.7297,3.7426,3.7441,3.7834,3.8441,3.9116,3.9793,3.9956,3.9899,4.1235,4.1564,4.1489,4.2357,4.2806,4.3015,0.0,0.0,0.0,0.0,0.0,0.0,0.0,0.0,0.0,0.0,0.0,0.0,0.0,0.0,0.0,2.5322,2.5322,2.5322,2.5303,2.4996,2.4815,2.4823,2.4465,2.4263,2.4319,0.0,0.0,0.0,0.0,0.0,0.0,0.0,2.939,3.0071,2.8492,2.8031,2.8542,0.0,2.9402,2.8372,0.0,2.7169,2.7212,0.0,0.0,0.0,2.7291,2.7094,0.0,2.5981,0.0,0.0,0.0,0.0,0.0,0.0,0.0,0.0,0.0,0.0,0.0,2.6321,2.6944,2.791,2.9175,3.0986,3.2766,3.4083,3.5429,3.6567,3.724,3.7345,3.8212,4.0831,4.0726,4.0307,4.0307,4.0307,4.0068,3.9439,3.9364,3.9364,3.9364,3.9364,3.908,3.8407,3.8347,3.8063,3.7419,3.6791,3.6163,3.5534,3.5504,3.5504,3.5504,3.5504,3.5504,3.5504,3.6155,3.6466,3.6481,3.7105,3.7323,3.7323,3.7369,3.779,3.8438,3.9086,3.9778,4.0387,4.0351,4.0786,4.1354,4.1369,4.1788,4.2357,0.0,0.0,0.0,0.0,0.0,0.0,0.0,0.0,0.0,0.0,0.0,0.0,0.0,0.0,0.0,2.5976,2.5938,2.5765,2.5322,2.4983,2.5072,2.5636,2.5282,2.5605,2.6777,0.0,0.0,0.0,0.0,0.0,0.0,0.0,0.0,0.0,2.7784,2.7517,2.7663,2.827,0.0,2.9143,2.7745,2.772,0.0,0.0,0.0,0.0,0.0,2.958,2.9837,0.0,2.8991,2.8975,0.0,0.0,0.0,0.0,0.0,0.0,2.612,0.0,0.0,0.0,0.0,0.0,2.6714,2.8248,3.0058,3.133,3.2677,3.4113,3.5729,3.6028,3.6582,3.8242,3.8362,3.8242,3.8242,3.8242,3.8167,3.7988,3.7958,3.7958,3.7958,3.7958,3.7883,0.0,3.727,3.6926,3.6746,3.6133,3.5684,3.5504,3.5504,3.5504,3.5504,3.5504,3.5504,3.5504,3.5689,3.5799,3.5799,3.5969,3.6014,3.606,3.6992,3.7481,3.7736,3.837,3.9086,3.9691,4.0197,4.0484,4.0726,4.1205,4.1788,4.2374,0.0,0.0,0.0,0.0,0.0,0.0,0.0,0.0,0.0,0.0,0.0,0.0,0.0,0.0,0.0,2.6688,2.6687,2.6554,2.6121,2.59,2.5967,2.6375,2.608,2.634,0.0,0.0,0.0,0.0,0.0,0.0,0.0,0.0,0.0,0.0,0.0,0.0,0.0,0.0,0.0,0.0,2.8397,0.0,0.0,2.9597,2.9945,0.0,0.0,0.0,3.1935,3.09,3.0357,0.0,0.0,0.0,0.0,0.0,0.0,0.0,0.0,0.0,0.0,0.0,0.0,0.0,2.5604,2.6512,2.7724,2.9011,3.0133,3.133,3.2766,3.3245,3.3754,3.4786,3.5415,3.6163,3.7255,3.7404,3.7404,3.7404,3.7404,3.7404,3.7404,3.7404,3.73,3.7045,3.6686,3.6372,3.6088,3.5714,3.5504,3.5504,3.5504,3.5504,3.5504,3.5504,3.5504,3.5504,3.5504,3.5504,3.5504,3.5504,3.5504,3.5549,3.6282,3.679,3.7089,3.7727,3.8557,3.9439,3.9824,4.0004,4.0038,4.0427,4.098,4.1534,0.0,0.0,0.0,0.0,0.0,0.0,0.0,0.0,0.0,0.0,0.0,0.0,0.0,0.0,0.0,0.0,2.767,2.7657,2.7228,2.7262,0.0,0.0,2.6841,2.6775,0.0,0.0,0.0,0.0,0.0,0.0,0.0,0.0,0.0,0.0,0.0,0.0,0.0,0.0,0.0,2.9635,2.9195,3.0419,0.0,0.0,3.273,3.3525,3.3525,3.3575,3.3448,3.2042,3.0963,0.0,0.0,0.0,0.0,0.0,2.7418,0.0,0.0,0.0,0.0,0.0,2.5629,0.0,2.5395,2.5541,2.5944,2.7111,2.7844,2.8517,2.9325,2.9983,3.0627,3.13,3.2527,3.4247,3.6731,3.715,3.7195,3.7195,3.7195,3.7195,3.7195,3.7195,3.6971,3.6417,3.6372,3.6118,3.5534,3.5504,3.5504,3.5504,3.5504,3.5504,3.5504,3.5504,3.5504,3.5504,3.5504,3.5504,3.5504,3.5504,3.5504,3.5504,3.5579,3.594,3.6526,3.7134,3.8159,3.9275,3.9379,3.9424,3.9424,3.9424,3.9813,4.0516,2.491,0.0,0.0,0.0,0.0,0.0,0.0,0.0,0.0,0.0,0.0,0.0,0.0,0.0,0.0,0.0,0.0,2.9137,2.7316,0.0,2.7906,2.7877,2.7669,2.7862,2.8517,0.0,0.0,0.0,0.0,0.0,0.0,0.0,0.0,0.0,0.0,0.0,0.0,0.0,0.0,3.0021,2.9269,0.0,3.3213,3.1914,3.2594,3.4286,3.4286,3.4675,3.5047,3.4126,3.2568,3.0942,0.0,0.0,0.0,2.8619,0.0,0.0,0.0,0.0,0.0,0.0,0.0,0.0,2.5199,2.5122,2.5674,2.5944,2.6093,2.6722,2.8472,2.9325,2.9968,3.0597,3.1824,3.326,3.4831,3.5534,3.5878,3.5878,3.5878,3.5878,3.5878,3.5878,3.5833,3.5699,3.5699,3.5639,3.5519,3.5504,3.5504,3.5504,3.5504,3.5504,3.5504,3.5504,3.5504,3.5504,3.5504,3.5504,3.5504,3.5504,3.5504,3.5534,3.6073,3.6415,3.6577,3.7128,3.7871,3.8626,3.9197,3.9424,3.9424,3.9424,3.9839,4.039,2.4904,0.0,0.0,0.0,0.0,0.0,0.0,0.0,0.0,0.0,0.0,0.0,0.0,0.0,0.0,0.0,0.0,0.0,0.0,0.0,2.9784,2.9467,2.954,2.9504,2.9297,2.9504,0.0,0.0,0.0,0.0,0.0,0.0,0.0,0.0,0.0,0.0,0.0,0.0,3.1074,3.1309,3.0481,0.0,3.3442,3.2598,3.344,3.5064,3.5064,3.5301,3.5504,3.4742,3.3516,0.0,3.145,3.0937,3.048,0.0,2.9803,2.9922,0.0,0.0,0.0,2.8445,0.0,0.0,0.0,2.6182,2.6053,2.6459,2.6047,2.5849,2.6905,2.738,2.7919,2.8891,2.9894,3.1135,3.2781,3.3589,3.4008,3.4008,3.4008,3.4008,3.4008,3.4322,3.4502,3.4502,3.4502,3.4651,3.4981,3.4996,3.5145,3.5489,3.5504,3.5504,3.5504,3.5504,3.5504,3.5504,3.5504,3.5504,3.5504,3.5504,3.5504,3.5519,3.5848,3.5989,3.6045,3.6685,3.7323,3.8001,3.8617,3.9077,3.9424,3.9424,3.9616,3.9986,2.4888,0.0,0.0,0.0,0.0,0.0,0.0,0.0,0.0,0.0,0.0,0.0,0.0,0.0,0.0,0.0,0.0,0.0,0.0,0.0,0.0,3.0704,3.1137,3.0867,2.9722,3.0194,0.0,0.0,0.0,0.0,0.0,0.0,0.0,0.0,0.0,0.0,0.0,0.0,0.0,3.2192,0.0,3.2327,3.3494,3.3436,3.4235,3.5419,3.5571,3.5622,3.552,3.4912,3.4109,3.3192,3.2009,3.1833,0.0,0.0,0.0,0.0,0.0,0.0,0.0,0.0,0.0,2.8352,0.0,0.0,0.0,2.7221,2.6344,2.5553,2.5588,2.5719,2.6093,2.7036,2.7979,2.9071,3.0387,3.115,3.1749,3.2258,3.2108,3.2048,3.2302,3.2677,3.2976,3.311,3.311,3.341,3.4068,3.4218,3.4607,3.5295,3.531,3.537,3.5504,3.5504,3.5504,3.5504,3.5504,3.5504,3.5504,3.5504,3.5504,3.5504,3.5504,3.5504,3.5549,3.6073,3.6708,3.7444,3.8174,3.8817,3.9424,3.9424,3.9424,3.9529,2.458,2.5794,0.0,0.0,0.0,0.0,0.0,0.0,0.0,0.0,0.0,0.0,0.0,0.0,0.0,0.0,0.0,0.0,3.345,0.0,0.0,0.0,3.0989,3.1009,3.0152,3.0882,3.1219,0.0,0.0,0.0,0.0,0.0,0.0,0.0,3.1144,0.0,0.0,0.0,3.1864,0.0,3.2005,3.2855,0.0,3.3436,3.3914,3.4709,3.5385,3.5622,3.5605,0.0,3.4556,3.3355,0.0,3.2307,3.141,3.1901,0.0,0.0,0.0,0.0,0.0,0.0,3.1874,0.0,0.0,0.0,2.7953,2.682,0.0,2.5603,2.56,0.0,0.0,2.5899,2.7395,2.8263,2.729,2.7709,2.9011,3.136,3.0627,3.0372,3.1524,3.115,3.1106,3.1704,3.1764,3.2048,3.2706,3.329,3.3903,3.4577,3.4592,3.4891,3.5489,3.5504,3.5504,3.5504,3.5504,3.5504,3.5504,3.5504,3.5504,3.5504,3.5504,3.5504,3.5504,3.5594,3.6289,3.7474,3.8121,3.8805,3.9424,3.9424,3.9424,3.9589,2.6133,2.6894,0.0,0.0,0.0,0.0,0.0,0.0,0.0,0.0,0.0,0.0,0.0,0.0,0.0,0.0,0.0,3.4541,0.0,0.0,0.0,0.0,0.0,0.0,0.0,3.2049,3.1861,0.0,3.1045,0.0,0.0,0.0,0.0,0.0,3.14,0.0,3.1476,0.0,3.2858,0.0,0.0,0.0,0.0,3.2878,3.3474,3.4472,3.437,3.4895,3.5487,0.0,3.3914,0.0,0.0,0.0,0.0,3.2188,0.0,0.0,0.0,0.0,0.0,0.0,0.0,0.0,2.9815,0.0,2.8758,0.0,0.0,0.0,0.0,0.0,0.0,0.0,2.6243,2.6363,2.6557,2.5824,2.6258,2.8921,2.8412,0.0,2.9146,2.8966,2.8921,2.922,2.9609,3.0268,3.1285,3.1988,3.3006,3.4427,3.4472,3.4801,3.5489,3.5504,3.5504,3.5504,3.5504,3.5504,3.5504,3.5504,3.5504,3.5504,3.5504,3.5504,3.5504,3.5504,3.6064,3.6918,3.7535,3.8445,3.9424,3.9424,3.9424,3.9559,2.7932,0.0,0.0,0.0,0.0,0.0,0.0,0.0,0.0,0.0,0.0,0.0,3.9349,3.8651,0.0,0.0,3.7923,3.7048,0.0,0.0,3.518,0.0,0.0,0.0,0.0,0.0,3.2857,0.0,0.0,0.0,0.0,0.0,0.0,0.0,0.0,3.1843,3.2114,0.0,3.3375,3.3243,3.3341,3.302,3.2479,3.2349,3.3068,3.4134,3.3592,3.41,3.4844,3.3761,3.3271,0.0,3.3102,0.0,3.2019,0.0,0.0,0.0,3.2991,0.0,0.0,0.0,0.0,0.0,0.0,0.0,0.0,0.0,0.0,0.0,0.0,0.0,0.0,0.0,0.0,2.5681,2.5781,2.5002,2.5138,2.71,2.7036,0.0,0.0,2.7141,2.7111,2.729,2.7769,2.8532,2.9639,3.0687,3.1988,3.3619,3.4023,3.4532,3.522,3.5415,3.5504,3.5504,3.5504,3.5504,3.5504,3.5504,3.5504,3.5504,3.5504,3.5504,3.5504,3.5504,3.5893,3.6552,3.7165,3.8123,3.9155,3.9349,3.9424,3.9544,2.9585,2.926,0.0,0.0,0.0,0.0,0.0,0.0,0.0,0.0,0.0,0.0,0.0,0.0,0.0,0.0,0.0,3.894,3.9713,0.0,3.5193,0.0,0.0,3.5119,0.0,0.0,0.0,0.0,0.0,0.0,0.0,0.0,0.0,0.0,0.0,3.2973,3.3696,3.2959,3.2984,3.351,3.2802,3.202,3.1348,0.0,3.2763,3.344,3.3406,0.0,0.0,3.3423,3.2933,0.0,0.0,0.0,0.0,0.0,0.0,0.0,0.0,0.0,0.0,3.3751,0.0,0.0,0.0,0.0,3.0975,0.0,0.0,0.0,0.0,0.0,0.0,0.0,0.0,0.0,0.0,2.5251,2.6442,2.6624,2.7171,2.7305,0.0,2.6048,2.5929,2.6572,2.6632,2.6961,2.7685,2.949,3.0866,3.1541,3.2856,3.3844,3.4502,3.5175,3.5504,3.5504,3.5504,3.5504,3.5504,3.5504,3.5504,3.5504,3.5504,3.5504,3.5504,3.5504,3.5893,3.6552,3.7165,3.7823,3.8497,3.917,3.9424,3.9604,3.104,0.0,0.0,0.0,0.0,0.0,0.0,3.7017,0.0,0.0,0.0,0.0,0.0,4.5974,4.5914,0.0,0.0,4.2534,4.2294,4.051,0.0,0.0,0.0,3.7496,0.0,0.0,0.0,0.0,0.0,0.0,0.0,0.0,0.0,0.0,0.0,3.3259,0.0,0.0,0.0,0.0,0.0,3.2491,3.2577,0.0,3.2019,3.2594,3.2121,3.2577,0.0,3.2831,3.2493,3.2313,3.2313,3.1782,3.1241,3.1495,3.207,0.0,0.0,0.0,3.4614,3.3667,0.0,0.0,0.0,0.0,0.0,0.0,0.0,0.0,0.0,0.0,0.0,0.0,0.0,0.0,0.0,2.4535,2.5244,2.5255,2.5495,2.554,2.5315,2.4687,2.4373,2.4597,2.5435,2.6228,2.6886,2.8801,3.0387,3.1437,3.2811,3.3814,3.4472,3.516,3.5504,3.5504,3.5504,3.5504,3.5504,3.5504,3.5504,3.5504,3.5504,3.5504,3.5504,3.5504,3.5639,3.5938,3.7,3.7539,3.7883,3.9005,3.9424,3.9619,3.1759,0.0,0.0,0.0,0.0,0.0,0.0,0.0,0.0,0.0,4.53,0.0,4.9731,0.0,4.9633,0.0,4.8181,4.636,4.4089,4.3243,0.0,4.0331,4.0099,0.0,0.0,0.0,0.0,0.0,0.0,3.4723,0.0,0.0,0.0,0.0,0.0,3.3779,3.3102,3.4,3.3777,0.0,0.0,3.2442,0.0,0.0,3.1816,3.2544,0.0,3.1799,3.2544,3.2053,3.1901,3.1901,3.1901,3.1562,3.119,3.119,3.1907,3.2778,3.3267,3.4143,0.0,3.3974,3.3792,0.0,3.0647,0.0,0.0,0.0,0.0,0.0,0.0,0.0,0.0,0.0,0.0,0.0,0.0,2.4933,2.4911,2.4941,2.4971,2.5017,2.5228,2.4702,2.4402,2.4591,2.5198,2.5899,2.6557,2.7973,2.9411,3.0806,3.2242,3.3416,3.4128,3.504,3.5504,3.5504,3.5504,3.5504,3.5504,3.5504,3.5504,3.5504,3.5504,3.5504,3.5504,3.5504,3.5639,3.5953,3.7,3.7554,3.7898,3.9005,3.9586,3.9886,3.1963,0.0,0.0,0.0,3.615,0.0,0.0,0.0,4.3901,0.0,4.7074,4.9188,5.0958,5.18,5.2245,5.2169,5.2084,5.0039,4.5297,4.5645,0.0,0.0,4.1199,4.057,3.6738,0.0,0.0,0.0,0.0,0.0,0.0,0.0,0.0,0.0,3.4741,0.0,3.3869,3.4265,3.4062,3.3402,3.2603,3.1877,3.1314,3.1224,3.2138,3.3271,3.1732,3.119,3.119,3.119,3.119,3.119,3.119,3.119,3.119,3.119,3.2218,3.3342,3.3414,3.4457,3.5408,3.474,0.0,0.0,0.0,0.0,3.1966,0.0,0.0,0.0,0.0,0.0,0.0,0.0,0.0,0.0,0.0,0.0,2.5549,2.5618,2.5616,2.5772,2.6286,2.5864,2.5758,2.6284,2.5834,2.5854,0.0,2.7001,2.7966,2.9495,3.1243,3.2587,3.3423,3.4831,3.5504,3.5504,3.5504,3.5504,3.5504,3.5504,3.5504,3.5504,3.5504,3.5504,3.5504,3.5504,3.5893,3.6552,3.7135,3.7793,3.8497,3.917,3.9824,4.0523,3.4186,3.6001,3.7544,0.0,3.8015,3.9074,0.0,0.0,0.0,0.0,5.0798,5.3007,5.5816,5.5788,5.5312,5.4747,5.3573,0.0,0.0,0.0,0.0,4.502,4.3826,4.2724,4.1677,4.0286,0.0,3.7741,0.0,0.0,3.5008,0.0,0.0,0.0,0.0,3.6066,3.4715,3.4765,3.3637,3.1785,3.1579,3.2043,3.2701,0.0,3.2459,3.3947,3.1918,3.119,3.119,3.119,3.119,3.119,3.119,3.119,3.119,3.119,3.1873,3.2696,3.3261,3.4054,3.4871,3.5256,3.4888,3.4109,0.0,0.0,0.0,0.0,0.0,0.0,0.0,0.0,0.0,0.0,0.0,0.0,0.0,0.0,2.6249,2.6257,2.5797,2.5505,2.562,2.5436,2.5205,2.4916,2.5256,2.559,2.5824,0.0,2.7299,2.8594,3.0565,3.1869,3.2538,3.448,3.5504,3.5504,3.5504,3.5504,3.5504,3.5504,3.5504,3.5504,3.5504,3.5504,3.5504,3.5504,3.5893,3.6507,3.6656,3.7401,3.8495,3.9173,4.0148,4.11,3.5475,3.7521,0.0,4.013,0.0,0.0,4.3718,4.4949,0.0,5.0376,5.2521,0.0,5.6209,5.6685,5.6545,5.5698,5.4207,0.0,5.0921,0.0,0.0,4.7187,4.5809,4.4432,4.3002,4.0946,0.0,3.8707,0.0,0.0,3.6111,0.0,0.0,0.0,0.0,3.6659,3.5181,3.4408,3.3351,3.2121,3.1794,3.2378,0.0,3.2485,3.2927,3.3829,3.2256,3.1658,3.1613,3.1309,3.119,3.119,3.119,3.119,3.119,3.119,3.1726,3.2466,3.3211,3.3923,3.4694,3.5419,3.5277,3.4543,3.2945,3.2835,3.2499,0.0,0.0,0.0,0.0,0.0,0.0,0.0,0.0,0.0,0.0,0.0,0.0,2.6958,2.674,2.6509,2.6165,2.5863,2.5505,2.5208,2.5575,2.5908,2.6051,0.0,2.7003,2.8282,3.0271,3.1618,3.2205,3.4416,3.5504,3.5504,3.5504,3.5504,3.5504,3.5504,3.5504,3.5504,3.5504,3.5504,3.5504,3.5504,3.6043,3.6941,3.7539,3.8247,3.8894,3.9262,3.9854,4.0504,3.674,0.0,0.0,0.0,0.0,0.0,0.0,4.7407,0.0,5.1003,0.0,5.4884,5.4884,5.6077,5.6593,5.5758,0.0,5.2801,5.1093,5.0949,4.9857,4.7524,4.7221,4.5773,4.2818,4.0983,3.9698,0.0,0.0,0.0,0.0,0.0,0.0,0.0,0.0,0.0,0.0,3.3772,3.3199,3.322,3.2659,3.2842,3.3403,3.3425,3.3447,3.3447,3.2722,3.2401,3.2171,3.1444,3.119,3.119,3.119,3.119,3.119,3.119,3.1783,3.2564,3.3205,3.4001,3.483,3.5436,3.5526,3.5006,3.3256,3.2814,3.2384,3.1153,3.038,3.0456,0.0,0.0,0.0,0.0,0.0,0.0,0.0,0.0,0.0,0.0,2.8149,0.0,2.7448,2.674,2.6238,2.6102,2.6119,2.6229,2.6471,0.0,2.6748,2.8268,3.0136,3.1444,3.2198,3.4366,3.5504,3.5504,3.5504,3.5504,3.5504,3.5504,3.5504,3.5504,3.5504,3.5504,3.5504,3.5504,3.6207,3.7434,3.8871,3.9364,3.929,3.9394,3.9424,3.9469,3.9963,0.0,0.0,0.0,0.0,4.7732,4.9664,5.1756,5.3261,5.3708,5.5886,5.7354,5.7354,5.7102,5.6564,5.5778,5.4857,0.0,0.0,0.0,0.0,4.9311,4.7988,4.6635,4.5294,4.239,4.0813,0.0,0.0,0.0,0.0,0.0,0.0,0.0,0.0,0.0,3.4959,3.4216,0.0,3.2547,3.3006,3.3268,3.3414,3.3405,3.3761,3.4219,3.349,3.2832,3.2171,3.1444,3.119,3.119,3.119,3.119,3.119,3.119,3.2161,3.3262,3.3355,3.4395,3.5436,3.5588,3.5166,3.4667,3.4322,3.3838,3.3372,3.3111,3.2499,3.2337,3.3181,0.0,0.0,0.0,0.0,0.0,0.0,0.0,0.0,0.0,2.9371,2.8959,2.8827,2.7679,2.6499,2.5445,2.5011,2.5063,2.5766,0.0,2.5891,0.0,2.9737,0.0,0.0,0.0,3.5504,3.5504,3.5504,3.5504,3.5504,3.5504,3.5504,3.5504,3.5504,3.5504,3.5504,3.5504,3.5953,3.6836,3.8691,3.9065,3.8631,3.9215,3.9424,3.9424,4.2732,0.0,0.0,0.0,0.0,0.0,0.0,5.4736,5.5812,5.4564,5.5409,5.6124,5.6124,5.6227,5.6135,5.5697,5.4251,5.3037,5.2278,5.1535,5.0677,4.9768,4.8569,4.7311,4.5938,4.2745,4.1295,4.1735,0.0,0.0,0.0,0.0,0.0,0.0,0.0,3.6844,0.0,0.0,0.0,3.3483,3.3839,3.4206,3.4556,3.4556,3.4759,3.4989,3.4252,3.3761,3.3254,3.2138,3.1512,3.1258,3.1647,3.1495,3.1275,3.1647,3.1985,3.2425,3.3203,3.3931,3.4658,3.5436,3.5116,3.4526,3.4166,3.3825,3.3479,3.314,3.3061,3.3267,3.3873,3.3384,0.0,0.0,0.0,0.0,0.0,0.0,3.0293,0.0,0.0,0.0,2.912,2.7954,2.6682,2.5415,2.5711,2.583,0.0,0.0,2.6799,0.0,0.0,0.0,3.2193,0.0,0.0,3.5504,3.5504,3.5504,3.5504,3.5504,3.5504,3.5504,3.5504,3.5504,3.5549,3.6222,3.6881,3.7599,3.8916,3.9215,3.896,3.929,3.9424,3.9424,0.0,4.5584,0.0,0.0,5.0864,0.0,5.4446,5.6562,5.7317,5.5409,5.517,5.5108,5.4956,5.5397,5.5631,5.5482,5.3673,5.2382,5.2096,5.1525,5.0597,4.9321,4.8788,4.763,4.5755,4.3025,4.1757,0.0,0.0,0.0,0.0,0.0,0.0,0.0,0.0,0.0,0.0,0.0,3.4534,3.4489,3.4651,3.5091,3.5622,3.5622,3.5622,3.5537,3.4939,3.4634,3.432,3.3152,3.2273,3.1765,3.2341,3.2121,3.1749,3.2171,3.1985,3.1918,3.3085,3.3508,3.3964,3.5284,3.498,3.4306,3.3922,3.3697,3.3505,3.3079,3.3534,3.4082,3.4644,3.4115,0.0,0.0,0.0,0.0,0.0,0.0,3.0626,0.0,0.0,0.0,2.9146,2.8377,2.7421,2.6134,2.6643,0.0,2.5873,0.0,0.0,0.0,0.0,3.1753,3.2263,0.0,3.5504,3.5504,3.5504,3.5504,3.5504,3.5504,3.5504,3.5504,3.5504,3.5579,3.5804,3.6941,3.7808,3.8467,3.9155,3.9424,3.9424,3.9424,3.9424,3.9424,0.0,0.0,0.0,0.0,0.0,0.0,5.5362,5.6915,5.7923,5.7685,5.7666,5.7397,5.674,5.6116,5.5407,5.478,5.3905,5.2757,5.1389,5.1261,5.021,4.7986,4.8418,4.7531,4.5132,4.3903,4.2598,0.0,0.0,3.9392,0.0,0.0,0.0,0.0,0.0,0.0,0.0,3.6134,3.5513,3.4544,3.5211,3.5554,3.5622,3.5622,3.5622,3.5605,3.5537,3.5064,3.4472,3.4336,3.3795,3.322,3.3288,3.3254,3.3085,3.2459,3.2713,3.3237,3.3372,3.3897,3.459,3.5419,3.4662,3.3822,3.4351,3.4058,3.3744,3.4293,3.493,3.5402,3.5476,3.4912,3.4209,0.0,0.0,0.0,0.0,0.0,3.1631,3.0285,0.0,0.0,2.935,2.9686,2.9494,2.8216,2.6634,0.0,0.0,0.0,0.0,2.8541,3.0461,3.1811,3.2464,3.4465,3.5504,3.5504,3.5504,3.5504,3.5504,3.5504,3.5504,3.5504,3.5504,3.5848,3.6447,3.7135,3.7808,3.8467,3.9155,3.9424,3.9424,3.9424,3.9424,3.9424,0.0,0.0,0.0,0.0,0.0,0.0,0.0,5.8401,5.9098,5.8125,5.7997,5.7886,5.7613,5.6469,5.5595,5.5284,5.4201,5.3045,5.1916,5.1454,5.0731,4.9729,4.9029,4.8168,4.7001,4.5167,4.3674,0.0,0.0,0.0,0.0,0.0,0.0,0.0,0.0,3.704,3.6001,3.6077,3.5494,3.4587,3.5307,3.5622,3.5622,3.5622,3.5622,3.5622,3.5622,3.5419,3.5165,3.5165,3.4387,3.3491,3.3914,3.3761,3.344,3.3575,3.3508,3.3508,3.3931,3.4269,3.457,3.4914,3.4297,3.3646,3.393,3.3802,3.3808,3.4451,3.5133,3.5622,3.5622,3.5368,3.5036,0.0,0.0,0.0,0.0,0.0,0.0,3.0819,0.0,3.0644,2.9803,2.9694,2.9621,2.9541,0.0,0.0,0.0,0.0,0.0,2.9182,0.0,3.2405,3.3089,3.4722,3.5504,3.5504,3.5504,3.5504,3.5504,3.5504,3.5729,3.6103,3.6096,3.6664,3.7644,3.7898,3.8392,3.9035,3.932,3.9424,3.9424,3.9424,3.9424,3.9424,5.3773,0.0,5.3551,0.0,5.6459,5.6965,5.8786,5.9612,5.9703,5.8802,5.828,5.7922,5.7704,5.6515,5.5615,5.5433,5.423,5.318,5.2371,5.1626,5.098,5.0449,4.9323,0.0,4.7747,4.5993,4.4536,4.3487,4.2117,0.0,0.0,0.0,0.0,0.0,3.7937,3.7148,3.6339,3.6112,3.5587,3.4861,3.5402,3.5622,3.5622,3.5622,3.5622,3.5622,3.5622,3.5622,3.5622,3.5622,3.4928,3.415,3.4658,3.4472,3.4117,3.4404,3.4134,3.3846,3.4353,3.4358,3.427,3.4554,3.3974,3.3363,3.3564,3.3574,3.3856,3.4743,3.5279,3.5622,3.5622,3.5622,3.5526,3.5313,0.0,0.0,0.0,3.2171,0.0,3.0926,3.0808,3.0588,3.015,2.9914,3.0074,3.0679,0.0,0.0,0.0,0.0,0.0,0.0,0.0,0.0,3.3508,3.4842,3.5504,3.5504,3.5504,3.5504,3.5504,3.5504,3.5863,3.6492,3.6529,3.7127,3.8123,3.8302,3.8676,3.914,3.9334,3.9424,3.9424,3.9424,3.9424,3.9424,5.5113,5.4986,5.5439,5.8584,5.8566,5.8877,6.1189,6.0199,5.9493,6.0285,5.8974,5.7734,5.6956,5.617,5.5415,5.4666,5.3957,5.318,5.2371,5.158,5.0548,0.0,0.0,4.7986,4.6464,4.6059,4.511,4.3479,0.0,0.0,3.99,0.0,3.8707,3.8689,3.8151,3.762,3.7131,3.6622,3.6069,3.5605,3.5622,3.5622,3.5622,3.5622,3.5622,3.5622,3.5622,3.5622,3.5622,3.5622,3.5605,3.5543,3.5605,3.5605,3.5453,3.4709,3.4489,3.4472,3.4489,3.4013,3.3703,3.4411,3.3582,3.2788,3.3427,3.3582,3.3987,3.5299,3.556,3.5622,3.5622,3.5622,3.5346,3.4628,0.0,0.0,0.0,3.228,0.0,3.0275,3.1381,3.17,3.0241,3.0735,3.1342,0.0,0.0,0.0,0.0,0.0,0.0,3.0474,3.1792,0.0,3.3484,3.4831,3.5504,3.5504,3.5504,3.5504,3.5504,3.5504,3.5863,3.6492,3.6529,3.6873,3.7464,3.8123,3.8392,3.8467,3.9155,3.9424,3.9424,3.9424,3.9424,3.9424,5.6438,5.6308,5.6434,5.7494,5.7909,5.8513,5.9784,5.9993,5.9938,5.963,5.9126,5.8547,5.7759,5.6491,5.5605,0.0,5.4198,5.3416,0.0,5.19,5.1176,5.1235,4.9587,4.8657,4.8659,4.6834,4.5385,4.4318,0.0,0.0,0.0,3.9887,3.9227,3.8689,3.8151,3.7647,3.7175,3.6615,3.6069,3.5622,3.5622,3.5622,3.5622,3.5622,3.5622,3.5622,3.5622,3.5622,3.5622,3.5622,3.5622,3.5622,3.5622,3.5622,3.5571,3.5334,3.5267,3.5267,3.5267,3.5116,3.4768,3.4088,3.3582,3.3339,3.3531,3.4301,3.5068,3.5515,3.5622,3.5622,3.5622,3.5622,3.5346,3.4628,3.3885,0.0,3.2403,0.0,3.1388,3.0909,3.1263,3.1365,3.0909,3.061,0.0,0.0,0.0,0.0,0.0,0.0,0.0,0.0,3.3191,0.0,3.4925,3.5281,3.5504,3.5504,3.5504,3.5504,3.5534,3.5977,3.6514,3.712,3.7079,3.7759,3.8721,3.8018,3.7988,3.8362,3.8138,3.8048,3.8108,3.8556,3.8721,3.8781,5.653,5.6685,5.6958,5.7299,5.7761,5.8449,5.9514,5.9817,5.9755,5.9265,5.8915,5.8538,5.8033,5.6887,0.0,5.5741,5.4579,5.3703,5.3062,5.19,5.1295,5.1461,4.9695,4.8884,4.9332,4.7088,0.0,4.5158,4.3731,4.2246,4.063,4.0152,3.9496,3.8781,3.8279,3.7775,3.7267,3.6758,3.6191,3.5622,3.5622,3.5622,3.5622,3.5622,3.5622,3.5622,3.5622,3.5622,3.5622,3.5622,3.5622,3.5622,3.5622,3.5424,3.5253,3.5515,3.5407,3.5207,3.5207,3.5052,3.4609,3.3495,3.3235,3.3339,3.3836,3.48,3.5622,3.5622,3.5622,3.5622,3.5622,3.5622,3.5374,3.4617,3.3873,3.3151,3.2412,0.0,3.119,0.0,0.0,0.0,0.0,3.1016,3.1247,0.0,0.0,0.0,0.0,0.0,0.0,3.3307,3.465,0.0,3.644,3.6102,3.5874,3.5874,3.5644,3.5504,3.5519,3.5932,3.6455,3.7075,3.7297,3.7863,3.8616,3.8018,3.8018,3.8317,3.7659,3.7719,3.8182,3.8332,3.8556,3.8841,5.5651,5.6233,5.6986,0.0,5.7888,0.0,5.9989,5.9568,5.9049,5.9062,5.8336,5.785,5.785,5.7263,5.6554,5.5736,0.0,0.0,0.0,5.1665,5.0876,5.0223,4.9223,4.8696,4.8675,4.6843,4.5845,4.5743,4.3419,4.153,4.0062,4.0007,3.9651,3.9061,3.8574,3.8058,3.7462,3.7058,3.6395,3.5622,3.5673,3.5656,3.5622,3.5622,3.5622,3.5622,3.5622,3.5622,3.5622,3.5622,3.5622,3.5622,3.5622,3.5144,3.4736,3.5407,3.5144,3.4576,3.4576,3.4137,3.3495,3.2841,3.2695,3.3093,3.4333,3.5098,3.5622,3.5622,3.5622,3.5622,3.5622,3.5622,3.5351,3.4556,3.3829,3.3131,3.233,3.1613,3.119,0.0,0.0,0.0,0.0,3.1837,3.2156,0.0,0.0,0.0,0.0,0.0,3.4482,3.4658,3.6097,3.7207,3.7863,3.7095,3.6641,3.6607,3.5874,3.5534,3.5504,3.5594,3.5968,3.6582,3.721,3.7479,3.7485,3.8063,3.8302,3.8272,3.7599,3.8138,3.9215,3.8601,3.8796,3.9349,0.0,0.0,5.5996,5.6204,5.674,5.7454,5.8417,5.7876,5.7371,5.7427,5.674,5.6209,5.6209,5.6667,5.6332,5.496,5.4687,5.4245,5.3281,5.1939,5.1128,5.0952,4.9477,4.872,4.8719,4.6847,4.5315,4.4062,4.2894,4.209,4.1713,4.1084,4.0489,3.9896,3.9441,3.8594,3.75,3.7597,3.6842,3.5656,3.6265,3.6163,3.5622,3.5622,3.5622,3.5622,3.5622,3.5622,3.5622,3.5622,3.5622,3.5622,3.5622,3.5144,3.4736,3.5407,3.5144,3.4576,3.4576,3.4479,3.4186,3.3531,3.3735,3.4186,3.4528,3.5098,3.5622,3.5622,3.5622,3.5622,3.5622,3.5622,3.5172,3.3869,3.3512,3.2957,3.1636,3.1309,3.119,0.0,3.1708,3.2039,3.2039,3.1692,3.2127,0.0,0.0,0.0,3.4091,3.5725,3.6535,3.6266,3.7102,3.7895,3.8619,3.7918,3.7187,3.6622,3.6436,3.6014,3.5534,3.6522,3.7045,3.7225,3.7893,3.8172,3.8068,3.7312,3.7237,3.7585,3.6933,3.718,3.7928,3.8257,3.8497,3.8706,5.5097,5.5723,5.6184,5.6208,5.678,5.7471,5.7881,5.7328,5.6807,5.6878,5.6179,5.5715,5.5715,5.6431,5.6295,5.4709,5.4916,5.4347,5.2539,5.1676,5.1024,5.0646,4.943,4.8821,4.9182,4.7002,4.5113,4.3497,4.3059,4.2534,4.1885,4.1429,4.0781,3.9958,3.9722,3.9088,3.8221,3.8321,3.7723,3.6656,3.6758,3.6559,3.6101,3.5723,3.5622,3.5622,3.5622,3.5622,3.5622,3.5622,3.5622,3.5622,3.5622,3.5144,3.4736,3.5407,3.4911,3.4202,3.4513,3.4382,3.4137,3.4087,3.4579,3.5101,3.5071,3.5362,3.5622,3.5622,3.5622,3.5622,3.5622,3.5334,3.4699,3.3592,3.3107,3.2497,3.1365,3.119,3.1331,3.1664,3.2349,3.2944,3.3287,3.3571,3.3967,3.4463,3.4881,0.0,3.4996,3.7332,3.8047,3.6825,3.8142,3.9043,3.942,3.8694,3.7923,3.7173,3.6807,3.6356,3.6014,3.6379,3.6537,3.6582,3.724,3.7709,3.7898,3.6877,3.7207,3.8207,3.6975,3.7213,3.8332,3.8377,3.8586,3.8916,5.523,5.6064,5.6644,5.6617,5.733,5.7865,5.778,5.7136,5.6594,5.6592,5.5825,5.5399,5.5399,5.6217,5.609,5.4578,5.522,5.4432,5.1598,5.1179,5.0755,5.0181,4.924,4.9008,4.9688,4.7214,4.5096,4.3497,4.3429,4.2759,4.1609,4.1497,4.0909,3.9878,3.9893,3.9544,3.9026,3.9115,3.8687,3.787,3.733,3.7075,3.6893,3.6202,3.5898,3.5763,3.5763,3.5763,3.5774,3.5656,3.569,3.5774,3.5656,3.5291,3.506,3.5638,3.487,3.3998,3.448,3.4184,3.3887,3.4317,3.5184,3.5841,3.579,3.5893,3.5977,3.5977,3.5876,3.5791,3.5791,3.5081,3.4303,3.3677,3.2848,3.207,3.1444,0.0,3.1642,3.2366,3.3225,3.4031,3.4789,3.602,3.6327,3.5255,3.7353,3.7929,3.6202,3.8533,3.9097,3.7188,3.9067,4.007,4.007,3.9413,3.8712,3.7979,3.7293,3.6825,3.6607,3.6029,3.5784,3.5704,3.635,3.6909,3.7371,3.6867,3.7679,3.9083,3.7441,3.7846,3.9349,3.8751,3.8916,3.9424,5.3805,5.4934,5.5883,5.5839,5.7004,5.7656,5.7055,5.6342,5.5677,5.5026,5.4313,5.3822,5.3822,5.5093,5.5261,5.3784,5.4916,5.4669,5.227,5.0933,5.0504,5.1008,4.9517,4.9009,4.9677,4.7205,4.5107,4.3497,4.3033,4.2696,4.248,4.1979,4.1357,4.0704,4.069,4.0065,3.9026,3.9681,3.9159,3.792,3.8421,3.8303,3.7735,3.7602,3.7163,3.6624,3.6624,3.6591,3.6502,3.5842,3.6062,3.6485,3.5825,3.6016,3.6494,3.6586,3.6002,3.5268,3.4725,3.4544,3.4317,3.3855,3.5184,3.6645,3.662,3.7094,3.755,3.755,3.7043,3.6603,3.6603,3.5453,3.4455,3.4336,3.3169,3.2239,3.2138,0.0,3.2377,3.3162,3.4418,3.5566,3.6365,3.6666,3.7195,3.8235,3.76,3.7552,3.8403,3.8914,3.9026,3.8698,3.962,4.007,4.007,3.9986,3.9514,3.8737,3.8595,3.785,3.6622,3.709,3.6949,3.6386,3.6978,3.7322,3.7416,3.7285,3.7797,3.8553,3.8192,3.8646,3.9409,3.929,3.9334,3.9424,5.5638,5.6081,5.6396,5.6785,5.7471,5.7797,5.7471,5.6421,5.5602,5.5247,5.4161,5.3501,5.3501,5.4839,5.5243,5.4205,5.4699,5.4516,5.3028,5.1511,5.0827,5.111,4.9568,4.8384,4.7679,4.6488,4.4957,4.3078,4.2813,4.2368,4.1732,4.1446,4.1018,4.0497,4.046,4.0163,3.9615,3.9969,3.9733,3.9059,3.9026,3.8807,3.8455,3.8054,3.7667,3.7385,3.7385,3.7415,3.733,3.6975,3.7094,3.7313,3.6966,3.7072,3.7398,3.7418,3.6606,3.5485,3.4381,3.4579,3.5136,3.4808,3.6052,3.7381,3.7381,3.7652,3.7905,3.7905,3.7635,3.7263,3.6857,3.5859,3.5098,3.5098,3.3508,0.0,0.0,3.3136,3.3294,3.4449,3.5933,3.7126,3.7905,3.8316,3.8687,3.9005,3.8738,3.869,3.8959,3.9372,3.9597,3.9597,3.9915,4.007,4.007,4.007,3.9935,3.9564,3.9093,3.8322,3.7227,3.7514,3.6979,3.6014,3.6631,3.7079,3.7389,3.707,3.7721,3.8892,3.856,3.8788,3.9424,3.9424,3.9424,3.9424,5.7056,5.7073,5.6968,5.7526,5.7623,5.7656,5.7865,5.6662,5.5703,5.5673,5.4584,5.372,5.3518,5.4839,5.5409,5.4669,5.4765,5.4471,5.3568,5.2072,5.1259,5.1343,4.9929,4.8247,4.6225,4.601,4.4939,4.3004,4.2668,4.1943,4.0886,4.0782,4.0504,4.007,4.007,4.007,4.007,4.007,4.007,4.0037,3.9463,3.9244,3.9194,3.864,3.8286,3.8159,3.8159,3.8159,3.8142,3.7973,3.8024,3.8108,3.7963,3.8034,3.8176,3.8181,3.7236,3.5933,3.4447,3.5019,3.5943,3.5966,3.6939,3.7939,3.8108,3.8278,3.8413,3.8413,3.8263,3.7976,3.7415,3.6518,3.596,3.6129,0.0,0.0,0.0,3.4539,3.4686,3.5994,3.7331,3.8424,3.9194,3.9783,3.9851,3.9278,3.9783,3.9834,3.9278,3.98,4.007,4.007,4.007,4.007,4.007,4.007,4.007,4.007,3.9463,3.8772,3.8048,3.793,3.7147,3.5948,3.6481,3.7045,3.7617,3.7127,3.7914,3.9322,3.8792,3.8939,3.9424,3.9424,3.9424,3.9424,5.5833,5.6376,5.6802,5.6886,5.6903,5.7072,5.7814,5.6662,5.5703,5.5673,5.4975,5.4279,5.3551,5.4839,5.5409,5.4669,5.5247,5.5044,5.36,5.2051,5.1459,5.2066,5.1189,4.9505,4.7053,4.6285,4.5213,4.3789,4.2493,4.154,4.0898,4.0374,4.0154,4.007,4.007,4.007,4.007,4.007,4.007,4.007,4.0037,4.002,4.0003,3.9969,3.9512,3.892,3.892,3.892,3.8802,3.8142,3.8345,3.8802,3.8108,3.8362,3.892,3.892,3.8383,3.7501,3.5983,3.6124,3.6717,3.6731,3.7295,3.8075,3.8732,3.9443,3.9918,3.9918,3.9412,3.8891,3.887,3.7652,3.6924,3.7618,0.0,0.0,3.6485,3.6569,3.6818,3.7665,3.8414,3.9217,3.9935,4.0054,4.007,4.002,4.0054,4.007,4.002,4.0054,4.007,4.007,4.007,4.007,4.007,4.007,4.007,4.007,4.0037,3.957,3.8737,3.8685,3.8203,3.7241,3.7291,3.7707,3.8325,3.8258,3.8733,3.9424,3.9322,3.9394,3.9424,3.9424,3.9424,3.9424,5.6976,5.728,5.733,5.6903,5.7589,5.784,5.6675,5.6904,5.6617,5.5198,5.4735,5.433,5.3568,5.4839,5.5566,5.5309,5.556,5.5486,5.492,5.2539,5.1083,5.0791,5.0782,4.9857,4.7901,4.6231,4.4747,4.3351,4.1936,4.0967,4.0408,4.0206,4.007,4.007,4.007,4.007,4.007,4.007,4.007,4.007,4.007,4.007,4.007,4.007,3.9918,3.9665,3.9665,3.9665,3.9631,3.9343,3.9445,3.9614,3.9343,3.9445,3.958,3.9123,3.9157,3.9059,3.8019,3.7285,3.6896,3.7435,3.8068,3.8768,3.9528,3.9918,4.007,4.007,3.9868,3.9531,3.9076,3.855,3.8244,3.8531,0.0,3.6755,3.7973,3.777,3.7767,3.8506,3.9253,3.9798,4.0087,4.007,4.007,4.007,4.007,4.0272,4.0779,4.1233,4.1236,4.0794,4.1257,4.1256,4.0775,4.0323,4.0544,4.1441,4.0998,4.0628,4.0278,4.0726,4.0208,3.902,3.8897,3.899,3.9152,3.8607,3.8829,3.9424,3.9424,3.9424,3.9424,3.9424,3.9424,3.9424,5.7763,5.7746,5.7364,5.692,5.7446,5.7604,5.6252,5.695,5.7006,5.5191,5.497,5.4584,5.3585,5.4618,5.5444,5.5684,5.5706,5.5684,5.5735,5.3109,5.106,4.9955,5.0483,5.0129,4.873,4.6355,4.4536,4.3376,4.1707,4.0629,4.007,4.007,4.007,4.007,4.007,4.007,4.007,4.007,4.007,4.007,4.007,4.007,4.007,4.007,4.007,4.007,4.007,4.007,4.007,4.007,4.007,4.007,4.007,4.007,3.9986,3.9478,3.9681,3.9969,3.9462,3.8604,3.7985,3.8506,3.884,3.9191,3.9918,4.007,4.007,4.007,4.007,3.9969,3.943,3.9361,3.9343,3.9343,3.8481,3.8176,3.9191,3.8903,3.8768,3.9274,3.9799,4.007,4.007,4.029,4.0442,4.0442,4.0662,4.1026,4.1543,4.2021,4.1982,4.1201,4.1938,4.2072,4.1538,4.1059,4.127,4.2286,4.1808,4.151,4.156,4.201,4.1628,4.0626,4.0498,4.0415,4.0372,3.9497,3.9564,4.02,3.9935,4.0005,4.0185,3.9935,3.9793,3.9809,5.7881,5.7296,5.6763,5.6763,5.6214,5.594,5.6647,5.6786,5.6508,5.5777,5.5668,5.5144,5.3686,5.4144,5.4904,5.5636,5.5706,5.5666,5.5634,5.3541,5.1602,4.9992,5.049,5.0419,4.9654,4.6649,4.4821,4.4179,4.1954,4.0629,4.007,4.007,4.007,4.007,4.007,4.007,4.007,4.007,4.007,4.007,4.007,4.007,4.007,4.007,4.007,4.007,4.007,4.007,4.007,4.007,4.007,4.007,4.007,4.007,4.007,4.007,4.007,4.007,4.007,4.007,4.007,4.007,3.9529,3.9191,3.9918,4.007,4.007,4.007,4.007,4.007,4.007,4.007,4.007,4.007,4.007,4.007,4.007,4.007,4.007,4.0087,4.0087,4.0087,4.0104,4.0798,4.1222,4.1222,4.1903,4.2328,4.232,4.2303,4.1985,4.1256,4.1919,4.2311,4.2311,4.2299,4.2277,4.2303,4.2303,4.2277,4.2219,4.2219,4.2162,4.2013,4.1997,4.1997,4.1933,4.108,4.1213,4.1933,4.108,4.1213,4.1869,4.1013,4.069,4.0554,5.778,5.692,5.6039,5.6028,5.6816,5.676,5.4796,5.631,5.6883,5.4481,5.4578,5.4567,5.3585,5.4144,5.4898,5.5628,5.5235,5.4257,5.2689,5.2368,5.1851,5.0771,5.0282,5.014,5.045,4.6519,4.4378,4.4179,4.163,4.0256,4.007,4.007,4.007,4.007,4.007,4.007,4.007,4.007,4.007,4.007,4.007,4.007,4.007,4.007,4.007,4.007,4.007,4.007,4.007,4.007,4.007,4.007,4.007,4.007,4.007,4.007,4.007,4.007,4.007,4.007,4.007,4.007,3.9918,3.9817,4.002,4.007,4.007,4.007,4.007,4.007,4.007,4.007,4.007,4.007,4.007,4.007,4.007,4.007,4.0273,4.0798,4.0848,4.1085,4.1578,4.1852,4.1971,4.1967,4.2668,4.306,4.3098,4.3606,4.3572,4.277,4.3494,4.3631,4.3105,4.254,4.2858,4.3893,4.3335,4.336,4.386,4.386,4.4131,4.458,4.397,4.3706,4.3644,4.2701,4.2234,4.1997,4.1739,4.1804,4.1997,4.1739,4.1507,4.1377,5.7012,5.6111,5.5257,5.523,5.6319,5.6534,5.4653,5.6227,5.6829,5.4683,5.4532,5.433,5.3568,5.4144,5.4907,5.5671,5.5284,5.4163,5.2219,5.1931,5.1652,5.1104,4.9657,4.9382,5.0394,4.6631,4.4378,4.3852,4.1902,4.0815,4.0561,4.0832,4.0984,4.0984,4.0662,4.0561,4.0544,4.0222,4.007,4.007,4.007,4.007,4.007,4.007,4.007,4.007,4.007,4.007,4.007,4.007,4.007,4.007,4.007,4.007,4.007,4.007,4.007,4.007,4.007,4.007,4.007,4.007,4.007,4.007,4.007,4.007,4.007,4.007,4.007,4.007,4.007,4.007,4.007,4.007,4.007,4.0189,4.051,4.0544,4.0798,4.1542,4.1623,4.1808,4.2236,4.2564,4.2983,4.3608,4.4063,4.4316,4.4326,4.449,4.4243,4.3429,4.4153,4.4207,4.3412,4.3256,4.367,4.457,4.4096,4.413,4.4587,4.4587,4.4823,4.5263,4.4717,4.463,4.4803,4.366,4.3323,4.3424,4.2759,4.2707,4.297,4.2645,4.2222,4.1731,5.5843,5.5069,5.4494,5.4584,5.5195,5.5685,5.5632,5.6255,5.6515,5.5689,5.4941,5.4279,5.3551,5.4093,5.4804,5.5644,5.5703,5.4975,5.3298,5.1962,5.1128,5.1025,4.8897,4.829,4.9603,4.6743,4.4617,4.3408,4.2671,4.1971,4.1291,4.2006,4.2296,4.2279,4.1614,4.1274,4.1188,4.0459,4.0172,4.007,4.007,4.0121,4.0172,4.0104,4.0121,4.0172,4.0104,4.007,4.0087,4.0189,4.0172,4.0087,4.0189,4.0172,4.007,4.007,4.007,4.007,4.007,4.007,4.007,4.007,4.0138,4.0172,4.0104,4.007,4.007,4.007,4.0138,4.0206,4.0189,4.0189,4.0189,4.0172,4.0222,4.0409,4.1101,4.1253,4.1576,4.2303,4.2399,4.2463,4.253,4.3182,4.4175,4.5571,4.5682,4.5716,4.5716,4.5004,4.426,4.3553,4.4243,4.426,4.348,4.4243,4.4587,4.4587,4.4587,4.4587,4.4587,4.4587,4.4621,4.4671,4.4756,4.5162,4.5696,4.4304,4.454,4.5662,4.4138,4.3973,4.4598,4.3713,4.2909,4.2109,5.5586,5.4617,5.394,5.4483,5.5195,5.5484,5.4955,5.5499,5.5685,5.4918,5.4161,5.3703,5.3518,5.3602,5.4253,5.5556,5.5698,5.4567,5.1866,5.141,5.0878,5.0277,4.8592,4.7885,4.826,4.5823,4.4436,4.4177,4.2911,4.2227,4.2059,4.2232,4.2282,4.2282,4.211,4.1758,4.1205,4.1035,4.0629,4.007,4.007,4.0443,4.0899,4.0307,4.0443,4.0882,4.029,4.007,4.0189,4.0781,4.0595,4.0206,4.0798,4.0578,4.007,4.007,4.007,4.007,4.007,4.007,4.007,4.007,4.051,4.0814,4.0223,4.007,4.007,4.007,4.056,4.098,4.0948,4.0966,4.0966,4.0967,4.0985,4.1002,4.1172,4.1694,4.2331,4.3085,4.3166,4.3399,4.4024,4.4744,4.5351,4.5655,4.5679,4.5703,4.5703,4.4993,4.4519,4.4328,4.4519,4.4519,4.4328,4.4519,4.4587,4.4587,4.4587,4.4587,4.4587,4.4587,4.4908,4.55,4.6058,4.6397,4.6583,4.681,4.6743,4.6481,4.5546,4.5277,4.5382,4.4603,4.4112,4.3764,5.4618,5.4059,5.3737,5.4432,5.5195,5.5702,5.5704,5.5706,5.5569,5.5152,5.4144,5.3501,5.3501,5.3805,5.4329,5.5098,5.4873,5.3703,5.1352,5.0878,5.0311,4.9548,4.8063,4.7301,4.7339,4.5456,4.4311,4.3895,4.3583,4.3203,4.2808,4.3222,4.3396,4.3396,4.2998,4.2589,4.2221,4.1495,4.1001,4.0595,4.0239,4.0307,4.0629,4.0223,4.0324,4.0612,4.0223,4.0408,4.0866,4.1256,4.1273,4.1222,4.1613,4.1222,4.0629,4.0629,4.0391,4.007,4.007,4.0375,4.0629,4.0629,4.1188,4.1508,4.0815,4.0899,4.1171,4.1172,4.1441,4.1743,4.1704,4.1698,4.1735,4.173,4.1713,4.1848,4.2221,4.2588,4.3128,4.3898,4.3944,4.4282,4.5043,4.5805,4.6355,4.6727,4.6743,4.6625,4.6245,4.5544,4.4976,4.4587,4.4587,4.4761,4.5145,4.5145,4.5307,4.5635,4.528,4.5297,4.5635,4.5635,4.5855,4.6227,4.6295,4.6498,4.6802,4.681,4.6634,4.6244,4.5855,4.5483,4.5128,4.4722,4.4277,4.3822,5.3619,5.3501,5.3737,5.4432,5.5201,5.5904,5.6605,5.6118,5.5641,5.5541,5.4347,5.3501,5.3501,5.4144,5.4499,5.4212,5.3752,5.2767,5.111,5.0458,4.9763,4.9018,4.7586,4.6827,4.6833,4.5371,4.4277,4.362,4.4277,4.426,4.362,4.4294,4.4587,4.4553,4.3895,4.3553,4.3312,4.2085,4.1512,4.1307,4.0696,4.0459,4.0459,4.0391,4.0375,4.0324,4.0155,4.0696,4.1596,4.1834,4.2074,4.2296,4.245,4.1989,4.1376,4.1376,4.0968,4.046,4.046,4.0934,4.1376,4.1393,4.1919,4.2306,4.1709,4.1982,4.2323,4.2326,4.2411,4.2511,4.2517,4.25,4.25,4.2511,4.2523,4.2715,4.33,4.3512,4.3859,4.4502,4.4688,4.501,4.5652,4.6363,4.7056,4.7682,4.7614,4.7284,4.6675,4.6043,4.5409,4.4795,4.4931,4.5269,4.5909,4.5891,4.6271,4.6963,4.638,4.6329,4.6786,4.6819,4.6802,4.6769,4.6287,4.6355,4.6743,4.6253,4.601,4.5848,4.5754,4.5331,4.4756,4.4621,4.412,4.3524,5.3518,5.3501,5.3737,5.4432,5.5217,5.5759,5.5824,5.5761,5.5497,5.4812,5.4025,5.3501,5.3501,5.4144,5.404,5.2711,5.3124,5.2595,5.0362,5.0192,4.9763,4.9018,4.7586,4.6827,4.6833,4.5371,4.4536,4.4451,4.4536,4.4536,4.4451,4.4536,4.4587,4.4587,4.4502,4.4052,4.3379,4.3199,4.2749,4.2124,4.2055,4.2021,4.1937,4.1528,4.1391,4.1258,4.0425,4.0612,4.146,4.2738,4.2788,4.2411,4.3048,4.2774,4.2143,4.2148,4.2102,4.1982,4.1982,4.2087,4.214,4.2136,4.2686,4.3238,4.3115,4.2712,4.2286,4.2323,4.2794,4.325,4.323,4.3263,4.3263,4.325,4.3234,4.3322,4.3369,4.3978,4.4468,4.457,4.5162,4.5602,4.5703,4.6363,4.6836,4.6938,4.6363,4.5959,4.5831,4.5723,4.5635,4.5524,4.6191,4.6566,4.6669,4.6623,4.7046,4.7743,4.7612,4.7327,4.6802,4.6768,4.6828,4.6819,4.7394,4.7318,4.6853,4.7359,4.7207,4.66,4.5933,4.5652,4.5466,4.4823,4.4519,4.4395,5.3501,5.3501,5.3737,5.4432,5.4877,5.524,5.5651,5.5347,5.4999,5.4666,5.3991,5.3501,5.3501,5.3788,5.3534,5.2421,5.2264,5.161,5.0209,4.9729,4.9317,4.9018,4.7995,4.7402,4.7408,4.5959,4.5422,4.584,4.4987,4.4587,4.4587,4.4587,4.4587,4.4587,4.4587,4.4378,4.4052,4.3603,4.3242,4.2884,4.2464,4.2312,4.2261,4.1784,4.1611,4.1586,4.1403,4.2074,4.3219,4.3869,4.3851,4.3637,4.4002,4.3569,4.2898,4.2896,4.2638,4.2286,4.2286,4.2594,4.2918,4.2915,4.3483,4.4035,4.4045,4.3847,4.3572,4.3572,4.3826,4.4062,4.4062,4.4062,4.4062,4.4062,4.4045,4.4084,4.4084,4.4705,4.5388,4.5784,4.614,4.6479,4.691,4.7242,4.7598,4.8022,4.7708,4.7335,4.6954,4.6912,4.6727,4.6321,4.6649,4.6982,4.739,4.7396,4.7787,4.8506,4.85,4.8342,4.8037,4.8027,4.801,4.802,4.7933,4.7494,4.6845,4.7154,4.6582,4.5578,4.5662,4.5727,4.5722,4.5811,4.554,4.5213]},{"header":{"parameterUnit":"m.s-1","parameterCategory":1,"la1":30.6,"la2":28.766,"lo1":-90.7593,"lo2":-88.6598,"dy":0.0162,"dx":0.0183,"nx":116,"ny":114,"refTime":"2023-09-17T00:00:00:Z","depth":0,"parameterNumber":3,"parameterNumberName":"V-component_of_WINDS"},"data":[0.0,0.0,0.0,0.0,0.0,0.0,0.0,0.0,0.0,0.0,0.0,0.0,0.0,0.0,0.0,0.0,0.0,0.0,0.0,0.0,0.0,0.0,0.0,0.0,0.0,0.0,0.0,0.0,0.0,0.0,0.0,0.0,0.0,0.0,0.0,0.0,0.0,0.0,0.0,0.0,0.0,0.0,0.0,0.0,0.0,0.0,0.0,0.0,0.0,0.0,0.0,0.0,0.0,0.0,0.0,0.0,0.0,0.0,0.0,0.0,0.0,0.0,0.0,0.0,0.0,0.0,0.0,0.0,0.0,0.0,0.0,0.0,0.0,0.0,0.0,0.0,0.0,0.0,0.0,0.0,0.0,0.0,0.0,0.0,0.0,0.0,0.0,0.0,0.0,0.0,0.0,0.0,0.0,0.0,0.0,0.0,0.0,0.0,0.0,0.0,0.0,0.0,0.0,0.0,0.0,0.0,0.0,0.0,0.0,0.0,0.0,0.0,0.0,0.0,0.0,0.0,0.0,0.0,0.0,0.0,0.0,0.0,0.0,0.0,0.0,0.0,0.0,0.0,0.0,0.0,0.0,0.0,0.0,0.0,0.0,0.0,0.0,0.0,0.0,0.0,0.0,0.0,0.0,0.0,0.0,0.0,0.0,0.0,0.0,0.0,0.0,0.0,0.0,0.0,0.0,0.0,0.0,0.0,0.0,0.0,0.0,0.0,0.0,0.0,0.0,0.0,0.0,0.0,0.0,0.0,0.0,0.0,0.0,0.0,0.0,0.0,0.0,0.0,0.0,0.0,0.0,0.0,0.0,0.0,0.0,0.0,0.0,0.0,0.0,0.0,0.0,0.0,0.0,0.0,0.0,0.0,0.0,0.0,0.0,0.0,0.0,0.0,0.0,0.0,0.0,0.0,0.0,0.0,0.0,0.0,0.0,0.0,0.0,0.0,0.0,0.0,0.0,0.0,0.0,0.0,0.0,0.0,0.0,0.0,0.0,0.0,0.0,0.0,0.0,0.0,0.0,0.0,0.0,0.0,0.0,0.0,0.0,0.0,0.0,0.0,0.0,0.0,0.0,0.0,0.0,0.0,0.0,0.0,0.0,0.0,0.0,0.0,0.0,0.0,0.0,0.0,0.0,0.0,0.0,0.0,0.0,0.0,0.0,0.0,0.0,0.0,0.0,0.0,0.0,0.0,0.0,0.0,0.0,0.0,0.0,0.0,0.0,0.0,0.0,0.0,0.0,0.0,0.0,0.0,0.0,0.0,0.0,0.0,0.0,0.0,0.0,0.0,0.0,0.0,0.0,0.0,0.0,0.0,0.0,0.0,0.0,0.0,0.0,0.0,0.0,0.0,0.0,0.0,0.0,0.0,0.0,0.0,0.0,0.0,0.0,0.0,0.0,0.0,0.0,0.0,0.0,0.0,0.0,0.0,0.0,0.0,0.0,0.0,0.0,0.0,0.0,0.0,0.0,0.0,0.0,0.0,0.0,0.0,0.0,0.0,0.0,0.0,0.0,0.0,0.0,0.0,0.0,0.0,0.0,0.0,0.0,0.0,0.0,0.0,0.0,0.0,0.0,0.0,0.0,0.0,0.0,0.0,0.0,0.0,0.0,0.0,0.0,0.0,0.0,0.0,0.0,0.0,0.0,0.0,0.0,0.0,0.0,0.0,0.0,0.0,0.0,0.0,0.0,0.0,0.0,0.0,0.0,0.0,0.0,0.0,0.0,0.0,0.0,0.0,0.0,0.0,0.0,0.0,0.0,0.0,0.0,0.0,0.0,0.0,0.0,0.0,0.0,0.0,0.0,0.0,0.0,0.0,0.0,0.0,0.0,0.0,0.0,0.0,0.0,0.0,0.0,0.0,0.0,0.0,0.0,0.0,0.0,0.0,0.0,0.0,0.0,0.0,0.0,0.0,0.0,0.0,0.0,0.0,0.0,0.0,0.0,0.0,0.0,0.0,0.0,0.0,0.0,0.0,0.0,0.0,0.0,0.0,0.0,0.0,0.0,0.0,0.0,0.0,0.0,0.0,0.0,0.0,0.0,0.0,0.0,0.0,0.0,0.0,0.0,0.0,0.0,0.0,0.0,0.0,0.0,0.0,0.0,0.0,0.0,0.0,0.0,0.0,0.0,0.0,0.0,0.0,0.0,0.0,0.0,0.0,0.0,0.0,0.0,0.0,0.0,0.0,0.0,0.0,0.0,0.0,0.0,0.0,0.0,0.0,0.0,0.0,0.0,0.0,0.0,0.0,0.0,0.0,0.0,0.0,0.0,0.0,0.0,0.0,0.0,0.0,0.0,0.0,0.0,0.0,0.0,0.0,0.0,0.0,0.0,0.0,0.0,0.0,0.0,0.0,0.0,0.0,0.0,0.0,0.0,0.0,0.0,0.0,0.0,0.0,0.0,0.0,0.0,0.0,0.0,0.0,0.0,0.0,0.0,0.0,0.0,0.0,0.0,0.0,0.0,0.0,0.0,0.0,0.0,0.0,0.0,0.0,0.0,0.0,0.0,0.0,0.0,0.0,0.0,0.0,0.0,0.0,0.0,0.0,0.0,0.0,0.0,0.0,0.0,0.0,0.0,0.0,0.0,0.0,0.0,0.0,0.0,0.0,0.0,0.0,0.0,0.0,0.0,0.0,0.0,0.0,0.0,0.0,0.0,0.0,0.0,0.0,0.0,0.0,0.0,0.0,0.0,0.0,0.0,0.0,0.0,0.0,0.0,0.0,0.0,0.0,0.0,0.0,0.0,0.0,0.0,0.0,0.0,0.0,0.0,0.0,0.0,0.0,0.0,0.0,0.0,0.0,0.0,0.0,0.0,0.0,0.0,0.0,0.0,0.0,0.0,0.0,0.0,0.0,0.0,0.0,0.0,0.0,0.0,0.0,0.0,0.0,0.0,0.0,0.0,0.0,0.0,0.0,0.0,0.0,0.0,0.0,0.0,0.0,0.0,0.0,0.0,0.0,0.0,0.0,0.0,0.0,0.0,0.0,0.0,0.0,0.0,0.0,0.0,0.0,0.0,0.0,0.0,0.0,0.0,0.0,0.0,0.0,0.0,0.0,0.0,0.0,0.0,0.0,0.0,0.0,0.0,0.0,0.0,0.0,0.0,0.0,0.0,0.0,0.0,0.0,0.0,0.0,0.0,0.0,0.0,0.0,0.0,0.0,0.0,0.0,0.0,0.0,0.0,0.0,0.0,0.0,0.0,0.0,0.0,0.0,0.0,0.0,0.0,0.0,0.0,0.0,0.0,0.0,0.0,0.0,0.0,0.0,0.0,0.0,0.0,0.0,0.0,0.0,0.0,0.0,0.0,0.0,0.0,0.0,0.0,0.0,0.0,0.0,0.0,0.0,0.0,0.0,0.0,0.0,0.0,0.0,0.0,0.0,0.0,0.0,0.0,0.0,0.0,0.0,0.0,0.0,0.0,0.0,0.0,0.0,0.0,0.0,0.0,0.0,0.0,0.0,0.0,0.0,0.0,0.0,0.0,0.0,0.0,0.0,0.0,0.0,0.0,0.0,0.0,0.0,0.0,0.0,0.0,0.0,0.0,0.0,0.0,0.0,0.0,0.0,0.0,0.0,0.0,0.0,0.0,0.0,0.0,0.0,0.0,0.0,0.0,0.0,0.0,0.0,0.0,0.0,0.0,0.0,0.0,0.0,0.0,0.0,0.0,0.0,0.0,0.0,0.0,0.0,0.0,0.0,0.0,0.0,0.0,0.0,0.0,0.0,0.0,0.0,0.0,0.0,0.0,0.0,0.0,0.0,0.0,0.0,0.0,0.0,0.0,0.0,0.0,0.0,0.0,0.0,0.0,0.0,0.0,0.0,0.0,0.0,0.0,0.0,0.0,0.0,0.0,0.0,0.0,0.0,0.0,0.0,0.0,0.0,0.0,0.0,0.0,0.0,0.0,0.0,0.0,0.0,0.0,0.0,0.0,0.0,0.0,0.0,0.0,0.0,0.0,0.0,0.0,0.0,0.0,0.0,0.0,0.0,0.0,0.0,0.0,0.0,0.0,0.0,0.0,0.0,0.0,0.0,0.0,0.0,0.0,0.0,0.0,0.0,0.0,0.0,0.0,0.0,0.0,0.0,0.0,0.0,0.0,0.0,0.0,0.0,0.0,0.0,0.0,0.0,0.0,0.0,0.0,0.0,0.0,0.0,0.0,0.0,0.0,0.0,0.0,0.0,0.0,0.0,0.0,0.0,0.0,0.0,0.0,0.0,0.0,0.0,0.0,0.0,0.0,0.0,0.0,0.0,0.0,0.0,0.0,0.0,0.0,0.0,0.0,0.0,0.0,0.0,0.0,0.0,0.0,0.0,0.0,0.0,0.0,0.0,0.0,0.0,0.0,0.0,0.0,0.0,0.0,0.0,0.0,0.0,0.0,0.0,0.0,0.0,0.0,0.0,0.0,0.0,0.0,0.0,0.0,0.0,0.0,0.0,0.0,0.0,0.0,0.0,0.0,0.0,0.0,0.0,0.0,0.0,0.0,0.0,0.0,0.0,0.0,0.0,0.0,0.0,0.0,0.0,0.0,0.0,0.0,0.0,0.0,0.0,0.0,0.0,0.0,0.0,0.0,0.0,0.0,0.0,0.0,0.0,0.0,0.0,0.0,0.0,0.0,0.0,0.0,0.0,0.0,0.0,0.0,0.0,0.0,0.0,0.0,0.0,0.0,0.0,0.0,0.0,0.0,0.0,0.0,0.0,0.0,0.0,0.0,0.0,0.0,0.0,0.0,0.0,0.0,0.0,0.0,0.0,0.0,0.0,0.0,0.0,0.0,0.0,0.0,0.0,0.0,0.0,0.0,0.0,0.0,0.0,0.0,0.0,0.0,0.0,0.0,0.0,0.0,0.0,0.0,0.0,0.0,0.0,0.0,0.0,0.0,0.0,0.0,0.0,0.0,0.0,0.0,0.0,0.0,0.0,0.0,0.0,0.0,0.0,0.0,0.0,0.0,0.0,0.0,0.0,0.0,0.0,0.0,0.0,0.0,0.0,0.0,0.0,0.0,0.0,0.0,0.0,0.0,0.0,0.0,0.0,0.0,0.0,0.0,0.0,0.0,0.0,0.0,0.0,0.0,0.0,0.0,0.0,0.0,0.0,0.0,0.0,0.0,0.0,0.0,0.0,0.0,0.0,0.0,0.0,0.0,0.0,0.0,0.0,0.0,0.0,0.0,0.0,0.0,0.0,0.0,0.0,0.0,0.0,0.0,0.0,0.0,0.0,0.0,0.0,0.0,0.0,0.0,0.0,0.0,0.0,0.0,0.0,0.0,0.0,0.0,0.0,0.0,0.0,0.0,0.0,0.0,0.0,0.0,0.0,0.0,0.0,0.0,0.0,0.0,0.0,0.0,0.0,0.0,0.0,0.0,0.0,0.0,0.0,0.0,0.0,0.0,0.0,0.0,0.0,0.0,0.0,0.0,0.0,0.0,0.0,0.0,0.0,0.0,0.0,0.0,0.0,0.0,0.0,0.0,0.0,0.0,0.0,0.0,0.0,0.0,0.0,0.0,0.0,0.0,0.0,0.0,0.0,0.0,0.0,0.0,0.0,0.0,0.0,0.0,0.0,0.0,0.0,0.0,0.0,0.0,0.0,0.0,0.0,0.0,0.0,0.0,0.0,0.0,0.0,0.0,0.0,0.0,0.0,0.0,0.0,0.0,0.0,0.0,0.0,0.0,0.0,0.0,0.0,0.0,0.0,0.0,0.0,0.0,0.0,0.0,0.0,0.0,0.0,0.0,0.0,0.0,0.0,0.0,0.0,0.0,0.0,0.0,0.0,0.0,0.0,0.0,0.0,0.0,0.0,0.0,0.0,0.0,0.0,0.0,0.0,0.0,0.0,0.0,0.0,0.0,0.0,0.0,0.0,0.0,0.0,0.0,0.0,0.0,0.0,0.0,0.0,0.0,0.0,0.0,0.0,0.0,0.0,0.0,0.0,0.0,0.0,0.0,0.0,0.0,0.0,0.0,0.0,0.0,0.0,0.0,0.0,0.0,0.0,0.0,0.0,0.0,0.0,0.0,0.0,0.0,0.0,0.0,0.0,0.0,0.0,0.0,0.0,0.0,0.0,0.0,0.0,0.92,0.0,0.0,0.0,0.0,0.0,0.0,0.0,0.0,0.0,0.0,0.0,0.0,0.0,0.0,0.0,0.0,0.0,0.0,0.0,0.0,0.0,0.0,0.0,0.0,0.0,0.0,0.0,0.0,0.0,0.0,0.0,0.0,0.0,0.0,0.0,0.0,0.0,0.0,0.0,0.0,0.0,0.0,0.0,0.0,0.0,0.0,0.0,0.0,0.0,0.0,0.0,0.0,0.0,0.0,0.0,0.0,0.0,0.0,0.0,0.0,0.0,0.0,0.0,0.0,0.0,0.0,0.0,0.0,0.0,0.0,0.0,0.0,0.0,0.0,0.0,0.0,0.0,0.0,0.0,0.0,0.0,0.0,0.0,0.0,0.0,0.0,0.0,0.0,0.0,0.0,0.0,0.0,0.0,0.0,0.0,0.0,0.0,0.0,0.0,0.0,0.0,0.0,0.0,0.0,0.0,0.0,0.0,0.0,0.0,0.0,0.0,0.0,0.0,0.0,0.0,0.0,0.9359,0.0,0.0,0.0,0.0,0.0,0.0,0.0,0.0,0.0,0.0,0.0,0.0,0.0,0.0,0.0,0.0,0.0,0.0,0.0,0.0,0.0,0.0,0.0,0.0,0.0,0.0,0.0,0.0,0.0,0.0,0.0,0.0,0.0,0.0,0.0,0.0,0.0,0.0,0.0,0.0,0.0,0.0,0.0,0.0,0.0,0.0,0.0,0.0,0.0,0.0,0.0,0.0,0.0,0.0,0.0,0.0,0.0,0.0,0.0,0.0,0.0,0.0,0.0,0.0,0.0,0.0,0.0,0.0,0.0,0.0,0.0,0.0,0.0,0.0,0.0,0.0,0.0,0.0,0.0,0.0,0.0,0.0,0.0,0.0,0.0,0.0,0.0,0.0,0.0,0.0,0.0,0.0,0.0,0.0,0.0,0.0,0.0,0.0,0.0,0.0,0.0,0.0,0.0,0.0,0.0,0.0,0.0,0.0,1.5103,1.5965,1.6298,1.5408,1.4743,1.4244,1.1724,1.0414,1.0033,1.0275,0.0,0.0,0.0,0.0,0.0,0.0,0.0,0.0,0.0,0.0,0.0,0.0,0.0,0.0,0.0,0.0,0.0,0.0,0.0,0.0,0.0,0.0,0.0,0.0,0.0,0.0,0.0,0.0,0.0,0.0,0.0,0.0,0.0,0.0,0.0,0.0,0.0,0.0,1.3161,1.393,1.4141,1.3857,0.0,0.0,0.0,0.0,0.0,0.0,0.0,0.0,0.0,0.0,0.0,0.0,0.0,0.0,0.0,0.0,0.0,0.0,0.0,0.0,0.0,0.0,0.0,0.0,0.0,0.0,0.0,0.0,0.0,0.0,0.0,0.0,0.0,0.0,0.0,0.0,0.0,0.0,0.0,0.0,0.0,0.0,0.0,0.0,0.9754,0.9894,0.0,0.0,0.0,0.0,0.0,0.0,0.0,0.0,0.0,0.0,0.0,0.0,0.0,0.9321,1.0308,1.1721,1.3397,1.5292,1.675,1.7503,1.7736,1.8319,1.7473,1.5296,1.3536,0.0,1.1076,0.9668,0.0,0.0,0.0,0.0,0.0,0.0,0.0,0.0,0.0,0.0,0.0,0.0,0.0,0.0,0.0,0.0,0.0,0.0,0.0,0.0,0.0,0.0,0.0,0.0,0.0,0.0,0.0,0.0,0.0,0.0,0.0,0.0,0.0,0.0,0.0,0.0,1.299,1.4666,1.603,1.6606,1.7005,1.7269,1.6485,1.5241,1.3612,1.2628,0.0,0.0,0.0,0.0,0.0,0.0,0.0,0.0,0.0,0.0,0.0,0.0,0.0,0.0,0.0,0.0,0.0,0.0,0.0,0.0,0.0,0.0,0.0,0.0,0.0,0.0,0.0,0.0,0.0,0.0,0.0,0.0,0.0,0.0,0.0,0.0,0.0,0.0,0.0,1.0136,1.1122,1.1482,1.1506,1.1312,0.0,0.0,0.0,0.0,0.0,0.0,0.0,0.0,0.0,0.9878,1.4385,1.7097,1.7645,1.8153,1.7819,1.6822,1.9033,2.0374,2.0919,2.1278,2.0875,1.9634,1.6199,1.4389,1.3743,1.184,1.1141,1.124,0.0,0.0,0.0,0.0,0.9485,0.962,0.0,0.0,0.0,0.0,0.0,0.0,0.0,0.0,0.0,0.0,0.0,0.0,0.0,0.0,0.0,0.9673,0.0,0.0,0.0,0.0,0.0,0.0,0.0,0.0,0.0,0.0,0.0,0.0,1.5698,1.7175,1.8682,1.9219,1.9639,1.9951,1.9951,1.8242,1.5174,1.4223,1.3383,0.0,0.0,0.0,0.0,0.0,0.0,0.0,0.0,0.0,0.0,0.0,0.0,0.0,0.0,0.0,0.0,0.0,0.0,0.0,0.0,0.0,0.0,0.0,0.0,0.0,0.0,0.0,0.0,0.0,0.0,0.0,0.0,0.0,0.0,0.0,0.0,0.0,0.0,1.1122,1.2323,1.269,1.2994,1.278,0.0,0.0,0.0,0.0,0.0,0.0,1.3593,1.4221,1.3783,1.2065,1.8282,2.2342,2.3762,2.3785,2.2435,1.9777,2.1835,2.3161,2.3808,2.3813,2.3749,2.357,1.9947,1.8095,1.7438,1.4786,1.3016,1.2111,1.2171,1.1817,1.1215,1.0924,1.1009,1.1242,0.0,0.0,0.0,0.0,0.0,0.0,0.0,0.0,0.0,0.0,0.0,0.0,0.0,0.0,1.0294,1.0855,1.0929,1.0822,0.0,0.0,0.0,0.0,0.0,0.0,0.0,0.0,0.0,1.5615,1.7315,1.8985,2.0459,2.1318,2.1738,2.1758,2.1758,2.1211,2.0061,1.7542,1.6296,1.5854,0.0,0.0,0.0,0.0,0.0,0.0,0.0,0.0,0.0,0.0,0.0,0.0,0.0,0.0,0.0,0.0,0.0,0.0,0.0,0.0,0.0,0.0,0.0,0.0,0.0,0.0,0.0,0.0,0.0,0.0,0.0,0.0,0.0,0.0,0.0,0.0,0.0,0.0,0.0,1.3086,1.5794,0.0,0.0,0.0,0.0,1.5485,1.5661,1.6634,1.8697,1.7832,1.6817,1.5733,1.7213,2.0388,2.5565,2.553,2.5446,2.5342,2.5448,2.5522,2.5553,2.5563,2.5611,2.557,2.5312,2.4307,2.2393,1.7618,1.4999,1.3901,1.3056,1.2903,1.3046,1.2779,1.2879,1.3028,0.0,0.0,0.0,0.0,0.0,0.0,0.0,0.0,0.0,0.0,0.0,0.0,0.0,1.0848,1.182,1.3199,1.3302,1.3233,1.3121,0.0,0.0,0.0,0.0,0.0,0.0,0.0,1.5068,1.8002,1.9793,2.0999,2.1836,2.2422,2.2695,2.2695,2.2695,2.2373,2.1689,1.9639,1.8085,1.6806,1.4597,1.3415,0.0,0.0,0.0,0.0,0.0,0.0,0.0,0.0,0.0,0.0,0.0,0.0,0.0,0.0,0.0,0.0,0.0,0.0,0.0,0.0,0.0,0.0,0.0,0.0,0.0,0.0,0.0,0.0,0.0,0.0,0.0,0.0,0.0,0.0,0.0,0.0,0.0,1.7073,1.9112,0.0,1.7229,1.6792,1.6624,1.6669,1.892,1.958,1.8146,1.9493,1.8894,1.5912,1.9288,2.3178,2.7354,2.738,2.6844,2.5666,2.566,2.5701,2.5701,2.5701,2.5731,2.5713,2.5712,2.5352,2.4488,2.1361,1.8748,1.6746,1.6437,1.6163,1.6012,1.5294,1.5289,1.5418,0.0,0.0,0.0,0.0,0.0,0.0,0.0,0.0,0.0,0.0,0.0,1.0159,1.1397,1.2011,1.3219,1.5357,1.4957,1.4553,1.4731,0.0,0.0,0.0,0.0,0.0,0.0,1.4928,1.7064,1.9941,2.1387,2.2314,2.2734,2.3008,2.3135,2.3144,2.3291,2.3125,2.2656,2.165,2.0068,1.8115,1.6208,1.539,1.5119,0.0,0.0,0.0,0.0,0.0,0.0,0.0,0.0,0.0,0.0,0.0,0.0,0.0,0.0,0.0,0.0,0.0,0.0,0.0,0.0,0.0,0.0,0.0,0.0,0.0,0.0,0.0,0.0,0.0,0.0,0.0,0.0,0.0,0.0,1.7215,1.9439,2.008,2.1816,2.2107,1.9904,2.0132,2.0161,1.9642,2.1432,2.1935,2.0322,2.2075,2.1863,1.9222,2.2281,2.5352,2.8297,2.832,2.7772,2.656,2.6589,2.6608,2.6608,2.6608,2.6594,2.6562,2.6005,2.5674,2.5594,2.389,2.2158,2.0413,1.9436,1.8899,1.8629,1.7544,1.7236,1.7264,0.0,0.0,0.0,0.0,0.0,0.0,0.0,0.0,0.0,0.0,0.8991,1.0653,1.306,1.3347,1.4431,1.7326,1.5684,1.4759,1.5284,1.2577,0.0,0.0,0.0,0.0,1.4119,1.6432,1.8863,2.1279,2.2119,2.2744,2.3135,2.3154,2.3154,2.3174,2.3702,2.3663,2.3203,2.3633,2.2353,1.9902,1.8184,1.7705,1.7793,0.0,0.0,0.0,0.0,0.0,0.0,0.0,0.0,0.0,0.0,0.0,0.0,0.0,0.0,0.0,0.0,0.0,0.0,0.0,0.0,0.0,0.0,0.0,0.0,0.0,0.0,0.0,0.0,0.0,0.0,0.0,0.0,0.0,1.7,1.9297,2.1193,2.1948,2.3906,2.4521,2.2822,2.313,2.3697,2.4409,2.3299,2.3466,2.5614,2.5772,2.5815,2.5805,2.5729,2.6705,2.8503,2.8503,2.8492,2.8259,2.834,2.8288,2.8299,2.8299,2.8299,2.8238,2.6481,2.5762,2.5685,2.5198,2.4964,2.4726,2.197,2.0945,2.0745,1.9303,1.8724,1.8476,0.0,0.0,0.0,0.0,0.0,0.0,0.0,0.0,0.0,0.0,0.9826,1.1692,1.3653,1.5076,1.69,1.958,1.8175,1.7133,1.7222,0.0,0.0,0.0,0.0,0.0,1.7334,1.8478,2.0084,2.2158,2.2705,2.3027,2.3144,2.4374,2.4943,2.4974,2.544,2.5575,2.5372,2.4534,2.3828,2.2978,2.0635,1.9199,1.8261,0.0,0.0,0.0,0.0,0.0,0.0,0.0,0.0,0.0,0.0,0.0,0.0,0.0,0.0,0.0,0.0,0.0,0.0,0.0,0.0,0.0,0.0,0.0,0.0,0.0,0.0,0.0,0.0,0.0,0.0,0.0,1.7501,2.0154,1.9799,2.2368,2.4675,2.5527,2.6934,2.7314,2.5908,2.6174,2.6189,2.5391,2.579,2.5919,2.5685,2.6902,2.7627,2.7629,2.7599,2.9764,3.4113,3.4214,3.2194,2.8284,2.8304,2.8267,2.8354,2.8354,2.8321,2.8301,2.7772,2.7261,2.6657,2.6131,2.6016,2.58,2.4051,2.327,2.2833,2.152,1.9751,1.7749,0.0,0.0,0.0,0.0,0.0,0.0,0.0,0.0,0.0,0.0,1.0074,1.2255,1.4648,1.5728,1.7443,2.0375,1.8448,1.7069,1.72,0.0,0.0,0.0,0.0,1.6374,1.9034,2.0071,2.124,2.2773,2.3018,2.3475,2.4159,2.518,2.6107,2.702,2.7442,2.7749,2.7659,2.6517,2.5936,2.5623,2.3584,2.206,2.0819,1.9039,1.7924,1.7042,1.534,1.4405,1.3731,1.2457,0.0,0.0,0.0,0.0,0.0,0.0,0.0,0.0,0.0,0.0,0.0,0.0,0.0,0.0,0.0,0.0,0.0,0.0,0.0,0.0,0.0,0.0,0.0,0.0,2.0438,2.3243,2.3832,2.5625,2.7109,2.7978,2.874,2.8906,2.8154,2.8184,2.8096,2.7342,2.7593,2.7487,2.6793,2.7757,2.8351,2.8321,3.0551,3.3242,3.6417,3.6451,3.4272,2.9961,2.8889,2.8321,2.8291,2.8291,2.83,2.8325,2.8291,2.8053,2.7521,2.6976,2.678,0.0,0.0,0.0,0.0,0.0,2.107,1.8839,0.0,0.0,0.0,0.0,0.0,0.0,0.0,0.0,0.0,0.0,0.0,1.2618,1.5463,1.5806,1.7098,2.0246,1.7537,1.5834,0.0,0.0,0.0,1.4571,1.6387,1.8192,1.9855,2.1347,2.2393,2.3135,2.3184,2.3984,2.5643,2.5847,2.714,2.9192,2.9636,2.9988,3.0057,2.9113,2.8381,2.7694,2.652,2.5408,2.4277,2.2334,2.1096,2.0333,1.8945,1.7343,1.58,1.523,0.0,0.0,0.0,0.0,0.0,0.0,0.0,0.0,0.0,0.0,0.0,0.0,0.0,0.0,0.0,0.0,0.0,0.0,0.0,0.0,0.0,0.0,0.0,0.0,2.3048,2.5895,2.8368,2.8858,2.9055,2.9551,2.9687,2.9697,2.9648,2.9468,2.9317,2.9512,2.9072,2.8828,2.8966,0.0,0.0,0.0,0.0,3.6813,3.68,3.6727,3.5342,3.269,3.0097,2.867,2.833,2.834,2.834,2.833,2.8325,2.8291,2.8261,2.7693,2.7334,2.6924,2.6074,2.5742,2.5518,2.4095,2.2416,2.077,0.0,0.0,0.0,0.0,0.0,0.0,0.0,0.0,0.0,0.7882,1.068,1.3048,1.4255,1.6332,1.8237,1.9878,1.8189,1.6799,0.0,0.0,1.6042,1.8203,1.9338,2.0556,2.1932,2.2551,2.2969,2.3135,2.3496,2.4295,2.5665,2.7403,2.9158,3.0927,3.1368,3.1828,3.2217,3.0981,2.9818,2.8768,2.8494,2.6962,2.4853,2.4092,2.3281,2.2322,2.0379,1.9616,1.9342,1.7467,1.6835,1.6623,1.5413,0.0,0.0,0.0,0.0,0.0,0.0,0.0,0.0,0.0,0.0,0.0,0.0,0.0,0.0,0.0,0.0,0.0,0.0,0.0,0.0,2.3222,2.6096,2.8849,3.1292,3.1979,3.1595,3.0201,3.041,3.0488,3.0107,2.9925,2.9653,2.926,3.0638,3.1934,3.2833,2.9922,3.0324,3.469,3.7596,3.9032,3.9098,3.8513,3.722,3.5145,0.0,0.0,2.8319,2.8308,2.8356,2.8337,2.834,2.831,2.828,2.8137,2.7732,2.6924,2.6074,2.5742,2.545,2.3564,2.2542,2.2028,0.0,0.0,0.0,0.0,0.0,0.0,0.0,0.0,0.0,0.0,1.0315,1.246,1.3583,1.5274,1.6793,1.792,1.6621,0.0,0.0,1.6279,1.7559,2.0156,2.0879,2.1728,2.2803,2.3027,2.3135,2.3135,2.4165,2.544,2.6889,2.9121,3.1181,3.3073,3.3624,3.4151,3.4572,3.3549,3.2764,3.1961,3.0574,2.9268,2.7974,2.632,2.5185,2.4263,2.3242,2.246,2.1671,2.0311,1.9533,1.8934,1.7626,1.6096,1.4382,0.0,0.0,0.0,0.0,0.0,0.0,0.0,0.0,0.0,0.0,0.0,0.0,0.0,0.0,1.7028,1.789,0.0,2.3975,2.6535,2.9222,3.1774,3.3537,3.3914,3.3663,3.2875,3.2941,3.2993,3.2752,3.2238,3.2031,3.2211,3.3377,3.4151,3.428,3.2916,3.3299,3.6021,3.8413,3.9537,3.9188,3.8791,3.7678,3.5974,3.4543,3.2147,2.9134,2.8857,2.862,2.8314,2.832,2.8291,2.8281,2.8327,2.7996,2.7588,2.6953,2.6572,2.6199,2.4944,2.4381,2.4068,0.0,0.0,0.0,0.0,0.0,0.0,0.0,0.0,0.0,0.0,0.0,1.1542,1.289,1.3804,1.4669,0.0,0.0,0.0,0.0,1.7113,1.8779,2.1367,2.1894,2.249,2.3242,2.3427,2.3554,2.3389,2.5352,2.7042,2.8429,3.069,3.2804,3.4901,3.5353,3.5855,3.6383,3.5698,3.5278,3.4869,3.2616,3.1599,3.1052,2.8839,2.7212,2.5937,2.5605,2.4473,2.3096,2.2744,2.1826,2.0635,1.9478,1.8369,1.7049,1.4572,1.4255,0.0,0.0,0.0,0.0,0.0,0.0,0.0,0.0,1.7218,1.7886,1.886,2.0008,2.1191,2.2092,2.4445,2.7075,2.9677,3.1857,3.3888,3.5643,3.5623,3.56,3.6088,3.5783,3.5598,3.5598,3.4813,3.4593,3.5143,3.5933,3.607,3.5096,3.593,3.6483,3.6591,3.8614,3.9449,3.8842,3.8793,3.8086,3.6729,3.526,3.3156,3.0704,2.9948,2.9033,2.8291,2.8349,2.835,2.8418,2.833,2.834,2.8369,2.7949,2.7578,2.7197,2.6699,2.6279,2.582,0.0,0.0,0.0,0.0,0.0,0.0,0.0,0.0,0.0,0.0,0.0,0.0,0.0,0.0,0.0,0.0,0.0,0.0,1.685,1.7877,1.9658,2.2256,2.2773,2.3223,2.3711,2.4815,2.4999,2.4268,2.7538,2.9296,2.9466,3.1679,3.3715,3.5454,3.5424,3.5855,3.6358,3.6313,3.5549,3.4469,3.4162,3.3235,3.2095,3.1827,2.9695,2.667,2.5117,2.3965,2.3154,2.3086,2.248,2.1787,2.1977,2.0795,1.9084,1.7842,0.0,1.507,1.5007,1.5488,1.6164,1.6598,1.675,1.7499,0.0,2.0467,2.0644,2.2076,2.3556,2.4763,2.5377,2.7176,2.9431,3.2392,3.2972,3.422,3.754,3.7559,3.7725,3.9037,3.7643,3.6587,3.6587,3.6443,3.5916,3.4791,3.6909,3.7786,3.6588,3.7653,3.8602,3.9253,3.9584,3.9712,3.9534,3.9572,3.9456,3.929,3.7839,3.5807,3.331,3.1478,2.9806,2.8274,2.8339,2.8633,2.9105,2.8574,2.8516,2.8809,2.8389,2.8193,2.8057,2.7246,2.6773,2.6483,0.0,0.0,0.0,0.0,0.0,0.0,0.0,0.0,0.0,0.0,0.0,0.0,0.0,0.0,0.0,0.0,0.0,0.0,1.689,1.828,2.0166,2.2764,2.3047,2.335,2.3779,2.4296,2.4854,2.5472,2.8302,2.9966,3.0722,3.3204,3.4842,3.5567,3.6207,3.6634,3.6885,3.7538,3.7518,3.6972,3.5809,3.4952,3.4159,3.1886,2.9674,2.7631,2.6403,2.4866,0.0,0.0,2.1797,2.1533,2.1709,2.105,1.9869,1.8184,1.7769,0.0,1.8675,1.8492,1.8366,1.9815,2.0912,2.205,2.3542,2.4322,2.5125,2.6185,2.7272,2.8306,2.8754,3.0214,3.2072,3.4094,3.5413,3.6784,3.8819,3.9246,3.9161,3.8516,3.8074,3.7968,3.8437,3.8473,3.821,3.7625,3.8644,3.8993,3.8472,3.8988,3.9421,3.9685,3.9697,3.9697,3.9697,3.9697,3.9697,3.9685,3.8243,3.6514,3.4637,3.2617,3.0621,2.8603,2.8809,2.8908,2.9025,2.8476,2.8535,2.8877,2.8457,2.8291,2.8223,2.7617,2.7373,2.7221,0.0,0.0,0.0,0.0,0.0,0.0,0.0,0.0,0.0,0.0,0.0,0.0,0.0,0.0,0.0,0.0,0.0,0.0,0.0,1.8052,2.0205,2.2685,2.3464,2.4027,2.4476,2.5293,2.6251,2.7377,2.9852,3.1384,3.2105,3.4552,3.5768,3.5818,3.6759,3.7186,3.7249,3.8216,3.8542,3.8266,3.6895,3.6045,3.5306,3.2043,2.9869,2.8345,2.6648,2.4682,0.0,0.0,2.0615,2.0537,2.0664,2.0557,2.0119,1.8516,1.9058,2.0234,2.0879,2.0751,2.0917,2.2717,2.4512,2.5957,2.6641,2.7705,2.8799,2.9639,3.0537,3.1162,3.1391,3.2644,3.4181,3.5617,3.7126,3.8514,3.9728,4.0165,3.9584,3.7842,3.7929,3.8392,3.8956,3.9283,3.9534,3.9685,3.9697,3.976,3.991,3.9772,3.9835,4.0136,3.9848,3.9785,3.9948,3.9785,3.9697,3.9697,3.8582,3.7145,3.5167,3.2918,3.0762,2.9101,2.9251,2.9241,2.9062,2.8643,2.8789,2.9199,2.8555,2.8359,2.8418,2.7998,2.7842,2.7793,0.0,0.0,0.0,0.0,0.0,0.0,0.0,0.0,0.0,0.0,0.0,0.0,0.0,0.0,0.0,0.0,0.0,0.0,0.0,1.717,1.9629,2.1826,2.4255,2.5756,2.623,2.8992,3.0283,3.0068,3.3059,3.4274,3.3625,3.5466,3.6332,3.6358,3.6923,3.7186,3.7224,3.7789,3.7726,3.7236,3.7211,3.615,3.4598,3.3446,3.1317,2.8396,2.4867,0.0,0.0,0.0,1.9072,1.8789,1.9209,1.9619,0.0,1.9808,2.0195,2.0547,2.0576,2.1807,2.3389,2.4678,2.6299,2.791,2.917,3.0146,3.1035,3.1894,3.2879,3.3456,3.2913,3.4181,3.5727,3.7133,3.7477,3.8224,4.019,3.9584,3.8693,3.8065,3.755,3.7236,0.0,3.8253,3.912,3.9647,3.9697,3.9923,4.0463,3.9986,4.0187,4.1254,4.0249,4.009,4.0706,4.0102,3.9697,3.9697,3.9685,3.8149,3.5167,3.183,3.0074,2.9551,2.9551,2.9551,2.9512,2.9082,2.9394,3.0039,2.8779,2.8545,2.8848,2.8428,2.8271,2.8271,0.0,0.0,0.0,0.0,0.0,0.0,0.0,0.0,0.0,0.0,0.0,0.0,0.0,0.0,0.0,0.0,0.0,0.0,0.0,1.6842,1.9219,2.0527,2.3474,2.5325,2.5788,2.783,2.9466,3.0842,3.2304,3.3235,3.3897,3.5194,3.5818,3.5855,3.6772,3.7186,3.7224,3.7776,3.8128,3.8178,3.6697,3.5994,3.5516,3.2566,2.9459,2.6285,0.0,0.0,0.0,0.0,1.7686,1.7832,1.7978,1.8311,1.876,1.9326,1.9795,2.073,2.3443,2.5524,2.7516,3.0056,3.1793,3.3258,3.4253,3.4906,3.5274,3.5263,3.4599,3.3889,3.3291,3.3589,3.4385,3.5596,3.6945,3.8348,3.9731,3.9647,3.8931,3.7613,3.7613,3.7588,0.0,0.0,0.0,3.9626,4.0014,4.035,4.0694,4.0714,4.0953,4.1329,4.0626,4.0337,4.0563,3.9986,3.9697,3.9697,3.7713,3.6823,3.6692,3.3561,3.1932,3.1501,3.1501,3.0852,2.9951,2.9521,2.9687,3.0127,2.9414,2.9043,2.8935,2.9082,2.8779,2.8291,0.0,0.0,0.0,0.0,0.0,0.0,0.0,0.0,0.0,0.0,0.0,0.0,0.0,0.0,0.0,0.0,0.0,0.0,0.0,0.0,1.7658,1.8965,2.1959,2.3831,2.4293,2.5984,2.7702,2.9504,3.0131,3.105,3.2453,3.3545,3.4161,3.4399,3.5516,3.6006,3.6044,3.6596,3.6697,3.6345,3.4713,3.3571,3.2516,2.9428,2.6321,0.0,0.0,0.0,0.0,1.6819,1.6553,1.6943,1.71,1.7969,1.8893,1.8845,2.0367,2.2818,2.608,2.8766,3.1175,3.3828,3.5538,3.6658,3.712,3.7376,3.726,3.6273,3.5395,3.4377,3.3232,3.3156,3.3618,3.4981,3.6121,3.7437,3.9157,3.922,3.8693,3.76,3.7613,3.7575,3.7211,0.0,0.0,3.9614,4.019,4.0626,4.0983,4.1178,4.1517,4.1907,4.1204,4.0683,4.0633,3.9952,3.9706,3.9697,3.7263,3.6271,3.6595,3.4725,3.304,3.1625,3.2329,3.1769,3.0176,2.9902,3.0049,3.0391,2.9795,2.9492,2.9394,2.9521,2.9539,2.9447,0.0,0.0,0.0,0.0,0.0,0.0,0.0,0.0,0.0,0.0,0.0,0.0,0.0,0.0,0.0,0.0,0.0,0.0,0.0,0.0,0.0,1.7132,1.9822,2.1498,2.1878,2.3718,2.5231,2.6377,2.6904,2.7971,2.9566,3.0608,3.1373,3.1926,3.3018,3.3533,3.3596,3.4098,3.3407,3.1951,3.1311,2.9189,2.6294,2.4556,0.0,0.0,0.0,0.0,0.0,1.5682,1.5801,1.6269,1.6719,1.8564,2.0265,1.8646,2.1939,2.6579,2.8591,3.1495,3.4497,3.6234,3.7666,3.8585,3.8003,3.7695,3.7061,3.5335,3.5246,3.4793,3.2559,3.2625,3.352,3.5152,3.5115,3.5843,3.8567,3.8504,3.8165,3.814,3.7676,3.7349,3.7349,3.7826,0.0,3.9735,0.0,4.0814,4.1392,4.143,4.1894,4.2949,4.1932,4.1209,4.0869,4.0115,3.9723,3.9685,3.8243,3.6823,3.5508,3.5398,3.3598,3.0586,3.2437,3.2055,3.0234,3.0234,3.0488,3.081,2.9971,2.9863,3.0146,2.9878,3.0681,3.1531,0.0,0.0,0.0,0.0,0.0,0.0,0.0,0.0,0.0,0.0,0.0,0.0,0.0,0.0,0.0,0.0,0.0,0.0,0.0,0.0,0.0,0.0,0.0,0.0,0.0,0.0,0.0,0.0,0.0,2.5674,2.6101,2.6766,2.7143,2.7318,2.8034,2.8586,2.895,2.8674,2.8787,2.9001,0.0,2.6226,2.5586,0.0,0.0,0.0,0.0,0.0,0.0,0.0,1.71,1.8057,1.8496,1.9521,2.084,2.1974,2.5035,2.8793,3.2051,3.5663,3.905,4.1306,4.2193,4.2238,4.1712,4.0343,3.8636,3.699,3.4715,3.2512,3.0762,3.1215,3.2227,3.3508,3.5655,3.7852,3.9823,4.0325,4.0337,3.9923,3.9747,3.9672,3.9672,3.9785,0.0,0.0,4.1279,4.1543,4.2509,4.2559,4.2685,4.2974,4.2308,4.1932,4.1894,4.0808,4.0082,3.9685,3.8243,3.7914,3.8594,3.7477,3.5865,3.4007,3.4571,3.324,3.0713,3.0713,3.0781,3.0869,3.0644,3.041,3.0329,3.1758,3.2069,3.1898,0.0,0.0,0.0,0.0,0.0,0.0,0.0,0.0,0.0,0.0,0.0,0.0,0.0,0.0,0.0,0.0,0.0,0.0,0.0,0.0,0.0,0.0,0.0,0.0,0.0,0.0,0.0,0.0,0.0,0.0,0.0,2.2651,2.3138,2.3381,2.3928,2.4408,2.4664,0.0,0.0,0.0,0.0,0.0,0.0,0.0,0.0,0.0,0.0,0.0,0.0,0.0,1.8887,1.9545,1.9955,2.1467,2.3506,2.5421,2.8733,3.2527,3.6059,3.9435,4.2418,4.3762,4.3978,4.3401,4.1882,4.0011,3.7776,3.4889,3.2616,3.057,2.8674,2.9026,3.0269,3.2365,3.4462,3.686,3.9747,4.0425,4.0676,4.0852,4.1091,4.1059,4.0682,4.0906,4.1308,4.1805,4.1953,4.2434,4.3288,4.3488,4.3488,4.3338,4.2798,4.2396,4.2158,4.1304,4.0601,4.0061,3.9266,3.8802,3.8687,3.7902,3.6368,3.4292,0.0,3.2985,3.1005,3.1546,3.1883,3.1872,3.254,3.2705,3.2609,3.3636,3.4164,3.4352,0.0,0.0,0.0,0.0,0.0,0.0,0.0,0.0,0.0,0.0,0.0,0.0,0.0,0.0,0.0,0.0,0.0,0.0,0.0,0.0,0.0,0.0,0.0,0.0,0.0,0.0,0.0,0.0,0.0,0.0,0.0,0.0,0.0,0.0,0.0,0.0,0.0,0.0,0.0,0.0,0.0,0.0,0.0,0.0,0.0,0.0,0.0,0.0,0.0,0.0,2.0879,2.1296,2.1699,2.4258,2.7381,2.8992,3.2618,3.6789,3.9777,4.2602,4.4731,4.4731,4.4154,4.2886,4.0199,3.799,3.5353,3.1235,2.9779,2.8624,2.6615,2.6866,2.8448,3.1687,3.2893,3.4926,3.9295,3.991,4.0337,4.1384,4.207,4.2173,4.1496,4.1942,4.211,4.1806,4.2708,4.3526,4.4155,4.4105,4.3992,4.3689,4.3225,4.271,4.2158,4.1681,4.1178,4.0626,4.0551,3.9581,3.7904,3.7607,3.6042,3.3406,3.318,3.2426,3.1334,3.253,3.3191,3.3519,3.4847,3.5288,3.5288,3.5508,3.6379,3.7346,0.0,0.0,0.0,0.0,0.0,0.0,0.0,0.0,0.0,0.0,0.0,0.0,0.0,0.0,0.0,0.0,0.0,0.0,0.0,0.0,0.0,0.0,0.0,0.0,0.0,0.0,0.0,0.0,0.0,0.0,0.0,0.0,0.0,0.0,0.0,0.0,0.0,0.0,0.0,0.0,0.0,0.0,0.0,0.0,0.0,0.0,0.0,0.0,0.0,0.0,2.2529,2.4512,2.5615,2.8035,3.0842,3.2654,3.5826,3.9288,4.142,4.3627,4.5334,4.5334,4.3878,4.1831,3.9534,3.5931,3.234,2.9754,2.7682,2.6076,2.5259,2.6678,2.89,3.175,3.3847,3.6508,4.0501,4.1053,4.1459,4.26,4.3238,4.3714,4.4369,4.4267,4.4236,0.0,4.4736,4.5108,4.58,4.5055,4.4143,4.3137,4.3024,4.271,4.2158,4.207,4.1743,4.1191,4.0727,4.0358,3.9904,3.8224,3.6595,3.4847,3.3631,0.0,3.2747,3.2964,3.3856,3.4958,3.5178,3.5288,3.5398,3.6703,3.7252,3.7618,0.0,0.0,0.0,0.0,0.0,0.0,0.0,0.0,0.0,0.0,0.6569,0.6958,0.0,0.0,0.0,0.0,0.0,0.0,0.0,0.0,0.0,0.0,0.0,0.0,0.0,0.0,0.0,0.0,0.0,0.0,0.0,0.0,0.0,0.0,0.0,0.0,0.0,0.0,0.0,0.0,0.0,0.0,0.0,0.0,0.0,0.0,0.0,0.0,0.0,0.0,2.2559,2.5602,2.8278,3.0553,3.298,3.6588,3.8907,4.1172,4.4059,4.5407,4.5849,4.556,4.3376,4.0501,3.7412,3.3721,3.0168,2.7369,2.5711,2.4594,2.4042,2.5762,2.7959,3.0143,3.1901,3.4537,3.8981,3.8814,3.9352,4.2637,4.389,4.4671,4.52,4.5359,4.5598,4.5717,4.5742,4.5924,4.6301,4.5049,4.3878,4.2999,4.2974,4.2848,4.2585,4.2585,4.2308,4.1756,4.1204,4.0802,4.0395,3.7607,3.5945,3.5189,3.2985,3.2426,3.3191,3.3968,3.5068,3.6487,3.7263,3.7595,3.7701,3.836,3.8687,3.8755,0.0,0.0,0.0,0.0,0.0,0.0,0.0,0.471,0.5574,0.642,0.7289,0.7463,0.6582,0.6514,0.0,0.0,0.0,0.0,0.0,0.0,0.0,0.0,0.0,0.0,0.0,0.0,0.0,1.2666,0.0,0.0,0.0,0.0,0.0,0.0,0.0,0.0,0.0,0.0,0.0,0.0,0.0,0.0,0.0,0.0,0.0,0.0,0.0,0.0,0.0,0.0,2.1725,2.4925,2.8926,3.1763,3.4484,3.8891,4.1057,4.2644,4.5851,4.6552,4.6125,4.5321,4.2622,3.9182,3.5403,3.1622,2.8176,2.5369,2.3951,2.3256,2.3315,2.4616,2.637,2.8525,2.9666,3.2014,3.6964,3.6419,3.7452,4.2698,4.4396,4.5137,4.5404,4.6012,4.6313,4.6313,4.6313,4.6042,4.5585,4.4506,4.3572,4.3011,4.2974,4.2974,4.2974,4.2974,4.276,4.2321,4.1781,4.1001,4.0108,3.7204,3.5544,3.4858,3.2085,3.1516,3.2759,3.4604,3.6395,3.8125,3.9245,3.9697,3.9697,3.9697,3.9697,3.9697,0.0,0.0,0.0,0.0,0.0,0.0,0.0,0.5371,0.6423,0.6398,0.7711,0.8171,0.6924,0.6455,0.0,0.0,0.0,0.0,0.0,0.0,0.0,0.0,0.0,0.0,0.0,0.0,0.0,1.1913,1.1913,0.0,0.0,0.0,0.0,0.0,0.0,1.2881,0.0,0.0,0.0,0.0,0.0,0.0,0.0,0.0,0.0,0.0,0.0,0.0,0.0,0.0,1.9965,2.2192,2.5859,3.0841,3.5719,3.7692,4.0879,4.3824,4.5296,4.5962,4.5937,4.4355,4.1467,3.814,3.4751,3.0022,2.602,2.4987,2.2714,2.1562,2.3567,2.3411,2.4335,0.0,0.0,3.0854,3.5841,3.6358,3.8333,4.3827,4.4623,4.5058,4.6125,4.6276,4.6313,4.6313,4.6313,4.5448,4.3444,4.3155,4.3119,4.2999,4.2974,4.2974,4.2974,4.2974,4.2949,4.2898,4.2346,4.1089,3.9172,3.812,3.6205,3.3857,3.1758,3.1035,0.0,3.414,3.6943,3.9478,3.9697,3.9697,3.9697,3.9697,3.9697,3.9697,0.0,0.0,0.0,0.0,0.0,0.0,0.0,0.5677,0.6697,0.773,0.8561,0.8732,0.7831,0.7275,0.6416,0.0,0.0,0.0,0.0,0.0,0.0,0.0,0.0,0.0,0.0,0.0,0.0,1.1216,1.1616,0.0,0.0,0.0,0.0,0.0,0.0,1.2881,1.2929,0.0,0.0,0.0,0.0,0.0,0.0,0.0,0.0,0.0,0.0,0.0,1.3873,1.5676,1.8087,2.066,2.2199,2.6279,0.0,3.6208,3.9631,4.2359,4.4819,4.5886,4.5912,4.4217,4.1053,3.74,3.3721,2.8876,2.4731,2.342,2.1785,2.0853,2.1776,2.2486,0.0,0.0,0.0,0.0,3.1332,3.2537,3.5194,4.092,4.1027,4.211,4.5905,4.6313,4.6313,4.6313,4.6313,4.5754,4.4389,4.4339,4.4058,4.3501,4.3476,4.3313,4.2974,4.2974,4.2974,4.2974,4.2082,4.1205,4.0389,3.8105,3.6592,3.5472,3.4098,3.3529,0.0,3.4808,3.7013,3.9697,3.9697,3.9697,3.9697,3.9697,3.9697,3.9697,0.0,0.0,0.0,0.0,0.0,0.0,0.5018,0.593,0.7012,0.8485,0.8959,0.9072,0.867,0.7817,0.6883,0.6018,0.0,0.0,0.0,0.0,0.0,0.0,0.0,0.0,0.0,0.0,0.0,0.0,0.0,1.1204,0.0,0.0,1.2559,1.2559,0.0,0.0,0.0,0.0,0.0,0.0,0.0,0.0,0.0,0.0,0.0,0.0,0.0,0.0,0.0,0.0,0.0,0.0,0.0,0.0,0.0,0.0,3.7287,4.0149,4.2999,4.4531,4.492,4.325,4.0149,3.6729,3.3477,2.8322,2.3676,2.2009,2.0563,1.9795,2.0472,2.1564,0.0,0.0,0.0,2.6721,2.8282,2.9536,3.2523,3.8452,3.9901,4.1985,4.5948,4.6263,4.6313,4.6313,4.6313,4.6112,4.5542,4.5366,4.479,4.3827,4.3639,4.3376,4.2974,4.2974,4.2898,4.2735,4.212,4.1339,4.0384,3.8779,3.7405,3.6307,3.6522,3.6645,0.0,3.6602,3.7811,3.9697,3.9697,3.9697,3.9697,3.9697,3.9697,3.9697,0.0,0.0,0.0,0.0,0.0,0.0,0.0,0.6137,0.7389,0.8294,0.8896,0.9183,0.9183,0.7635,0.6838,0.7417,0.0,0.0,0.0,0.0,0.0,0.0,0.0,0.0,0.0,0.0,0.0,0.0,0.0,0.0,0.0,1.1516,1.1814,1.1814,0.0,0.0,0.0,0.0,0.0,0.0,0.0,0.0,0.0,0.0,0.0,0.0,0.0,0.0,0.0,0.0,0.0,0.0,0.0,0.0,0.0,0.0,3.3796,3.7588,3.9295,4.1354,4.261,4.0965,3.8442,3.6058,3.4542,2.8467,2.2777,2.1263,1.8913,1.7833,2.0151,2.0633,2.1167,2.2827,0.0,0.0,2.7837,2.8457,3.1074,3.7313,4.2844,4.6228,4.6326,4.6296,4.6313,4.6313,4.6313,0.0,4.6301,4.5786,4.497,4.384,4.3275,4.2986,4.2974,4.2974,4.2698,4.217,4.2698,4.1385,3.8406,4.0343,3.9104,3.5462,3.8333,3.9625,0.0,3.9685,3.9685,3.9697,3.9697,3.9697,3.9697,3.9697,3.9697,3.9697,0.0,0.0,0.0,0.0,0.0,0.0,0.0,0.5859,0.6707,0.822,0.837,0.8424,0.8624,0.78,0.7148,0.6922,0.0,0.0,0.0,0.0,0.0,0.0,0.0,0.0,0.0,0.0,0.0,0.0,0.0,0.0,0.0,0.0,0.0,1.255,1.203,0.0,0.0,0.0,0.0,0.0,0.0,0.0,0.0,0.0,0.0,0.0,0.0,0.0,0.0,0.0,0.0,0.0,0.0,0.0,0.0,0.0,0.0,3.2561,3.4667,3.9043,4.2031,3.7975,3.628,3.4686,3.1044,2.5714,2.1031,1.8956,1.7114,1.6179,1.6888,1.9916,2.251,2.3031,2.4826,0.0,2.6966,2.7755,2.906,3.1029,4.017,4.6351,4.6282,4.6251,4.6313,4.6313,4.5962,4.5748,4.5748,4.4844,4.4342,4.4367,4.3827,4.3363,4.2974,4.2974,4.2884,4.2713,4.2364,4.1947,4.1473,4.057,3.9526,3.835,3.9241,3.9731,3.9697,3.9697,3.9697,3.9697,3.9697,3.9697,3.9697,3.9697,3.9697,3.9697,0.0,0.0,0.0,0.0,0.0,0.0,0.0,0.5621,0.6244,0.7832,0.7869,0.7869,0.8176,0.7478,0.69,0.6645,0.0,0.0,0.0,0.0,0.0,0.0,0.0,0.0,0.0,0.0,0.0,0.0,0.0,0.0,0.0,0.0,0.0,0.0,0.0,0.0,0.0,0.0,0.0,0.0,0.0,0.0,1.1015,0.0,0.0,0.0,0.0,0.0,0.0,0.0,0.0,0.0,0.0,0.0,0.0,0.0,2.2028,2.6816,3.0278,3.4518,3.7047,3.2984,3.194,3.1053,2.776,2.3508,1.9522,1.71,1.5989,1.6019,1.7958,2.095,2.3132,2.3123,2.5739,2.7738,2.7748,2.7963,2.8214,2.872,3.9126,4.6258,4.6254,4.6263,4.6213,4.5855,4.5635,4.5359,4.5171,4.433,4.4118,4.4355,4.379,4.3375,4.302,4.3008,4.3013,4.3003,4.2138,4.1694,4.1696,4.1167,4.0449,3.9697,3.9697,3.9697,0.0,3.9697,3.9697,3.9697,3.9697,3.9697,3.9697,3.9697,3.9697,3.9697,0.0,0.0,0.0,0.0,0.0,0.0,0.0,0.0,0.0,0.0,0.739,0.7497,0.7789,0.6874,0.6322,0.0,0.0,0.0,0.0,0.0,0.0,0.0,0.0,0.0,0.0,0.0,0.0,0.0,0.8424,0.9193,1.0531,0.0,0.0,0.0,0.0,0.0,0.0,0.0,0.0,0.0,0.0,0.0,0.0,0.0,0.0,0.0,0.0,0.0,0.0,0.0,0.0,0.0,0.0,0.0,0.0,0.0,0.0,0.0,0.0,2.8082,2.8323,2.6404,2.5768,2.5372,2.4534,2.1518,0.0,1.5914,1.541,1.6878,2.1646,2.27,2.2908,2.3092,2.6607,2.9428,2.977,2.9567,2.9739,3.0592,3.9978,4.6257,4.6173,4.6254,4.6062,4.5329,4.5229,4.4978,4.4606,4.4231,4.408,4.4055,4.3362,4.3008,4.2899,4.2848,4.2856,4.2785,4.1795,4.0739,3.9735,4.1851,4.1631,0.0,3.9697,3.9697,0.0,3.9697,3.9697,3.9697,3.9697,3.9697,3.9697,3.9697,3.9697,3.9697,0.0,0.0,0.0,0.0,0.0,0.0,0.0,0.0,0.0,0.0,0.0,0.6681,0.7141,0.698,0.0,0.0,0.0,0.0,0.0,0.0,0.0,0.0,0.0,0.0,0.0,0.0,0.0,0.8036,0.8938,0.9709,1.0376,1.1704,0.0,0.0,0.0,0.0,0.0,0.0,0.0,0.0,0.0,0.0,0.0,0.0,0.0,0.0,0.8804,0.9562,0.0,0.0,0.0,0.0,0.0,0.0,0.0,0.0,1.4718,1.6835,1.9371,0.0,1.9047,2.004,2.012,1.9531,0.0,0.0,0.0,0.0,0.0,1.5772,1.7022,1.9061,2.1146,2.284,2.4006,2.5902,2.9341,3.6849,4.1452,4.0078,4.3651,4.5808,4.4686,4.5678,4.627,4.6091,4.5263,4.4747,4.4611,4.3702,4.331,4.328,4.3127,4.2789,4.2133,4.1572,4.1361,4.1275,4.1351,4.0723,3.971,4.0206,4.0181,3.9697,3.9697,3.9697,3.9697,3.9697,3.9697,3.9697,3.9697,3.9697,3.9697,3.9697,3.9697,3.9697,0.0,0.0,0.0,0.0,0.0,0.0,0.0,0.0,0.0,0.0,0.0,0.0,0.0,0.0,0.0,0.0,0.0,0.0,0.0,0.0,0.0,0.0,0.0,0.0,0.0,0.0,0.0,0.0,0.0,1.0386,0.0,0.0,0.0,0.0,0.0,0.0,0.0,0.0,0.0,0.0,0.9361,0.0,0.0,0.0,0.0,0.0,0.8804,0.9465,0.0,1.0712,1.1525,1.2452,0.0,0.0,0.0,0.0,1.3502,1.4409,1.5519,1.6242,1.6984,1.8194,1.8187,1.7675,1.6722,0.0,0.0,0.0,0.0,1.5371,1.539,2.0317,2.4124,2.3268,2.3977,2.6576,3.2084,3.8859,4.356,4.4416,4.4624,4.4882,4.5128,4.5335,4.5479,4.5326,4.439,4.3839,4.3853,4.3035,4.2632,4.3034,4.2023,4.1562,4.16,4.0752,4.0327,4.0316,4.0496,4.0307,3.9697,3.9697,3.9697,3.9697,3.9697,3.9697,3.9697,3.9697,3.9697,3.9697,3.9697,3.9697,3.9697,3.9697,3.9697,3.9697,0.0,0.0,0.0,0.0,0.0,0.0,0.0,0.0,0.0,0.0,0.0,0.0,0.0,0.0,0.0,0.0,0.0,0.0,0.0,0.0,0.0,0.0,0.0,0.0,0.0,0.0,0.0,0.0,0.0,0.0,0.0,0.0,0.0,0.0,0.0,0.0,0.0,0.0,0.0,0.0,0.8804,0.0,0.0,0.0,0.0,0.0,0.0,0.0,0.0,1.0618,1.1351,1.2162,1.2735,0.0,0.0,0.0,0.0,0.0,1.3779,1.6005,1.8174,1.8283,1.8002,1.7688,1.7544,0.0,0.0,0.0,0.0,0.0,1.6224,2.3085,2.7742,2.4607,2.6334,3.0157,3.6361,3.8994,4.1513,4.5233,4.4294,4.4024,4.5617,4.5017,4.4494,4.4149,4.346,4.2937,4.2712,4.2173,4.2032,4.246,4.0652,4.014,4.1098,4.0195,3.9661,3.9697,3.9697,3.9697,3.9697,3.9697,3.9697,3.9697,0.0,0.0,3.9697,3.9697,3.9647,3.9572,3.9572,3.9509,3.9446,3.9534,3.9572,3.9584,0.0,0.0,0.0,0.0,0.0,0.0,0.0,0.0,0.0,0.0,0.0,0.0,0.0,0.0,0.0,0.0,0.0,0.0,0.0,0.0,0.0,0.0,0.0,0.0,0.0,0.0,0.0,0.0,0.0,0.0,1.0438,1.2789,1.3602,0.0,0.0,0.0,0.0,0.0,0.0,0.0,0.8804,0.0,0.0,0.0,0.0,0.0,0.0,0.0,0.0,1.0771,1.1906,1.3188,1.2988,0.0,0.0,0.0,0.0,0.0,1.4736,1.6315,1.7423,1.6963,1.7165,1.7273,1.6513,0.0,0.0,0.0,0.0,0.0,0.0,2.2256,2.5172,2.8261,3.2186,3.6328,4.0501,4.1852,4.2548,4.2549,4.3903,4.4455,4.3609,4.4161,4.4505,4.4155,4.3449,4.2587,4.1581,4.1444,4.0997,4.0246,3.9891,3.9773,3.9976,3.9798,3.9747,3.9697,3.9697,3.9697,3.9697,3.9697,3.9697,3.9697,0.0,3.9697,3.9697,3.9697,3.9421,3.8994,3.8994,3.8693,3.8329,3.8818,3.8994,3.9057,0.0,0.0,0.0,0.0,0.0,0.0,0.0,0.0,0.0,0.0,0.0,0.0,0.0,0.0,0.0,0.0,0.0,0.0,0.0,0.0,0.0,0.0,0.0,0.0,0.0,0.0,0.0,0.0,0.0,1.2226,1.26,1.3537,1.3835,1.3547,0.0,0.0,0.0,0.0,0.0,0.0,0.0,0.0,0.0,0.0,0.0,0.0,0.0,0.0,0.0,0.0,1.1234,1.2386,1.2221,0.0,0.0,0.0,0.0,0.0,1.4184,1.54,1.6292,1.6267,1.7526,1.8525,1.7646,1.7346,0.0,0.0,0.0,0.0,0.0,2.5901,2.9023,3.3515,3.6109,3.8436,4.0941,4.0543,4.053,4.1901,4.2812,4.3526,4.3811,4.3763,4.3639,4.3539,4.2624,4.1876,4.1364,4.1051,4.0821,4.0551,4.0032,3.9744,3.9697,3.9697,3.9697,3.9697,3.9697,3.9697,3.9697,3.9697,3.9697,3.9697,0.0,3.9496,3.908,3.9233,3.8919,3.8404,3.8404,3.8241,3.8078,3.8655,3.9057,3.9346,0.0,0.0,0.0,0.0,0.0,0.0,0.0,0.0,0.0,0.0,0.0,0.0,0.0,0.0,0.0,0.0,0.0,0.0,0.0,0.0,0.0,0.0,0.0,0.0,0.0,0.0,0.7788,1.0129,1.2054,1.3617,1.4672,1.3968,1.3654,0.0,0.0,0.0,0.0,0.0,0.0,0.0,0.0,0.0,0.0,0.0,0.0,0.0,0.0,0.0,0.0,0.0,0.0,0.0,0.0,0.0,0.0,1.2939,1.2881,1.3008,1.342,1.4518,1.5723,1.6336,0.0,1.9321,1.9332,1.9014,0.0,0.0,0.0,0.0,0.0,2.9295,3.3038,3.7387,3.8457,3.9277,4.0939,3.9634,3.9593,4.2098,4.2111,4.2499,4.3889,4.3087,4.2597,4.2597,4.1819,4.1279,4.1153,4.0752,4.0644,4.0891,4.0102,3.9697,3.9697,3.9697,3.9697,3.9697,3.9697,3.9697,3.9697,3.9697,3.9431,3.8963,3.9166,3.898,3.8329,3.863,3.8329,3.7814,3.7814,3.7814,3.7864,3.8316,3.8919,3.9496,0.0,0.0,0.0,0.0,0.0,0.0,0.0,0.0,0.0,0.0,0.0,0.0,0.0,0.0,0.0,0.0,0.0,0.0,0.0,0.0,0.0,0.0,0.0,0.0,0.0,0.6453,0.7862,0.9994,1.1688,1.3236,1.4684,1.3228,1.2521,1.2525,0.0,0.0,0.0,0.0,0.0,0.0,0.0,0.0,0.0,0.0,0.0,0.0,0.0,0.0,0.0,0.0,0.0,0.0,0.0,0.0,1.3851,1.3126,1.2881,1.2937,1.2951,1.4494,1.6296,1.739,1.7614,0.0,2.0955,2.124,0.0,2.4427,0.0,0.0,0.0,2.9695,3.3525,3.7857,3.8766,3.9611,4.1776,4.1919,4.2136,4.2811,4.2536,4.2173,4.209,4.1726,4.1455,4.1455,4.1379,4.1116,4.0601,4.0538,4.0287,3.9798,3.9722,3.9697,3.9697,3.9697,3.9697,3.9697,3.9697,3.9697,3.9697,3.9697,3.8559,3.6703,3.7701,3.7916,3.758,3.7916,3.7751,3.7249,3.7249,3.7249,3.7249,3.7299,3.799,3.8931,0.0,0.0,0.0,0.0,0.0,0.0,0.0,0.0,0.0,0.0,0.0,0.0,0.0,0.0,0.0,0.0,0.0,0.0,0.0,0.0,0.0,0.0,0.0,0.5417,0.6313,0.7285,0.9308,1.234,1.4193,1.5113,1.5091,1.357,0.0,0.0,0.0,0.0,0.0,0.0,0.0,0.0,0.0,0.0,0.0,0.0,0.0,0.0,0.0,0.0,0.0,0.0,1.041,1.0753,0.0,0.0,1.3297,1.2998,1.2881,1.291,1.2916,1.52,1.7567,1.7582,1.8858,0.0,0.0,2.3361,2.4189,2.5927,2.7882,0.0,0.0,3.261,3.5017,3.7375,3.9209,4.0689,4.153,4.1894,4.1985,4.1926,4.1563,4.1376,4.1551,4.1096,4.0827,4.0827,4.0513,4.0224,4.0011,4.0011,3.991,3.9697,3.9697,3.9697,3.9697,3.9697,3.9,3.7645,3.9018,3.969,3.9664,3.829,3.7991,3.8479,3.8154,3.7828,3.75,3.7648,3.7308,3.6671,3.6671,3.6885,3.7186,3.7186,3.7663,3.8379,0.0,0.0,0.0,0.0,0.0,0.0,0.0,0.0,0.0,0.0,0.0,0.0,0.0,0.0,0.0,0.0,0.0,0.0,0.0,0.0,0.0,0.0,0.0,0.5929,0.6738,0.8226,1.0379,1.3268,1.5153,1.5613,1.464,0.0,0.0,0.0,0.0,0.0,0.0,0.0,0.0,0.6874,0.7241,0.6578,0.0,0.0,0.0,0.0,0.0,0.0,0.0,0.0,1.0319,0.0,0.0,0.0,0.0,0.0,1.2881,1.29,1.29,1.5278,1.8089,0.0,0.0,0.0,2.5315,2.6112,2.6883,2.888,3.0445,3.2031,3.3821,0.0,0.0,3.745,3.9609,4.1141,4.1317,4.151,4.1585,4.1379,4.0996,4.0764,4.1065,4.0576,4.0262,4.0262,3.991,3.9697,3.9697,3.9697,3.9697,3.9697,3.9697,3.975,3.9752,3.9739,3.8778,3.6907,3.8079,3.8617,3.8592,3.7047,3.7233,3.8596,3.7874,3.74,3.7203,3.7203,3.6842,3.6358,3.6358,3.6584,3.6923,3.6923,3.7287,3.7937,0.0,0.0,0.0,0.0,0.0,0.0,0.0,0.0,0.0,0.0,0.0,0.0,0.0,0.0,0.0,0.0,0.0,0.0,0.0,0.0,0.0,0.0,0.0,0.6617,0.7074,0.9192,1.0903,1.2095,1.3886,1.421,1.3068,1.2014,0.0,0.0,0.0,0.0,0.0,0.0,0.0,0.7344,0.682,0.5747,0.4576,0.0,0.0,0.0,0.0,0.0,0.0,0.0,1.1124,0.0,0.0,0.0,0.0,0.0,1.2881,1.291,1.2919,1.459,1.7566,0.0,0.0,0.0,2.9449,2.9591,2.9854,3.3858,3.3859,3.3771,3.5956,3.5479,0.0,3.8404,3.9785,4.0701,4.1254,4.1329,4.1329,4.1329,4.084,4.0513,4.0513,4.0011,3.9697,3.9697,3.9685,3.9685,3.9697,3.9685,3.9685,3.9685,3.9685,3.9739,3.9715,3.9702,3.9082,3.799,3.6933,3.6455,3.6369,3.6369,3.6383,3.6366,3.6366,3.6372,3.6358,3.6358,3.6358,3.6358,3.6358,3.6358,3.6358,3.6358,3.6855,3.7493,0.0,0.0,0.0,0.0,0.0,0.0,0.0,0.0,0.0,0.0,0.0,0.0,0.0,0.0,0.0,0.0,0.0,0.0,0.0,0.0,0.0,0.0,0.0,0.0,0.0,0.0,1.1292,1.2648,1.377,1.3727,0.0,0.0,0.0,0.9762,0.0,0.0,0.0,0.0,0.8234,0.7344,0.682,0.5764,0.4611,0.0,0.0,0.0,0.0,0.0,0.0,0.0,0.0,0.0,0.0,0.0,0.0,1.2909,1.2903,1.2978,1.3221,1.5794,0.0,2.089,0.0,0.0,0.0,3.0273,0.0,0.0,3.5039,3.5127,3.6169,3.6722,0.0,3.7613,3.9283,4.0438,4.0212,4.0513,4.0614,4.0224,4.0036,3.9936,3.9936,3.9785,3.9697,3.9697,3.9333,3.9283,3.9672,3.9168,3.9132,3.9652,3.9652,3.9702,3.9671,3.8116,3.7171,3.6908,3.7089,3.7127,3.7202,3.6668,3.6405,3.6413,3.6413,3.6351,3.6358,3.6358,3.6358,3.6358,3.6358,3.6358,3.6358,3.6358,3.6578,3.6767,0.0,0.0,0.0,0.0,0.0,0.0,0.0,0.0,0.0,0.0,0.0,0.0,0.0,0.0,0.0,0.0,0.0,0.0,0.0,0.0,0.0,0.0,0.0,0.0,0.0,0.9526,1.1088,0.0,0.0,0.0,0.0,0.0,0.0,0.9553,0.0,0.9092,0.0,0.0,0.8495,0.7842,0.6347,0.5245,0.4659,0.0,0.0,0.0,0.0,0.0,0.0,0.0,0.0,0.0,0.0,0.0,0.0,1.2895,1.29,1.311,1.4005,1.7231,0.0,2.2835,2.6355,2.9817,3.1913,0.0,0.0,0.0,3.6659,3.6496,3.75,3.7688,3.7789,3.8128,3.9308,4.0074,3.9747,3.9986,4.0061,3.9735,3.9496,3.9371,3.9371,3.9157,3.9019,3.9019,3.8718,3.8705,3.9196,3.8856,3.8894,3.9699,3.9712,3.928,3.8371,3.7034,3.6405,3.6372,3.6847,3.7031,3.7018,3.6628,3.6358,3.6358,3.6358,3.6358,3.6358,3.6358,3.6358,3.6358,3.6358,3.6358,3.6358,3.6358,3.6358,3.6395,0.0,0.0,0.0,0.0,0.0,0.0,0.0,0.0,0.0,0.0,0.0,0.0,0.0,0.0,0.0,0.0,0.0,0.0,0.0,0.0,0.0,0.0,0.0,0.0,0.0,0.0,0.0,0.0,0.0,0.0,0.0,0.0,1.057,0.9307,0.0,0.9563,0.0,0.8965,0.8786,0.8564,0.5932,0.4721,0.4685,0.6539,0.0,0.0,0.0,0.0,0.0,0.0,0.0,0.0,1.167,1.2206,1.2919,1.289,1.3003,1.3469,1.5143,1.8751,2.3059,2.7013,2.916,0.0,3.3608,3.6169,3.8278,3.927,0.0,3.7877,3.9408,3.8442,3.7914,3.9446,3.9697,3.9697,3.9697,3.9697,3.9672,3.9622,3.9182,3.8856,3.8793,3.8316,3.8002,3.8002,3.7965,3.8126,3.8526,3.8462,3.8748,3.9338,3.9436,3.8481,3.6438,3.64,3.643,3.6414,3.6389,3.6377,3.6377,3.6427,3.6358,3.6358,3.6282,3.6282,3.6414,3.6439,3.6439,3.6414,3.6439,3.6358,3.6358,3.6358,3.6358,3.6358,0.0,0.0,0.0,0.0,0.0,0.0,0.0,0.0,0.0,0.0,0.0,0.0,0.0,0.0,0.0,0.0,0.0,0.0,0.0,0.0,0.0,0.0,0.0,0.0,0.0,0.0,0.0,0.0,0.0,0.0,0.0,0.0,0.0,1.005,0.0,0.9555,0.9605,0.9059,0.8784,0.8738,0.8098,0.6499,0.4602,0.5802,0.7267,0.0,0.0,0.0,0.0,0.0,0.0,0.0,1.2608,1.2752,1.2874,1.2916,1.3856,1.5194,1.6791,2.0245,0.0,2.7127,3.1067,3.4688,3.6144,3.7262,3.7952,3.7764,3.8492,3.927,3.9622,3.9396,3.927,3.9634,3.9697,3.9697,3.9697,3.9697,3.9534,3.9094,3.8944,3.8693,3.8241,3.8078,3.8002,3.8002,3.7761,3.7723,3.8139,3.7292,3.6992,3.7055,3.7152,3.6902,3.6376,3.642,3.6362,3.6392,3.6402,3.6365,3.6378,3.6413,3.6358,3.632,3.5438,3.5574,3.6405,3.6351,3.6407,3.6405,3.6364,3.6358,3.6358,3.6358,3.6358,3.6358,0.0,0.0,0.0,0.0,0.0,0.0,0.0,0.0,0.0,0.0,0.0,0.0,0.0,0.0,0.0,0.0,0.0,0.0,0.0,0.0,0.0,0.0,0.0,0.0,0.0,0.0,0.0,0.0,0.0,0.0,0.0,0.0,0.0,1.0164,0.0,1.0182,1.008,0.9769,0.9328,0.8805,0.8784,0.7919,0.6543,0.6343,0.6992,0.8333,1.0391,0.0,0.0,0.0,0.0,0.0,0.0,0.0,1.2893,1.2915,1.3652,1.5063,1.7642,0.0,0.0,2.9118,0.0,3.583,3.6935,3.7412,3.76,3.7575,3.8492,3.9383,3.9647,3.9697,3.9609,3.9346,3.9295,3.9295,3.9295,3.9057,3.8881,3.8868,3.8529,3.8088,3.7651,3.7374,3.7211,3.7211,3.7094,3.7056,3.7199,3.621,3.5792,3.6395,3.6445,3.6362,3.6383,3.6414,3.5834,3.4844,3.4851,3.4866,3.4879,3.5508,3.5747,3.5554,3.5149,3.5499,3.6442,3.6412,3.6383,3.6396,3.6375,3.642,3.6358,3.6358,3.6358,3.6358,0.0,0.0,0.0,0.0,0.0,0.0,0.0,0.0,0.0,0.0,0.0,0.0,0.0,0.0,0.0,0.0,0.0,0.0,0.0,0.0,0.0,0.0,0.0,0.0,0.0,0.0,0.0,0.0,0.0,0.0,0.0,0.0,0.0,1.0235,0.0,0.0,1.0596,1.0397,0.9698,0.8811,0.8811,0.8778,0.8658,0.7422,0.7236,0.7936,1.0407,1.1519,1.1909,1.2664,0.0,0.0,0.0,0.0,1.2978,1.2922,1.3234,1.438,1.8086,2.1071,2.4765,3.1302,3.4098,0.0,3.6646,3.6897,3.7086,3.7739,3.8316,3.8868,3.932,3.9396,3.9245,3.8793,3.8718,3.8718,3.8718,3.8304,3.8153,3.853,3.7912,3.7321,3.7061,3.6634,3.6358,3.6358,3.6358,3.6307,3.6207,3.5208,3.5064,3.5777,3.5798,3.5826,3.5826,3.5865,3.4906,3.3093,3.3122,3.3097,3.311,3.4322,3.4983,3.5019,3.4944,3.5238,3.584,3.5801,3.6095,3.6399,3.6358,3.6387,3.6358,3.6358,3.6358,3.6358,0.0,0.0,0.0,0.0,0.0,0.0,0.0,0.0,0.0,0.0,0.0,0.0,0.0,0.0,0.0,0.0,0.0,0.0,0.5487,0.0,0.0,0.848,0.8699,0.0,0.0,0.0,0.0,0.0,0.0,0.0,0.0,0.0,0.0,1.1122,0.0,0.0,0.0,0.9491,0.8956,0.8804,0.8818,0.8818,0.8765,0.8586,0.8567,0.8741,0.9964,1.0965,1.1922,1.2665,1.3114,0.0,0.0,0.0,1.3359,1.2988,1.3416,1.4723,1.7935,0.0,2.8687,0.0,3.3232,3.4412,0.0,3.5768,3.6056,3.7086,3.7739,3.814,3.8216,3.8228,3.8203,3.814,3.8115,3.8115,3.8115,3.8052,3.7864,3.7462,3.7287,3.701,3.6521,3.6408,3.6358,3.6358,3.6358,3.6132,3.5524,3.4984,3.4299,3.3526,3.3555,3.3531,3.3531,3.3516,3.3406,3.3106,3.3084,3.312,3.3133,3.3294,3.4413,3.6097,3.4211,3.3431,3.3582,3.3498,3.4648,3.6444,3.6361,3.6387,3.6358,3.6358,3.6358,3.6358,0.0,0.0,0.0,0.0,0.0,0.0,0.0,0.0,0.0,0.0,0.0,0.0,0.0,0.0,0.0,0.4519,0.5113,0.5487,0.5487,0.647,0.7235,0.7563,0.8374,0.8804,0.0,0.0,0.0,0.0,0.0,0.0,0.0,1.0537,1.0889,0.0,0.0,0.0,0.0,0.0,0.8802,0.8795,0.8811,0.8804,0.8804,0.0,0.0,0.0,0.0,0.0,1.2237,1.306,1.3566,1.3867,1.3854,0.0,0.0,0.0,1.4014,1.5371,1.9381,2.3935,2.816,0.0,3.2139,3.3244,3.4361,3.5102,3.568,3.6169,3.6697,3.7274,3.7889,3.8002,3.7902,3.76,3.755,3.755,3.755,3.7274,3.7111,3.7174,3.6609,3.6038,3.5918,3.5462,3.5274,3.5441,3.5621,3.5521,3.4973,3.4214,3.3764,3.3692,3.3344,3.307,3.307,3.3109,3.3121,3.3121,3.3057,3.3081,3.3081,3.3081,3.3631,3.4526,3.3533,3.3121,3.3183,3.4464,3.4755,3.4666,3.5884,3.6172,3.58,3.6245,3.6358,3.6358,0.0,0.0,0.0,0.0,0.0,0.0,0.0,0.0,0.0,0.0,0.0,0.0,0.0,0.0,0.0,0.0,0.4948,0.5324,0.5483,0.6199,0.6696,0.6858,0.8103,0.8804,0.8804,0.0,0.0,0.0,0.0,0.0,0.9916,1.0377,1.1479,0.0,1.3576,0.0,0.0,0.0,0.0,0.0,0.8795,0.8811,0.8804,0.0,0.0,0.0,0.0,0.0,0.0,0.0,1.3952,1.4272,1.4412,1.4398,0.0,0.0,0.0,1.5987,2.0053,0.0,2.5996,2.8637,3.0369,3.1675,3.2805,3.4022,3.4964,3.5102,3.5567,3.6194,3.701,3.74,3.745,3.7048,3.6973,3.6923,3.6784,3.6408,3.6257,3.6521,3.5699,3.5199,3.5341,3.4682,3.4432,3.4713,3.5019,3.4981,3.4525,3.357,3.3308,3.3645,3.3054,3.2654,3.2654,3.2777,3.2912,3.3085,3.3076,3.3126,3.3126,3.3129,3.3081,3.3081,3.3081,3.3081,3.3242,3.4876,3.478,3.3858,3.5502,3.5865,3.5649,3.6194,3.6358,3.6358,0.0,0.0,0.0,0.0,0.0,0.0,0.0,0.0,0.0,0.0,0.0,0.0,0.0,0.4519,0.4519,0.4519,0.4515,0.4842,0.5433,0.6199,0.6912,0.7616,0.8374,0.0,0.8804,0.0,0.0,0.0,0.0,0.0,0.9713,1.0356,1.4011,1.9982,1.8383,1.5048,1.0629,0.0,0.0,0.0,0.0,0.0,0.0,0.0,0.0,0.0,0.0,0.0,0.0,0.0,0.0,0.0,0.0,1.4434,1.4678,0.0,0.0,0.0,0.0,2.0775,2.2805,2.5224,2.7494,2.939,3.0532,3.2039,3.3357,3.3872,3.4424,3.4826,3.4876,3.5742,3.6433,3.6408,3.6408,3.6219,3.5705,3.5604,3.5403,3.4914,3.4801,3.4763,3.4763,3.4738,3.4713,3.4726,3.4726,3.45,3.3972,3.3407,3.2855,3.2315,3.1763,3.1474,3.1474,3.1883,3.2439,3.3062,3.3136,3.3122,3.3122,3.3101,3.3081,3.3081,3.3081,3.3081,3.3081,3.323,3.4035,3.5173,3.5352,3.5739,3.632,3.6358,3.6358,3.6358,0.0,0.0,0.0,0.0,0.0,0.0,0.0,0.0,0.0,0.0,0.0,0.0,0.0,0.4519,0.4519,0.4519,0.4519,0.4625,0.4842,0.5932,0.6696,0.6966,0.8156,0.8891,0.9024,0.0,0.0,0.0,0.0,0.9977,1.0323,1.1262,1.4263,1.8849,1.7081,1.6618,1.6777,1.3207,0.0,0.0,0.0,0.0,0.0,0.0,0.0,0.0,0.0,0.0,0.0,0.0,0.0,0.0,0.0,0.0,0.0,0.0,0.0,1.6754,0.0,0.0,2.1548,2.3953,2.5975,2.7544,2.831,3.0294,3.2051,3.2252,3.3307,3.4198,3.4198,3.4801,3.5316,3.5316,3.5316,3.524,3.5052,3.5014,3.4951,3.4751,3.4412,3.4198,3.4198,3.3872,3.3671,3.3671,3.3319,3.3031,3.283,3.229,3.1901,3.1687,3.1499,3.1267,3.1098,3.1229,3.1217,3.0979,3.1009,3.17,3.3109,3.3072,3.3123,3.3136,3.3089,3.3136,3.3093,3.3133,3.3446,3.3947,3.5017,3.542,3.5391,3.6107,3.6358,3.6358,0.0,0.0,0.0,0.0,0.0,0.0,0.0,0.0,0.0,0.0,0.0,0.0,0.0,0.0,0.4519,0.4519,0.4519,0.4519,0.4519,0.5655,0.6416,0.6588,0.799,0.8898,0.9037,0.0,0.0,0.0,0.0,0.0,0.0,1.192,1.4208,1.7096,1.591,1.6677,0.0,0.0,0.0,1.0629,0.0,0.0,1.217,0.0,0.0,0.0,0.0,0.0,0.0,0.0,0.0,0.0,0.0,0.0,0.0,0.0,0.0,0.0,1.793,0.0,0.0,2.2261,2.4065,2.5536,2.6289,2.8298,3.0118,3.0482,3.175,3.2855,3.3031,3.3357,3.3847,3.46,3.4562,3.4449,3.4449,3.4449,3.4374,3.4198,3.3847,3.3621,3.3621,3.3294,3.3006,3.2805,3.2428,0.0,3.1951,3.1424,3.1047,3.0859,3.0846,3.0728,3.0561,3.0561,3.0288,2.9782,2.9812,3.0574,3.1975,3.1996,3.1965,3.1978,3.2028,3.2399,3.3114,3.3096,3.3084,3.3183,3.4447,3.4876,3.4813,3.5542,3.5918,3.6094,0.0,0.0,0.0,0.0,0.0,0.0,0.0,0.0,0.0,0.0,0.0,0.0,0.0,0.0,0.0,0.4522,0.4522,0.4522,0.4519,0.537,0.6072,0.6593,0.8008,0.8831,0.8791,0.0,0.0,0.0,0.0,0.0,0.0,0.0,1.3783,1.5322,1.539,1.5378,1.5256,0.0,1.3477,1.0891,0.0,1.6406,1.7841,0.0,0.0,0.0,1.6317,1.596,0.0,1.5,0.0,0.0,0.0,0.0,0.0,0.0,0.0,0.0,0.0,0.0,0.0,2.0015,2.1722,2.3315,2.4481,2.6,2.7494,2.8599,2.9729,3.0683,3.1248,3.1336,3.2064,3.4261,3.4173,3.3822,3.3822,3.3822,3.3621,3.3093,3.3031,3.3031,3.3031,3.3031,3.2792,3.2227,3.2177,3.1938,3.1399,3.0871,3.0344,2.9817,2.9792,2.9792,2.9792,2.9792,2.9792,2.9792,2.9804,2.9794,2.9806,2.978,2.9821,2.9821,2.9858,3.1013,3.2975,3.3089,3.3083,3.3144,3.3709,3.4223,3.47,3.4713,3.5064,3.5542,0.0,0.0,0.0,0.0,0.0,0.0,0.0,0.0,0.0,0.0,0.0,0.0,0.0,0.0,0.0,0.4522,0.4515,0.4485,0.4522,0.4743,0.5386,0.657,0.8275,0.9256,0.922,0.0,0.0,0.0,0.0,0.0,0.0,0.0,0.0,0.0,1.4851,1.4096,1.1957,1.1927,0.0,1.1333,1.3011,1.5051,0.0,0.0,0.0,0.0,0.0,1.7164,1.7227,0.0,1.6738,1.6728,0.0,0.0,0.0,0.0,0.0,0.0,1.6322,0.0,0.0,0.0,0.0,0.0,2.2218,2.3703,2.5222,2.6289,2.7419,2.8624,2.998,3.0231,3.0696,3.2089,3.219,3.2089,3.2089,3.2089,3.2026,3.1876,3.1851,3.1851,3.1851,3.1851,3.1788,0.0,3.1273,3.0984,3.0834,3.0319,2.9942,2.9792,2.9792,2.9792,2.9792,2.9792,2.9792,2.9792,2.9814,2.9774,2.9774,2.9783,2.982,2.9858,3.063,3.0897,3.0832,3.2483,3.3089,3.3158,3.3283,3.367,3.4173,3.4575,3.5064,3.5399,0.0,0.0,0.0,0.0,0.0,0.0,0.0,0.0,0.0,0.0,0.0,0.0,0.0,0.0,0.0,0.7026,0.549,0.4503,0.4488,0.4509,0.5106,0.6515,0.8474,0.9522,0.0,0.0,0.0,0.0,0.0,0.0,0.0,0.0,0.0,0.0,0.0,0.0,0.0,0.0,0.0,0.0,1.3091,0.0,0.0,1.7174,1.7815,0.0,0.0,0.0,1.8437,1.7572,1.7263,0.0,0.0,0.0,0.0,0.0,0.0,0.0,0.0,0.0,0.0,0.0,0.0,0.0,2.12,2.2246,2.3263,2.4343,2.5285,2.6289,2.7494,2.7896,2.8323,2.9189,2.9716,3.0344,3.126,3.1386,3.1386,3.1386,3.1386,3.1386,3.1386,3.1386,3.1298,3.1085,3.0783,3.052,3.0281,2.9967,2.9792,2.9792,2.9792,2.9792,2.9792,2.9792,2.9792,2.9792,2.9792,2.9792,2.9792,2.9792,2.9792,2.9829,3.0444,3.0598,3.0574,3.2364,3.3077,3.3093,3.3121,3.3271,3.3596,3.3922,3.4387,3.4851,0.0,0.0,0.0,0.0,0.0,0.0,0.0,0.0,0.0,0.0,0.0,0.0,0.0,0.0,0.0,0.0,0.7285,0.5001,0.4618,0.4991,0.0,0.0,0.8786,0.9811,0.0,0.0,0.0,0.0,0.0,0.0,0.0,0.0,0.0,0.0,0.0,0.0,0.0,0.0,0.0,1.1524,1.3691,1.5499,0.0,0.0,1.8896,1.9355,1.9355,1.9385,1.9214,1.7853,1.734,0.0,0.0,0.0,0.0,0.0,1.583,0.0,0.0,0.0,0.0,0.0,1.8621,0.0,2.0841,2.1337,2.1769,2.2749,2.3364,2.3929,2.4607,2.5159,2.5699,2.6264,2.7293,2.8737,3.0821,3.1173,3.121,3.121,3.121,3.121,3.121,3.121,3.1022,3.0557,3.052,3.0306,2.9817,2.9792,2.9792,2.9792,2.9792,2.9792,2.9792,2.9792,2.9792,2.9792,2.9792,2.9792,2.9792,2.9792,2.9792,2.9792,2.9854,3.0426,3.1334,3.2423,3.288,3.2955,3.3043,3.3081,3.3081,3.3081,3.3407,3.3846,0.6095,0.0,0.0,0.0,0.0,0.0,0.0,0.0,0.0,0.0,0.0,0.0,0.0,0.0,0.0,0.0,0.0,0.8217,0.5434,0.0,0.9541,0.9803,1.0208,1.0417,1.045,0.0,0.0,0.0,0.0,0.0,0.0,0.0,0.0,0.0,0.0,0.0,0.0,0.0,0.0,1.1224,1.3108,0.0,1.6199,1.7599,1.8818,1.9795,1.9795,2.0019,2.0234,1.9603,1.8708,1.7774,0.0,0.0,0.0,1.6523,0.0,0.0,0.0,0.0,0.0,0.0,0.0,0.0,1.9424,2.0434,2.1543,2.1769,2.1895,2.2422,2.3891,2.4607,2.5146,2.5674,2.6703,2.7908,2.9227,2.9817,3.0105,3.0105,3.0105,3.0105,3.0105,3.0105,3.0068,2.9955,2.9955,2.9905,2.9804,2.9792,2.9792,2.9792,2.9792,2.9792,2.9792,2.9792,2.9792,2.9792,2.9792,2.9792,2.9792,2.9792,2.9792,2.9817,3.0269,3.0286,3.0152,3.1016,3.1497,3.1841,3.2744,3.3081,3.3081,3.3081,3.3133,3.3295,0.6036,0.0,0.0,0.0,0.0,0.0,0.0,0.0,0.0,0.0,0.0,0.0,0.0,0.0,0.0,0.0,0.0,0.0,0.0,0.0,1.062,1.058,1.0606,1.0593,1.0591,1.0593,0.0,0.0,0.0,0.0,0.0,0.0,0.0,0.0,0.0,0.0,0.0,0.0,1.2241,1.1628,1.3412,0.0,1.613,1.7977,1.9307,2.0244,2.0244,2.0381,2.0498,2.0059,1.9253,0.0,1.8066,1.7861,1.7598,0.0,1.7207,1.7275,0.0,0.0,0.0,1.7688,0.0,0.0,0.0,1.9551,2.0172,2.1046,2.0811,2.0932,2.2477,2.2975,2.3427,2.4243,2.5084,2.6126,2.7507,2.8185,2.8536,2.8536,2.8536,2.8536,2.8536,2.88,2.895,2.895,2.895,2.9076,2.9352,2.9365,2.949,2.9779,2.9792,2.9792,2.9792,2.9792,2.9792,2.9792,2.9792,2.9792,2.9792,2.9792,2.9792,2.9804,3.008,3.0065,2.9845,3.0511,3.0904,3.1187,3.1975,3.2644,3.3081,3.3081,3.3095,3.3109,0.6263,0.0,0.0,0.0,0.0,0.0,0.0,0.0,0.0,0.0,0.0,0.0,0.0,0.0,0.0,0.0,0.0,0.0,0.0,0.0,0.0,1.0948,1.1642,1.1694,1.0965,1.0692,0.0,0.0,0.0,0.0,0.0,0.0,0.0,0.0,0.0,0.0,0.0,0.0,0.0,1.2277,0.0,1.5246,1.6246,1.8439,1.9766,2.0449,2.0537,2.0566,2.0508,2.0156,1.9594,1.8875,1.8387,1.8379,0.0,0.0,0.0,0.0,0.0,0.0,0.0,0.0,0.0,1.8237,0.0,0.0,0.0,2.0606,2.0306,2.0145,2.1281,2.1581,2.1895,2.2686,2.3477,2.4393,2.5498,2.6138,2.664,2.7067,2.6942,2.6892,2.7105,2.7419,2.767,2.7783,2.7783,2.8034,2.8586,2.8712,2.9038,2.9616,2.9628,2.9679,2.9792,2.9792,2.9792,2.9792,2.9792,2.9792,2.9792,2.9792,2.9792,2.9792,2.9792,2.9792,2.9829,3.0269,3.0666,3.1004,3.1468,3.2284,3.3081,3.3081,3.3081,3.3169,0.8523,0.7886,0.0,0.0,0.0,0.0,0.0,0.0,0.0,0.0,0.0,0.0,0.0,0.0,0.0,0.0,0.0,0.0,1.2257,0.0,0.0,0.0,1.5366,1.5545,1.2182,1.1088,1.0597,0.0,0.0,0.0,0.0,0.0,0.0,0.0,1.1567,0.0,0.0,0.0,1.2311,0.0,1.4501,1.5408,0.0,1.8439,1.958,2.0039,2.043,2.0566,2.0557,0.0,1.9951,1.9258,0.0,1.8652,1.8135,1.8418,0.0,0.0,0.0,0.0,0.0,0.0,1.9532,0.0,0.0,0.0,2.1256,2.0487,0.0,2.1294,2.1481,0.0,0.0,2.1732,2.2987,2.3715,2.2899,2.3251,2.4343,2.6314,2.5699,2.5485,2.6452,2.6138,2.6101,2.6603,2.6653,2.6892,2.7444,2.7934,2.8448,2.9013,2.9026,2.9277,2.9779,2.9792,2.9792,2.9792,2.9792,2.9792,2.9792,2.9792,2.9792,2.9792,2.9792,2.9792,2.9792,2.9867,3.0315,3.1028,3.2415,3.2997,3.3081,3.3081,3.3081,3.3219,0.8177,0.8094,0.0,0.0,0.0,0.0,0.0,0.0,0.0,0.0,0.0,0.0,0.0,0.0,0.0,0.0,0.0,1.2572,0.0,0.0,0.0,0.0,0.0,0.0,0.0,1.1823,1.1597,0.0,1.1607,0.0,0.0,0.0,0.0,0.0,1.1662,0.0,1.1456,0.0,1.2613,0.0,0.0,0.0,0.0,1.8318,1.9326,1.9902,1.9844,2.0146,2.0488,0.0,1.958,0.0,0.0,0.0,0.0,1.8584,0.0,0.0,0.0,0.0,0.0,0.0,0.0,0.0,1.8812,0.0,2.0324,0.0,0.0,0.0,0.0,0.0,0.0,0.0,2.202,2.2121,2.2284,2.1669,2.2033,2.4268,2.3841,0.0,2.4456,2.4305,2.4268,2.4519,2.4845,2.5398,2.6251,2.6841,2.7695,2.8888,2.8925,2.9202,2.9779,2.9792,2.9792,2.9792,2.9792,2.9792,2.9792,2.9792,2.9792,2.9792,2.9792,2.9792,2.9792,2.9792,3.0127,3.0841,3.1776,3.2546,3.3081,3.3081,3.3081,3.3194,0.7812,0.0,0.0,0.0,0.0,0.0,0.0,0.0,0.0,0.0,0.0,0.0,1.3741,1.4355,0.0,0.0,1.2965,1.3393,0.0,0.0,1.3153,0.0,0.0,0.0,0.0,0.0,1.2285,0.0,0.0,0.0,0.0,0.0,0.0,0.0,0.0,1.159,1.153,0.0,1.3063,1.4455,1.5195,1.6283,1.7543,1.8302,1.9092,1.9707,1.9394,1.9687,2.0117,1.9492,1.9209,0.0,1.9111,0.0,1.8486,0.0,0.0,0.0,1.8951,0.0,0.0,0.0,0.0,0.0,0.0,0.0,0.0,0.0,0.0,0.0,0.0,0.0,0.0,0.0,0.0,2.1169,2.1537,2.061,2.063,2.2639,2.2686,0.0,0.0,2.2774,2.2749,2.2899,2.3301,2.3941,2.487,2.5749,2.6841,2.821,2.8549,2.8976,2.9553,2.9716,2.9792,2.9792,2.9792,2.9792,2.9792,2.9792,2.9792,2.9792,2.9792,2.9792,2.9792,2.9792,3.0118,3.067,3.1185,3.1989,3.2855,3.3018,3.3081,3.3181,0.8135,0.9366,0.0,0.0,0.0,0.0,0.0,0.0,0.0,0.0,0.0,0.0,0.0,0.0,0.0,0.0,0.0,1.4753,1.2522,0.0,1.3774,0.0,0.0,1.3481,0.0,0.0,0.0,0.0,0.0,0.0,0.0,0.0,0.0,0.0,0.0,1.2083,1.1685,1.1834,1.341,1.5715,1.5383,1.6315,1.8008,0.0,1.8916,1.9307,1.9287,0.0,0.0,1.9297,1.9014,0.0,0.0,0.0,0.0,0.0,0.0,0.0,0.0,0.0,0.0,1.9782,0.0,0.0,0.0,0.0,2.179,0.0,0.0,0.0,0.0,0.0,0.0,0.0,0.0,0.0,0.0,2.0086,2.0752,2.2143,2.2799,2.2912,0.0,2.1857,2.1757,2.2297,2.2347,2.2623,2.3128,2.4745,2.59,2.6584,2.757,2.8398,2.895,2.9515,2.9792,2.9792,2.9792,2.9792,2.9792,2.9792,2.9792,2.9792,2.9792,2.9792,2.9792,2.9792,3.0118,3.067,3.1185,3.1738,3.2303,3.2867,3.3081,3.3232,0.9564,0.0,0.0,0.0,0.0,0.0,0.0,1.2836,0.0,0.0,0.0,0.0,0.0,1.6506,1.8318,0.0,0.0,1.5903,1.5081,1.4845,0.0,0.0,0.0,1.3647,0.0,0.0,0.0,0.0,0.0,0.0,0.0,0.0,0.0,0.0,0.0,1.2601,0.0,0.0,0.0,0.0,0.0,1.801,1.8809,0.0,1.8486,1.8818,1.8545,1.8809,0.0,1.8955,1.876,1.8562,1.8562,1.835,1.8037,1.8184,1.8516,0.0,0.0,0.0,2.0085,2.0229,0.0,0.0,0.0,0.0,0.0,0.0,0.0,0.0,0.0,0.0,0.0,0.0,0.0,0.0,0.0,2.0225,2.0717,2.1192,2.1393,2.143,2.1242,2.0715,2.0451,2.0639,2.1343,2.2008,2.256,2.4167,2.5498,2.6496,2.7532,2.8373,2.8925,2.9503,2.9792,2.9792,2.9792,2.9792,2.9792,2.9792,2.9792,2.9792,2.9792,2.9792,2.9792,2.9792,2.9905,3.0156,3.1047,3.1499,3.1788,3.2729,3.3081,3.3244,1.0014,0.0,0.0,0.0,0.0,0.0,0.0,0.0,0.0,0.0,1.5598,0.0,1.664,0.0,1.9802,0.0,1.8254,1.7103,1.6375,1.5846,0.0,1.448,1.42,0.0,0.0,0.0,0.0,0.0,0.0,1.2296,0.0,0.0,0.0,0.0,0.0,1.2882,1.2956,1.3393,1.4251,0.0,0.0,1.873,0.0,0.0,1.8369,1.8789,0.0,1.8359,1.8789,1.8506,1.8418,1.8418,1.8418,1.8223,1.8008,1.8008,1.8329,1.8734,1.8822,1.9416,0.0,2.0515,1.9905,0.0,1.9903,0.0,0.0,0.0,0.0,0.0,0.0,0.0,0.0,0.0,0.0,0.0,0.0,1.9921,2.0444,2.0928,2.0953,2.0899,2.0612,2.0453,2.0295,2.0003,2.0957,2.1732,2.2284,2.3997,2.523,2.585,2.7659,2.854,2.8637,2.9402,2.9792,2.9792,2.9792,2.9792,2.9792,2.9792,2.9792,2.9792,2.9792,2.9792,2.9792,2.9792,2.9905,3.0168,3.1047,3.1512,3.18,3.2729,3.307,3.332,0.962,0.0,0.0,0.0,1.2536,0.0,0.0,0.0,1.5979,0.0,1.8306,2.1133,2.1107,2.106,2.058,1.9635,1.9473,1.8585,1.6599,1.6613,0.0,0.0,1.4894,1.4566,1.31,0.0,0.0,0.0,0.0,0.0,0.0,0.0,0.0,0.0,1.2303,0.0,1.4029,1.2811,1.3503,1.5576,1.7887,1.8497,1.7988,1.8027,1.8555,1.9209,1.832,1.8008,1.8008,1.8008,1.8008,1.8008,1.8008,1.8008,1.8008,1.8008,1.8414,1.8768,1.8237,1.9297,2.0546,2.0566,0.0,0.0,0.0,0.0,2.3224,0.0,0.0,0.0,0.0,0.0,0.0,0.0,0.0,0.0,0.0,0.0,1.9961,2.1306,2.14,2.1151,2.0445,2.0945,2.1045,2.0351,2.1013,2.1694,0.0,2.4099,2.5071,2.4859,2.7764,2.8957,2.817,2.9227,2.9792,2.9792,2.9792,2.9792,2.9792,2.9792,2.9792,2.9792,2.9792,2.9792,2.9792,2.9792,3.0118,3.067,3.116,3.1712,3.2303,3.2867,3.3121,3.3256,1.1938,1.2308,1.2745,0.0,1.3649,1.4222,0.0,0.0,0.0,0.0,1.9882,2.1148,2.1147,2.072,2.0543,2.0605,1.9897,0.0,0.0,0.0,0.0,1.6275,1.5843,1.5445,1.5066,1.4663,0.0,1.4111,0.0,0.0,1.2311,0.0,0.0,0.0,0.0,1.2949,1.4026,1.3258,1.4626,1.7348,1.7958,1.8129,1.8033,0.0,1.874,1.96,1.8428,1.8008,1.8008,1.8008,1.8008,1.8008,1.8008,1.8008,1.8008,1.8008,1.8309,1.8877,1.969,1.996,2.0031,2.0458,2.0041,1.9594,0.0,0.0,0.0,0.0,0.0,0.0,0.0,0.0,0.0,0.0,0.0,0.0,0.0,0.0,2.0141,2.0514,2.0246,2.0017,1.9837,1.908,1.8736,1.9119,1.9732,2.0538,2.1669,0.0,2.4906,2.5746,2.7642,2.8821,2.9041,2.9579,2.9792,2.9792,2.9792,2.9792,2.9792,2.9792,2.9792,2.9792,2.9792,2.9792,2.9792,2.9792,3.0118,3.0633,3.0758,3.1663,3.2878,3.3016,3.3096,3.3134,1.3088,1.3749,0.0,1.4805,0.0,0.0,1.5912,1.6582,0.0,1.846,2.003,0.0,2.1156,2.2044,2.2559,2.2362,2.2039,0.0,2.0315,0.0,0.0,1.7058,1.656,1.6062,1.5651,1.4903,0.0,1.4088,0.0,0.0,1.3054,0.0,0.0,0.0,0.0,1.3433,1.4125,1.4961,1.6538,1.8545,1.8172,1.8132,0.0,1.81,1.8629,1.9335,1.8623,1.837,1.8252,1.8076,1.8008,1.8008,1.8008,1.8008,1.8008,1.8008,1.8133,1.865,2.0153,2.0182,1.9829,2.0449,2.0265,2.0246,2.16,2.2673,2.372,0.0,0.0,0.0,0.0,0.0,0.0,0.0,0.0,0.0,0.0,0.0,0.0,2.05,1.9517,1.8735,1.8578,1.8194,1.8192,1.8568,1.9447,2.0516,2.1763,0.0,2.4853,2.603,2.7617,2.872,2.9381,2.9655,2.9792,2.9792,2.9792,2.9792,2.9792,2.9792,2.9792,2.9792,2.9792,2.9792,2.9792,2.9792,3.0244,3.0997,3.1499,3.2235,3.3073,3.3091,3.3146,3.3093,1.3554,0.0,0.0,0.0,0.0,0.0,0.0,1.7255,0.0,1.7811,0.0,2.1068,2.1068,2.3948,2.5493,2.4825,0.0,2.4903,2.2481,2.0456,1.9014,1.8005,1.7421,1.6547,1.5585,1.4917,1.4449,0.0,0.0,0.0,0.0,0.0,0.0,0.0,0.0,0.0,0.0,1.7394,1.8783,1.9374,1.8666,1.8581,1.8899,1.8338,1.854,1.902,1.8987,1.8801,1.8574,1.8154,1.8008,1.8008,1.8008,1.8008,1.8008,1.8008,1.8074,1.8518,2.005,2.0128,1.9907,2.0459,2.0615,2.1034,2.275,2.395,2.5075,2.6257,2.4492,2.316,0.0,0.0,0.0,0.0,0.0,0.0,0.0,0.0,0.0,0.0,1.9076,0.0,1.7402,1.7952,1.8372,1.8362,1.9504,2.077,2.2113,0.0,2.4726,2.6016,2.7736,2.894,2.9504,2.9742,2.9792,2.9792,2.9792,2.9792,2.9792,2.9792,2.9792,2.9792,2.9792,2.9792,2.9792,2.9792,3.0382,3.1411,3.2616,3.3031,3.2968,3.3056,3.3081,3.3119,1.4348,0.0,0.0,0.0,0.0,1.7728,1.8076,1.8838,1.9386,1.9415,2.0341,2.1159,2.1159,2.3216,2.6076,2.9346,2.9785,0.0,0.0,0.0,0.0,2.1826,1.9024,1.7089,1.6262,1.5219,1.4754,0.0,0.0,0.0,0.0,0.0,0.0,0.0,0.0,0.0,1.9478,1.9954,0.0,2.0338,2.0226,1.9793,1.9195,1.9093,1.9296,1.9558,1.9531,1.9147,1.8574,1.8154,1.8008,1.8008,1.8008,1.8008,1.8008,1.8008,1.8475,1.9107,1.9452,1.9958,2.0459,2.0547,2.0611,2.0727,2.1033,2.3694,2.619,2.6456,2.5277,2.4038,2.3777,0.0,0.0,0.0,0.0,0.0,0.0,0.0,0.0,0.0,1.8892,1.8449,1.8365,1.7804,1.7539,1.7734,1.8507,1.9758,2.1525,0.0,2.3725,0.0,2.822,0.0,0.0,0.0,2.9792,2.9792,2.9792,2.9792,2.9792,2.9792,2.9792,2.9792,2.9792,2.9792,2.9792,2.9792,3.0168,3.0909,3.2466,3.278,3.2416,3.2905,3.3081,3.3081,1.5132,0.0,0.0,0.0,0.0,0.0,0.0,1.9787,2.0314,1.986,2.0167,2.0428,2.0428,2.329,2.6027,2.8226,2.9917,3.0007,2.7943,2.5414,2.3497,2.2288,2.0741,1.8875,1.672,1.5558,1.503,1.519,0.0,0.0,0.0,0.0,0.0,0.0,0.0,1.602,0.0,0.0,0.0,2.0119,2.0132,2.0048,1.9951,1.9951,2.0068,2.0099,1.9775,1.9492,1.9199,1.8555,1.8193,1.8047,1.8271,1.8184,1.8057,1.8271,1.8467,1.8721,1.917,1.959,2.001,2.0459,2.0582,2.0848,2.1871,2.2815,2.3661,2.4299,2.391,2.3078,2.1893,2.0358,0.0,0.0,0.0,0.0,0.0,0.0,1.9299,0.0,0.0,0.0,1.7671,1.7552,1.7828,1.855,1.8939,1.982,0.0,0.0,2.3709,0.0,0.0,0.0,3.0284,0.0,0.0,2.9792,2.9792,2.9792,2.9792,2.9792,2.9792,2.9792,2.9792,2.9792,2.9829,3.0394,3.0947,3.1549,3.2654,3.2905,3.2692,3.2968,3.3081,3.3081,0.0,1.603,0.0,0.0,1.8262,0.0,1.9147,2.0308,2.0862,2.0167,2.008,2.0194,2.0547,2.38,2.6089,2.6315,2.9142,3.0091,2.7992,2.8267,2.6903,2.3261,2.1849,1.9851,1.6993,1.5873,1.5302,0.0,0.0,0.0,0.0,0.0,0.0,0.0,0.0,0.0,0.0,0.0,1.9439,1.9912,1.9905,2.0158,2.0566,2.0566,2.0566,2.0518,2.007,1.9895,1.9814,1.9141,1.8633,1.834,1.8672,1.8545,1.833,1.8574,1.8467,1.8428,1.9102,1.9346,1.9609,2.0371,2.0811,2.1541,2.3642,2.2622,2.1345,2.1999,2.2091,2.1712,2.0305,1.9895,0.0,0.0,0.0,0.0,0.0,0.0,1.9137,0.0,0.0,0.0,1.6743,1.7389,1.8409,1.9873,1.9715,0.0,2.1519,0.0,0.0,0.0,0.0,2.7119,2.9693,0.0,2.9792,2.9792,2.9792,2.9792,2.9792,2.9792,2.9792,2.9792,2.9792,2.9854,3.0043,3.0997,3.1725,3.2277,3.2855,3.3081,3.3081,3.3081,3.3081,3.3081,0.0,0.0,0.0,0.0,0.0,0.0,1.8524,2.0015,2.1082,2.0995,2.0989,2.1603,2.3068,2.4838,2.6428,2.7312,2.9573,3.0613,2.9819,2.9298,2.8697,2.7705,2.1431,1.7653,1.6762,1.6088,1.5504,0.0,0.0,1.4435,0.0,0.0,0.0,0.0,0.0,0.0,0.0,1.7917,1.9282,2.0552,2.0535,2.0527,2.0566,2.0566,2.0566,2.0557,2.0518,2.0244,1.9902,1.9824,1.9512,1.918,1.9219,1.9199,1.9102,1.874,1.8887,1.9189,1.9268,1.957,1.9971,2.0449,2.1449,2.3029,2.5651,2.4631,2.2761,2.1118,2.0781,2.075,2.0585,2.0156,1.985,0.0,0.0,0.0,0.0,0.0,1.8725,1.8197,0.0,0.0,1.686,1.7486,1.888,2.107,2.0345,0.0,0.0,0.0,0.0,2.3319,2.6016,2.7531,2.785,2.9176,2.9792,2.9792,2.9792,2.9792,2.9792,2.9792,2.9792,2.9792,2.9792,3.008,3.0583,3.116,3.1725,3.2277,3.2855,3.3081,3.3081,3.3081,3.3081,3.3081,0.0,0.0,0.0,0.0,0.0,0.0,0.0,2.0968,2.151,2.1156,2.1109,2.1355,2.1971,2.3824,2.519,2.5633,2.8819,3.078,3.0581,2.9707,2.8411,2.658,2.4445,2.132,1.734,1.6328,1.5573,0.0,0.0,0.0,0.0,0.0,0.0,0.0,0.0,1.5153,1.6979,1.7987,1.9071,2.0171,2.0487,2.0566,2.0566,2.0566,2.0566,2.0566,2.0566,2.0449,2.0303,2.0303,1.9853,1.9336,1.958,1.9492,1.9307,1.9385,1.9346,1.9346,1.959,1.9785,2.0161,2.1187,2.1955,2.2802,2.3868,2.3779,2.2911,2.1008,2.0592,2.0566,2.0566,2.042,2.033,0.0,0.0,0.0,0.0,0.0,0.0,1.8063,0.0,1.7782,1.7207,1.7317,1.7975,1.9276,0.0,0.0,0.0,0.0,0.0,2.3737,0.0,2.6951,2.8261,2.9265,2.9792,2.9792,2.9792,2.9792,2.9792,2.9792,2.998,3.0294,3.0423,3.0901,3.1587,3.18,3.2215,3.2754,3.2993,3.3081,3.3081,3.3081,3.3081,3.3081,1.8647,0.0,2.0289,0.0,2.0132,1.9754,2.1396,2.1697,2.173,2.1693,2.1356,2.1369,2.2006,2.3409,2.4907,2.6144,2.9139,3.0858,3.0849,2.9956,2.8404,2.6262,2.5676,0.0,1.9049,1.6968,1.5771,1.5399,1.5226,0.0,0.0,0.0,0.0,0.0,1.409,1.5198,1.7042,1.8005,1.9022,2.0127,2.0439,2.0566,2.0566,2.0566,2.0566,2.0566,2.0566,2.0566,2.0566,2.0566,2.0166,1.9717,2.001,1.9902,1.9697,1.9863,1.9707,1.9541,1.9834,2.0137,2.0591,2.1697,2.2594,2.3145,2.2853,2.3183,2.2944,2.0979,2.0574,2.0566,2.0566,2.0566,2.0615,2.0594,0.0,0.0,0.0,1.8574,0.0,1.8035,1.7967,1.7839,1.7583,1.7445,1.7363,1.7446,0.0,0.0,0.0,0.0,0.0,0.0,0.0,0.0,2.8492,2.9366,2.9792,2.9792,2.9792,2.9792,2.9792,2.9792,3.0093,3.062,3.0788,3.1291,3.1989,3.2139,3.2453,3.2842,3.3006,3.3081,3.3081,3.3081,3.3081,3.3081,2.1018,1.9202,1.8415,2.0746,2.1027,2.143,2.2726,2.1911,2.1507,2.269,2.1903,2.1873,2.4176,2.4423,2.6136,3.0458,3.0839,3.0858,3.0849,3.0383,2.9479,0.0,0.0,2.1869,2.2038,1.8376,1.6196,1.5825,0.0,0.0,1.4522,0.0,1.4088,1.4082,1.4074,1.4914,1.6338,1.7763,1.9279,2.0557,2.0566,2.0566,2.0566,2.0566,2.0566,2.0566,2.0566,2.0566,2.0566,2.0566,2.0557,2.0624,2.0557,2.0557,2.0469,2.0039,1.9912,1.9902,1.9912,2.0639,2.1471,2.1922,2.3514,2.4707,2.3734,2.3514,2.2925,2.1001,2.0634,2.0566,2.0566,2.0566,2.0613,2.0601,0.0,0.0,0.0,1.8543,0.0,1.8101,1.8763,1.8953,1.8081,1.8014,1.7463,0.0,0.0,0.0,0.0,0.0,0.0,2.349,2.5975,0.0,2.8097,2.9227,2.9792,2.9792,2.9792,2.9792,2.9792,2.9792,3.0093,3.062,3.0788,3.1077,3.1436,3.1989,3.2215,3.2277,3.2855,3.3081,3.3081,3.3081,3.3081,3.3081,2.1101,2.0494,2.1663,2.681,2.473,2.2461,2.28,2.258,2.2112,2.1704,2.1374,2.1309,2.2027,2.211,2.2748,0.0,2.8364,3.084,0.0,3.0724,3.0145,2.8988,2.4858,2.1663,1.9659,1.751,1.6183,1.5803,0.0,0.0,0.0,1.4616,1.4374,1.4082,1.4074,1.598,1.9147,1.8656,1.9279,2.0566,2.0566,2.0566,2.0566,2.0566,2.0566,2.0566,2.0566,2.0566,2.0566,2.0566,2.0566,2.0566,2.0566,2.0566,2.0537,2.04,2.0361,2.0361,2.0361,2.0582,2.1202,2.2669,2.3514,2.3891,2.3588,2.2489,2.1385,2.0712,2.0566,2.0566,2.0566,2.0566,2.0613,2.0601,2.036,0.0,1.8992,0.0,1.8213,1.8026,1.8232,1.8291,1.8026,1.7762,0.0,0.0,0.0,0.0,0.0,0.0,0.0,0.0,2.5468,0.0,2.7533,2.9083,2.9792,2.9792,2.9792,2.9792,2.9817,3.0322,3.0775,3.1148,3.1529,3.1965,3.2491,3.1901,3.1876,3.219,3.2001,3.1926,3.1976,3.2353,3.2491,3.2541,2.1136,2.3046,2.6107,3.0147,2.8642,2.6791,2.6809,2.4624,2.249,2.1278,2.1153,2.1162,2.1122,2.1128,0.0,2.4527,2.8564,3.085,3.0945,3.0877,3.0366,2.9263,2.5594,2.2536,2.0182,1.7723,0.0,1.577,1.5701,1.5272,1.4688,1.4515,1.4376,1.4115,1.4122,1.6523,2.0552,1.9648,1.9752,2.0566,2.0566,2.0566,2.0566,2.0566,2.0566,2.0566,2.0566,2.0566,2.0566,2.0566,2.0566,2.0566,2.0566,2.0867,2.1078,2.0712,2.0857,2.1155,2.1155,2.1375,2.2048,2.3672,2.4036,2.3891,2.3147,2.1745,2.0566,2.0566,2.0566,2.0566,2.0566,2.0566,2.0526,2.0391,2.0152,1.9723,1.9092,0.0,1.8008,0.0,0.0,0.0,0.0,1.7997,1.7949,0.0,0.0,0.0,0.0,0.0,0.0,2.2466,2.4945,0.0,2.6964,2.8846,2.9836,2.9836,2.9777,2.9792,2.9804,3.0284,3.0725,3.111,3.1574,3.2054,3.2403,3.1901,3.1901,3.2152,3.1599,3.165,3.2039,3.2164,3.2353,3.2591,2.1084,2.6371,3.0941,0.0,3.2419,0.0,3.3424,2.7304,2.2371,2.1206,2.1089,2.1056,2.1056,2.1125,2.357,2.9635,0.0,0.0,0.0,3.0737,3.0268,2.9143,2.6449,2.4412,2.3347,1.9045,1.646,1.5751,1.5589,1.5013,1.4187,1.4167,1.4236,1.4314,1.4614,1.6945,2.0765,2.0647,2.0591,2.0566,2.0596,2.0586,2.0566,2.0566,2.0566,2.0566,2.0566,2.0566,2.0566,2.0566,2.0566,2.0566,2.0566,2.1221,2.1811,2.0857,2.1221,2.2027,2.2027,2.2702,2.3672,2.4636,2.4862,2.4264,2.2403,2.1298,2.0566,2.0566,2.0566,2.0566,2.0566,2.0566,2.041,1.9951,1.9335,1.8745,1.8572,1.8252,1.8008,0.0,0.0,0.0,0.0,1.8567,1.8286,0.0,0.0,0.0,0.0,0.0,2.0617,2.208,2.4233,2.5691,2.6389,2.8464,2.9671,2.9776,2.9836,2.9817,2.9792,2.9867,3.0181,3.0696,3.1223,3.1449,3.1593,3.1938,3.2139,3.2114,3.1549,3.2001,3.2905,3.239,3.2554,3.3018,0.0,0.0,3.1359,3.2613,3.309,3.3338,3.3388,2.6681,2.145,2.1186,2.1073,2.1156,2.1156,2.1046,2.1765,2.3329,2.8015,3.0847,3.0917,2.9686,2.878,2.8535,2.7851,2.7284,2.7005,2.0735,1.683,1.582,1.5718,1.5528,1.5079,1.4751,1.5239,1.6526,1.9557,2.1503,2.2421,2.1163,2.0633,2.0586,2.0622,2.0564,2.0566,2.0566,2.0566,2.0566,2.0566,2.0566,2.0566,2.0566,2.0566,2.0566,2.0566,2.1221,2.1811,2.0857,2.1221,2.2027,2.2027,2.2178,2.2627,2.3588,2.3294,2.2627,2.2103,2.1298,2.0566,2.0566,2.0566,2.0566,2.0566,2.0566,2.0409,1.9851,1.8864,1.8175,1.8173,1.8076,1.8008,0.0,1.8399,1.8685,1.8685,1.8389,1.8455,0.0,0.0,0.0,1.919,1.9095,1.9734,2.1362,2.2514,2.3794,2.5199,2.655,2.815,2.9788,2.9769,2.982,2.9817,3.0645,3.1085,3.1235,3.1655,3.2172,3.2657,3.1587,3.1524,3.1959,3.1128,3.1198,3.1825,3.2102,3.2303,3.2478,2.5986,2.8392,3.1464,3.3109,3.3446,3.3348,3.3418,2.8896,2.559,2.5622,2.5602,2.5538,2.5538,2.5568,2.4332,2.1413,2.7081,3.0905,3.0948,2.9986,2.9162,2.8363,2.8251,2.8329,2.8252,2.1296,1.698,1.5832,1.5779,1.5903,1.6183,1.6007,1.6373,1.7478,1.9913,2.1779,2.2965,2.1351,2.1018,2.17,2.0902,2.0579,2.0634,2.0625,2.0566,2.0566,2.0566,2.0566,2.0566,2.0566,2.0566,2.0566,2.0566,2.1221,2.1811,2.0857,2.1603,2.2638,2.2306,2.2435,2.2702,2.2776,2.2563,2.2147,2.1492,2.0934,2.0566,2.0566,2.0566,2.0566,2.0566,2.04,2.0134,1.959,1.8827,1.8199,1.8018,1.8008,1.7998,1.8006,1.8302,1.8639,1.9025,1.88,1.8731,1.9005,1.9136,0.0,2.0205,2.027,2.055,2.0941,2.2021,2.3113,2.4039,2.4651,2.6063,2.8267,2.9278,2.9836,2.982,3.039,3.0658,3.0696,3.1248,3.1782,3.2225,3.1496,3.1498,3.1918,3.144,3.1643,3.2164,3.2202,3.2378,3.2654,3.093,3.1077,3.1722,3.3184,3.3434,3.3408,3.3359,3.2162,3.1209,3.0887,3.0944,3.0867,3.0867,3.0841,2.8272,2.1637,2.7082,3.0953,3.085,3.06,2.9897,2.8391,2.7435,2.6886,2.6698,2.0529,1.6861,1.5832,1.613,1.6736,1.7341,1.7508,1.7788,1.8278,1.8709,2.0476,2.2988,2.157,2.1777,2.298,2.1553,2.0976,2.098,2.1007,2.083,2.0752,2.0752,2.0752,2.0654,2.0586,2.0605,2.0654,2.0586,2.1205,2.1696,2.0888,2.2001,2.3257,2.2606,2.2841,2.3073,2.2392,2.2307,2.2179,2.0977,2.0723,2.0771,2.0771,2.0713,2.0664,2.0664,2.0254,1.9805,1.9443,1.8965,1.8516,1.8154,0.0,1.8085,1.8033,1.8134,1.8573,1.9383,1.9659,1.9417,1.8647,2.0599,2.1569,2.1007,2.169,2.1561,2.0614,2.2215,2.3135,2.3135,2.31,2.4072,2.5981,2.7848,2.9161,2.9776,2.9833,2.9761,2.9827,3.0637,3.1246,3.1637,3.1627,3.1757,3.1932,3.1978,3.2466,3.3018,3.2516,3.2654,3.3081,3.1064,3.2037,3.3082,3.3386,3.3411,3.3456,3.344,3.3188,3.247,3.1132,3.0885,3.0918,3.0918,3.0854,2.8309,2.173,2.7081,3.093,3.0943,2.9554,2.8574,2.8274,2.3486,2.03,1.9318,1.7181,1.5973,1.5832,1.7935,1.8675,1.8141,1.88,1.9726,2.074,2.0509,2.1415,2.3103,2.2794,2.2837,2.3124,2.2858,2.2675,2.2674,2.2705,2.2109,2.1252,2.1252,2.1232,2.1074,2.0693,2.082,2.1064,2.0684,2.0899,2.1282,2.1123,2.1954,2.2685,2.2229,2.2113,2.2392,2.3051,2.2307,2.1371,2.1143,2.1416,2.168,2.168,2.1387,2.1133,2.1133,2.0469,1.9893,1.9824,1.915,1.8613,1.8555,0.0,1.8411,1.8005,1.8883,1.9714,2.0366,2.1063,2.1475,2.1303,2.0309,2.0602,2.2621,2.157,2.075,2.0576,2.2188,2.3135,2.3135,2.3086,2.3275,2.3622,2.4,2.6135,2.9788,2.9768,2.9788,2.9861,3.0891,3.1876,3.2813,3.2843,3.2282,3.1499,3.1905,3.2428,3.3068,3.2968,3.3006,3.3081,3.1,3.1568,3.2396,3.3282,3.3348,3.3369,3.3348,3.3401,3.2752,3.1098,3.0955,3.0889,3.0889,3.0868,2.83,2.1625,2.7123,3.0844,3.0925,2.9292,2.8319,2.8331,2.2589,1.8816,1.759,1.6462,1.581,1.5785,1.6973,1.8203,1.9571,1.9991,2.0899,2.2217,2.2082,2.2378,2.3103,2.3076,2.3055,2.3123,2.3103,2.3088,2.3106,2.3091,2.2521,2.1693,2.1693,2.1602,2.1553,2.1348,2.1416,2.1543,2.1128,2.1296,2.1592,2.1712,2.167,2.1639,2.2114,2.2563,2.2709,2.2389,2.1985,2.1582,2.1582,2.1738,2.1885,2.1885,2.1728,2.1514,2.1279,2.0703,2.0264,2.0264,1.9346,0.0,0.0,1.9131,1.8933,1.8704,1.9816,2.1005,2.1885,2.2345,2.2562,2.2519,2.1805,2.189,2.3063,2.2389,2.1949,2.1949,2.2698,2.3135,2.3135,2.3135,2.3057,2.3073,2.3143,2.4179,2.631,2.8656,2.9812,2.982,3.0331,3.1529,3.3079,3.3086,3.279,3.2347,3.25,3.2836,3.3081,3.3081,3.3081,3.3081,3.1464,3.1473,3.1903,3.3213,3.3436,3.3456,3.3408,3.3377,3.2811,3.1178,3.0882,3.0859,3.0898,3.0868,2.8232,2.1673,2.5683,2.9268,3.0772,2.9611,2.8706,2.8314,2.236,1.852,1.7629,1.6406,1.5803,1.5759,1.6915,1.8784,2.1284,2.123,2.1878,2.3135,2.3135,2.3135,2.3135,2.3135,2.3135,2.3115,2.313,2.3117,2.3087,2.3102,2.2665,2.2031,2.2031,2.2031,2.2021,2.1924,2.1953,2.2002,2.1588,2.1738,2.2041,2.2266,2.1715,2.1272,2.2692,2.296,2.2788,2.1825,2.1759,2.1904,2.2002,2.21,2.2178,2.2178,2.2203,2.2036,2.1602,2.1084,2.0762,2.0859,0.0,0.0,0.0,1.9941,1.9725,1.9747,2.0799,2.1961,2.2972,2.3085,2.3124,2.3137,2.3085,2.3114,2.3137,2.3095,2.3135,2.3135,2.3135,2.3135,2.3135,2.3135,2.3135,2.3135,2.313,2.3527,2.4356,2.7939,2.9947,3.0567,3.0206,3.1085,3.27,3.2992,3.3104,3.3142,3.3132,3.311,3.3081,3.3081,3.3081,3.3081,3.3052,3.3208,3.3292,3.3342,3.3352,3.345,3.3379,3.3377,3.2811,3.1178,3.0945,3.0866,3.0918,3.0868,2.8232,2.1673,2.1484,2.4364,3.048,3.0814,3.001,2.8417,2.1465,1.7652,1.7592,1.639,1.5789,1.583,2.0382,2.2672,2.2904,2.2959,2.295,2.3135,2.3135,2.3135,2.3135,2.3135,2.3135,2.3135,2.3115,2.3105,2.3096,2.3076,2.2812,2.2471,2.2471,2.2471,2.2402,2.2021,2.2139,2.2402,2.2002,2.2148,2.2471,2.2471,2.2384,2.2533,2.4157,2.3014,2.152,2.207,2.2078,2.1982,2.2249,2.2658,2.3047,2.3047,2.2985,2.2909,2.2441,2.1738,2.1318,2.1719,0.0,0.0,2.1064,2.1113,2.115,2.1202,2.1623,2.2188,2.3057,2.3125,2.3135,2.3105,2.3125,2.3135,2.3105,2.3125,2.3135,2.3135,2.3135,2.3135,2.3135,2.3135,2.3135,2.3135,2.3115,2.4726,2.7759,2.8495,3.0252,3.2804,3.143,3.1083,3.1593,3.2675,3.3081,3.3081,3.3142,3.3056,3.3081,3.3081,3.3081,3.3081,3.3227,3.3404,3.3434,3.3352,3.3417,3.3058,3.2065,3.2688,3.3184,3.2514,3.1601,3.0895,3.0928,3.0868,2.8312,2.1648,2.105,2.3839,3.0443,3.0948,2.8461,2.3013,1.9493,1.7655,1.7553,1.717,1.6508,1.5778,2.068,2.306,2.3095,2.3096,2.3135,2.3135,2.3135,2.3135,2.3135,2.3135,2.3135,2.3135,2.3135,2.3135,2.3135,2.3135,2.3047,2.29,2.29,2.29,2.2881,2.2715,2.2773,2.2871,2.2715,2.2773,2.2852,2.2588,2.2607,2.2893,2.3298,2.2625,2.206,2.2605,2.2536,2.2383,2.2707,2.293,2.3135,2.3135,2.3134,2.3054,2.2903,2.2369,2.208,2.2246,0.0,2.1221,2.1924,2.1807,2.1695,2.1897,2.2322,2.2746,2.3028,2.3135,2.3135,2.3135,2.3135,2.3604,2.4624,2.4167,2.3928,2.391,2.3342,2.358,2.4743,2.3634,2.3408,2.3926,2.391,2.4533,2.5908,2.8122,2.9753,3.0761,3.0253,3.0325,3.1004,3.2109,3.2726,3.3081,3.3081,3.3081,3.3081,3.3081,3.3081,3.3081,3.335,3.334,3.3454,3.3361,3.3,3.1602,2.8816,3.0761,3.2747,3.3326,3.1897,3.0882,3.0937,3.0901,2.825,2.1654,2.1105,2.3924,3.0419,3.0354,2.6864,1.9678,1.8624,1.7998,1.7616,1.7562,1.7768,1.8078,2.1481,2.3104,2.3135,2.3135,2.3135,2.3135,2.3135,2.3135,2.3135,2.3135,2.3135,2.3135,2.3135,2.3135,2.3135,2.3135,2.3135,2.3135,2.3135,2.3135,2.3135,2.3135,2.3135,2.3135,2.3135,2.3135,2.3086,2.2793,2.291,2.3076,2.2783,2.2626,2.2599,2.3022,2.2764,2.2627,2.3047,2.3135,2.3135,2.3135,2.3135,2.3076,2.311,2.284,2.2715,2.2715,2.2217,2.2041,2.2627,2.2461,2.2383,2.2561,2.2862,2.3135,2.3135,2.3145,2.3115,2.3115,2.3595,2.4287,2.5209,2.4752,2.4238,2.4028,2.3366,2.3924,2.5704,2.4307,2.3947,2.4414,2.4382,2.4696,2.5219,2.7543,2.8878,2.9381,2.9424,2.9769,3.0285,3.1417,3.1896,3.1977,3.2339,3.2251,3.1965,3.2339,3.2513,3.2525,3.3418,3.3414,3.3436,3.3436,3.1967,2.9121,2.3754,2.739,3.1484,3.3184,3.1978,3.0882,3.084,3.0946,2.8277,2.1776,2.1105,2.3916,3.0522,2.9222,2.5587,1.9692,1.9381,1.8851,1.7583,1.7557,1.9372,2.3121,2.3136,2.3104,2.3135,2.3135,2.3135,2.3135,2.3135,2.3135,2.3135,2.3135,2.3135,2.3135,2.3135,2.3135,2.3135,2.3135,2.3135,2.3135,2.3135,2.3135,2.3135,2.3135,2.3135,2.3135,2.3135,2.3135,2.3135,2.3135,2.3135,2.3135,2.3135,2.3135,2.3135,2.3135,2.2822,2.2627,2.3047,2.3135,2.3135,2.3135,2.3135,2.3135,2.3135,2.3135,2.3135,2.3135,2.3135,2.3135,2.3135,2.3135,2.3135,2.3144,2.3144,2.3144,2.3154,2.3082,2.3085,2.3085,2.4683,2.5307,2.4434,2.4424,2.3997,2.3104,2.3117,2.3938,2.5675,2.5165,2.4779,2.4424,2.4424,2.5277,2.6896,2.6896,2.7774,2.9418,2.9407,2.9407,2.9498,3.0676,3.0496,2.9498,3.0676,3.0496,2.959,3.0765,3.1223,3.14,3.3359,3.3361,3.301,3.186,3.117,2.8765,2.2557,2.3037,2.6223,3.2574,3.1989,3.0873,3.0937,3.0946,3.0118,2.8191,2.3731,2.3874,3.042,2.54,2.3085,2.559,2.1603,1.8871,1.7618,1.7625,1.9411,2.3121,2.3076,2.3125,2.3135,2.3135,2.3135,2.3135,2.3135,2.3135,2.3135,2.3135,2.3135,2.3135,2.3135,2.3135,2.3135,2.3135,2.3135,2.3135,2.3135,2.3135,2.3135,2.3135,2.3135,2.3135,2.3135,2.3135,2.3135,2.3135,2.3135,2.3135,2.3135,2.3135,2.3135,2.3135,2.3047,2.2988,2.3105,2.3135,2.3135,2.3135,2.3135,2.3135,2.3135,2.3135,2.3135,2.3135,2.3135,2.3135,2.3135,2.3135,2.3252,2.3555,2.3702,2.3721,2.3764,2.3319,2.3626,2.4844,2.5385,2.5491,2.4883,2.5176,2.5156,2.4943,2.3738,2.3937,2.5644,2.5561,2.5371,2.5342,2.5019,2.5287,2.6094,2.6094,2.6516,2.7319,2.8147,2.8519,2.8614,2.99,2.9986,2.9407,2.9772,2.9681,2.9407,2.9772,3.0295,3.0898,3.242,3.2887,3.2874,3.1248,3.0898,2.865,2.2081,2.329,2.6802,3.1731,3.1484,3.0895,3.0928,3.0946,3.0907,3.0859,2.7263,2.671,3.0606,2.5892,2.4499,2.8182,2.263,1.8833,1.7598,1.7551,1.9411,2.3072,2.3107,2.3092,2.3065,2.3102,2.307,2.307,2.3123,2.3065,2.3055,2.3106,2.3135,2.3135,2.3135,2.3135,2.3135,2.3135,2.3135,2.3135,2.3135,2.3135,2.3135,2.3135,2.3135,2.3135,2.3135,2.3135,2.3135,2.3135,2.3135,2.3135,2.3135,2.3135,2.3135,2.3135,2.3135,2.3135,2.3135,2.3135,2.3135,2.3135,2.3135,2.3135,2.3135,2.3135,2.3135,2.3135,2.3135,2.3203,2.3389,2.3408,2.3555,2.3984,2.4274,2.4382,2.4385,2.4204,2.4691,2.5944,2.5826,2.5586,2.5334,2.5557,2.5673,2.571,2.4727,2.463,2.57,2.5734,2.5724,2.5732,2.5459,2.5478,2.5742,2.5742,2.5879,2.6133,2.6868,2.7349,2.759,2.8625,2.8675,2.82,2.8571,2.8402,2.8038,2.8495,2.929,3.0319,3.1114,3.2116,3.2743,3.1198,3.0911,2.868,2.2054,2.6232,3.0208,3.0869,3.0926,3.0866,3.0918,3.0917,3.0691,3.0055,3.056,3.0945,3.0927,2.9249,2.834,2.8284,2.3061,1.9633,1.83,1.8295,1.9981,2.3324,2.3168,2.3145,2.3361,2.3284,2.3324,2.3315,2.3305,2.3233,2.3066,2.3124,2.3076,2.3135,2.3135,2.3164,2.3193,2.3154,2.3164,2.3193,2.3154,2.3135,2.3144,2.3086,2.3076,2.3144,2.3086,2.3076,2.3135,2.3135,2.3135,2.3135,2.3135,2.3135,2.3135,2.3135,2.3174,2.3193,2.3154,2.3135,2.3135,2.3135,2.3174,2.3213,2.3203,2.3203,2.3203,2.3193,2.3106,2.333,2.3849,2.3938,2.4004,2.4424,2.4726,2.4888,2.4927,2.5436,2.6021,2.6576,2.6109,2.5733,2.5733,2.5722,2.5682,2.5654,2.5673,2.5682,2.5739,2.5673,2.5742,2.5742,2.5742,2.5742,2.5742,2.5742,2.5762,2.5791,2.584,2.6074,2.6516,2.7283,2.7161,2.6496,2.718,2.6815,2.5879,2.7051,2.8132,2.9212,3.1609,3.1533,3.1299,3.0982,3.0911,2.8729,2.2064,2.2282,2.5084,3.0285,3.0955,3.085,3.0898,3.0947,2.8847,2.3725,2.7922,3.0873,3.0857,2.9234,2.8347,2.8301,2.7074,2.5595,2.393,2.3981,2.4378,2.5121,2.3786,2.3769,2.5147,2.5125,2.5155,2.5155,2.5177,2.4352,2.3076,2.3099,2.3104,2.3135,2.3135,2.335,2.3613,2.3271,2.335,2.3603,2.3262,2.3135,2.3086,2.3073,2.3084,2.3096,2.3082,2.3075,2.3135,2.3135,2.3135,2.3135,2.3135,2.3135,2.3135,2.3135,2.3506,2.3683,2.3223,2.3135,2.3135,2.3135,2.3654,2.4019,2.388,2.3771,2.3771,2.3652,2.3306,2.3198,2.3294,2.4072,2.4687,2.475,2.4922,2.5183,2.5545,2.6094,2.6448,2.6625,2.6506,2.6387,2.6387,2.5977,2.5703,2.5722,2.5703,2.5703,2.5722,2.5703,2.5742,2.5742,2.5742,2.5742,2.5742,2.5742,2.5928,2.6269,2.6592,2.6787,2.6894,2.7436,2.7396,2.6836,2.6695,2.6537,2.6201,2.6142,2.6244,2.6557,3.1375,3.1054,3.0869,3.0953,3.0911,2.8689,2.2083,2.1105,2.3445,3.0101,3.0946,3.0889,3.0889,3.0908,2.8282,2.1704,2.632,2.9615,2.9648,2.8786,2.832,2.8319,2.8311,2.7447,2.5703,2.5718,2.5712,2.5727,2.4784,2.4818,2.5722,2.5714,2.569,2.569,2.5708,2.5212,2.4254,2.3477,2.3079,2.3084,2.3115,2.3271,2.3457,2.3223,2.3281,2.3447,2.3223,2.3095,2.3121,2.3104,2.3114,2.3085,2.3066,2.3085,2.3104,2.3104,2.3086,2.3135,2.3135,2.3076,2.3104,2.3104,2.3541,2.3965,2.3564,2.3613,2.365,2.3531,2.3926,2.4222,2.4443,2.4685,2.4584,2.3971,2.3962,2.404,2.4254,2.4712,2.5026,2.5217,2.5371,2.5566,2.6006,2.6445,2.6898,2.7114,2.7123,2.7055,2.697,2.6427,2.5967,2.5742,2.5742,2.5713,2.5672,2.6064,2.629,2.6348,2.6143,2.6152,2.6348,2.6348,2.6475,2.6689,2.6728,2.6846,2.7021,2.7436,2.7196,2.6699,2.6475,2.626,2.6055,2.582,2.5692,2.5813,3.0957,3.0889,3.0869,3.0953,2.9971,2.7417,2.1871,2.1121,2.3475,2.9999,3.0905,3.0889,3.0889,3.0946,2.8673,2.3291,2.6217,2.8353,2.8331,2.8258,2.8298,2.8301,2.8311,2.7446,2.5693,2.5669,2.5692,2.5694,2.5692,2.5682,2.5694,2.5702,2.5742,2.5723,2.5727,2.5654,2.564,2.4176,2.3367,2.3133,2.3142,2.3124,2.3124,2.3086,2.3193,2.3399,2.3184,2.3142,2.3057,2.307,2.3322,2.3566,2.353,2.3515,2.3528,2.3409,2.3297,2.3359,2.3359,2.3277,2.329,2.33,2.3837,2.4302,2.4202,2.4238,2.4312,2.4069,2.4117,2.4297,2.4795,2.5285,2.5285,2.4297,2.4551,2.5036,2.5506,2.5376,2.5322,2.5693,2.5801,2.5986,2.6357,2.6768,2.7168,2.7529,2.749,2.7437,2.7357,2.6851,2.6349,2.5732,2.581,2.6005,2.6106,2.6763,2.712,2.7251,2.6777,2.6748,2.7012,2.7031,2.7021,2.7002,2.6859,2.6898,2.7123,2.7381,2.7102,2.6604,2.6416,2.6172,2.584,2.5762,2.573,2.5894,3.0898,3.0889,3.0869,3.0953,2.6189,2.2105,2.1289,2.1126,2.3414,3.0071,3.0878,3.0889,3.0889,3.0946,3.0574,2.9671,2.8844,2.826,2.8349,2.8253,2.8298,2.8301,2.8311,2.7446,2.5693,2.5669,2.5713,2.5664,2.5713,2.5713,2.5664,2.5713,2.5742,2.5742,2.5693,2.569,2.568,2.5446,2.4433,2.311,2.3072,2.3054,2.3126,2.3138,2.3777,2.4546,2.3457,2.3094,2.31,2.3084,2.4085,2.5358,2.5357,2.5322,2.5197,2.4457,2.4185,2.4238,2.4238,2.4055,2.3963,2.4205,2.4893,2.5342,2.4893,2.4536,2.4414,2.4312,2.4707,2.4971,2.5085,2.5104,2.5104,2.4971,2.4961,2.4886,2.5039,2.5391,2.5674,2.5732,2.6074,2.6328,2.6387,2.6768,2.7041,2.71,2.6768,2.6802,2.7402,2.6933,2.6348,2.5756,2.64,2.7157,2.7903,2.76,2.7574,2.8123,2.7767,2.7324,2.7021,2.7275,2.7172,2.7031,2.7363,2.7457,2.7324,2.7619,2.753,2.7176,2.6653,2.6357,2.625,2.5879,2.5703,2.5761,3.0889,3.0889,3.0869,3.0953,2.5444,2.1067,2.1084,2.4209,2.7572,3.0458,3.0858,3.0889,3.0889,3.0898,3.0908,3.0878,2.9269,2.8314,2.8263,2.8279,2.833,2.8301,2.8271,2.7506,2.574,2.5738,2.5698,2.5672,2.5712,2.5742,2.5742,2.5742,2.5742,2.5742,2.5742,2.5751,2.569,2.5684,2.5218,2.451,2.4025,2.3817,2.3788,2.364,2.3903,2.4374,2.4146,2.3683,2.3222,2.4192,2.5063,2.5704,2.5661,2.5664,2.5648,2.5268,2.4741,2.4414,2.4414,2.4468,2.453,2.4652,2.5232,2.5681,2.543,2.5188,2.5156,2.5156,2.5303,2.5439,2.5439,2.5439,2.5439,2.5439,2.543,2.5324,2.5324,2.581,2.6073,2.6168,2.6371,2.6565,2.6676,2.7001,2.7205,2.717,2.7406,2.7467,2.7383,2.7221,2.7114,2.7149,2.7478,2.7951,2.8334,2.8058,2.8009,2.8288,2.8143,2.791,2.7734,2.7868,2.7859,2.7725,2.7953,2.7698,2.7182,2.7776,2.7439,2.6447,2.6496,2.6267,2.6,2.6316,2.616,2.571]}]]